Wetterdaten: Dienstag, 15.08.2017
Datum Zeit Temp. A. Pool Temp. Feuchte A. Luftdruck Regen Wind Richtung Richtung Sonnenschein ET UV Solar Taupunkt Windchill Windben Empfang
15.08.2017 00:00 17,6 C 21,7 C 81 % 1018,5 hPa 0,0 l/m 2,2 km/h (1 Bft) NO 52 0 min 0,000 mm 0,0 UV-I 0 W/m 14,3 C 17,6 C 3,2 km/h (1 Bft) 100,00 %
15.08.2017 00:02 17,6 C 21,7 C 81 % 1018,4 hPa 0,0 l/m 4,0 km/h (1 Bft) NO 52 0 min 0,000 mm 0,0 UV-I 0 W/m 14,3 C 17,6 C 6,4 km/h (2 Bft) 97,78 %
15.08.2017 00:04 17,6 C 21,7 C 81 % 1018,4 hPa 0,0 l/m 3,5 km/h (1 Bft) NO 52 0 min 0,000 mm 0,0 UV-I 0 W/m 14,3 C 17,6 C 4,8 km/h (1 Bft) 95,74 %
15.08.2017 00:06 17,6 C 21,7 C 81 % 1018,3 hPa 0,0 l/m 3,8 km/h (1 Bft) NO 52 0 min 0,000 mm 0,0 UV-I 0 W/m 14,3 C 17,6 C 4,8 km/h (1 Bft) 97,87 %
15.08.2017 00:08 17,6 C 21,7 C 81 % 1018,3 hPa 0,0 l/m 4,6 km/h (1 Bft) NO 52 0 min 0,000 mm 0,0 UV-I 0 W/m 14,3 C 17,6 C 6,4 km/h (2 Bft) 95,74 %
15.08.2017 00:10 17,6 C 21,7 C 81 % 1018,3 hPa 0,0 l/m 4,4 km/h (1 Bft) O-NO 65 0 min 0,000 mm 0,0 UV-I 0 W/m 14,3 C 17,6 C 6,4 km/h (2 Bft) 95,74 %
15.08.2017 00:12 17,6 C 21,7 C 81 % 1018,3 hPa 0,0 l/m 3,7 km/h (1 Bft) O-NO 65 0 min 0,000 mm 0,0 UV-I 0 W/m 14,3 C 17,6 C 6,4 km/h (2 Bft) 97,87 %
15.08.2017 00:14 17,7 C 21,7 C 81 % 1018,3 hPa 0,0 l/m 4,1 km/h (1 Bft) O-NO 67 0 min 0,000 mm 0,0 UV-I 0 W/m 14,4 C 17,7 C 6,4 km/h (2 Bft) 97,87 %
15.08.2017 00:16 17,7 C 21,7 C 81 % 1018,4 hPa 0,0 l/m 4,4 km/h (1 Bft) O-NO 71 0 min 0,000 mm 0,0 UV-I 0 W/m 14,4 C 17,7 C 8,0 km/h (2 Bft) 97,37 %
15.08.2017 00:18 17,7 C 21,7 C 81 % 1018,3 hPa 0,0 l/m 5,3 km/h (1 Bft) O-NO 72 0 min 0,000 mm 0,0 UV-I 0 W/m 14,4 C 17,7 C 6,4 km/h (2 Bft) 97,87 %
15.08.2017 00:20 17,7 C 21,7 C 81 % 1018,4 hPa 0,0 l/m 4,6 km/h (1 Bft) O-NO 72 0 min 0,000 mm 0,0 UV-I 0 W/m 14,4 C 17,7 C 6,4 km/h (2 Bft) 95,74 %
15.08.2017 00:22 17,7 C 21,7 C 81 % 1018,4 hPa 0,0 l/m 3,3 km/h (1 Bft) O-NO 72 0 min 0,000 mm 0,0 UV-I 0 W/m 14,4 C 17,7 C 4,8 km/h (1 Bft) 95,74 %
15.08.2017 00:24 17,7 C 21,7 C 81 % 1018,4 hPa 0,0 l/m 3,4 km/h (1 Bft) O-NO 72 0 min 0,000 mm 0,0 UV-I 0 W/m 14,4 C 17,7 C 4,8 km/h (1 Bft) 95,74 %
15.08.2017 00:26 17,7 C 21,7 C 81 % 1018,4 hPa 0,0 l/m 5,5 km/h (1 Bft) O-NO 68 0 min 0,000 mm 0,0 UV-I 0 W/m 14,4 C 17,7 C 6,4 km/h (2 Bft) 96,00 %
15.08.2017 00:28 17,7 C 21,7 C 81 % 1018,4 hPa 0,0 l/m 6,2 km/h (2 Bft) O-NO 67 0 min 0,000 mm 0,0 UV-I 0 W/m 14,4 C 17,7 C 8,0 km/h (2 Bft) 91,49 %
15.08.2017 00:30 17,7 C 21,7 C 81 % 1018,4 hPa 0,0 l/m 5,8 km/h (2 Bft) O-NO 60 0 min 0,000 mm 0,0 UV-I 0 W/m 14,4 C 17,7 C 8,0 km/h (2 Bft) 93,62 %
15.08.2017 00:32 17,7 C 21,7 C 81 % 1018,4 hPa 0,0 l/m 7,0 km/h (2 Bft) O-NO 71 0 min 0,000 mm 0,0 UV-I 0 W/m 14,4 C 17,4 C 11,3 km/h (2 Bft) 92,00 %
15.08.2017 00:34 17,7 C 21,7 C 80 % 1018,4 hPa 0,0 l/m 5,1 km/h (1 Bft) O-NO 73 0 min 0,000 mm 0,0 UV-I 0 W/m 14,2 C 17,7 C 6,4 km/h (2 Bft) 95,74 %
15.08.2017 00:36 17,7 C 21,7 C 80 % 1018,3 hPa 0,0 l/m 5,3 km/h (1 Bft) O-NO 72 0 min 0,000 mm 0,0 UV-I 0 W/m 14,2 C 17,7 C 6,4 km/h (2 Bft) 95,74 %
15.08.2017 00:38 17,7 C 21,7 C 80 % 1018,3 hPa 0,0 l/m 5,3 km/h (1 Bft) O-NO 65 0 min 0,000 mm 0,0 UV-I 0 W/m 14,2 C 17,7 C 8,0 km/h (2 Bft) 93,75 %
15.08.2017 00:40 17,8 C 21,7 C 80 % 1018,3 hPa 0,0 l/m 4,7 km/h (1 Bft) O-NO 62 0 min 0,000 mm 0,0 UV-I 0 W/m 14,3 C 17,8 C 6,4 km/h (2 Bft) 95,74 %
15.08.2017 00:42 17,8 C 21,7 C 80 % 1018,3 hPa 0,0 l/m 4,4 km/h (1 Bft) O-NO 67 0 min 0,000 mm 0,0 UV-I 0 W/m 14,3 C 17,8 C 6,4 km/h (2 Bft) 95,74 %
15.08.2017 00:44 17,8 C 21,7 C 80 % 1018,3 hPa 0,0 l/m 4,8 km/h (1 Bft) O-NO 63 0 min 0,000 mm 0,0 UV-I 0 W/m 14,3 C 17,8 C 6,4 km/h (2 Bft) 93,62 %
15.08.2017 00:46 17,8 C 21,7 C 80 % 1018,3 hPa 0,0 l/m 5,1 km/h (1 Bft) O-NO 70 0 min 0,000 mm 0,0 UV-I 0 W/m 14,3 C 17,8 C 6,4 km/h (2 Bft) 95,74 %
15.08.2017 00:48 17,8 C 21,7 C 79 % 1018,3 hPa 0,0 l/m 5,7 km/h (1 Bft) NO 46 0 min 0,000 mm 0,0 UV-I 0 W/m 14,1 C 17,8 C 8,0 km/h (2 Bft) 94,29 %
15.08.2017 00:50 17,8 C 21,7 C 80 % 1018,3 hPa 0,0 l/m 5,8 km/h (2 Bft) O-NO 72 0 min 0,000 mm 0,0 UV-I 0 W/m 14,3 C 17,8 C 9,7 km/h (2 Bft) 95,74 %
15.08.2017 00:52 17,7 C 21,7 C 80 % 1018,4 hPa 0,0 l/m 5,8 km/h (2 Bft) O 88 0 min 0,000 mm 0,0 UV-I 0 W/m 14,2 C 17,7 C 8,0 km/h (2 Bft) 95,74 %
15.08.2017 00:54 17,7 C 21,7 C 79 % 1018,4 hPa 0,0 l/m 5,3 km/h (1 Bft) O-NO 72 0 min 0,000 mm 0,0 UV-I 0 W/m 14,0 C 17,7 C 9,7 km/h (2 Bft) 93,62 %
15.08.2017 00:56 17,7 C 21,7 C 79 % 1018,3 hPa 0,0 l/m 4,9 km/h (1 Bft) O-NO 77 0 min 0,000 mm 0,0 UV-I 0 W/m 14,0 C 17,7 C 8,0 km/h (2 Bft) 96,00 %
15.08.2017 00:58 17,7 C 21,7 C 79 % 1018,4 hPa 0,0 l/m 5,1 km/h (1 Bft) O-NO 68 0 min 0,000 mm 0,0 UV-I 0 W/m 14,0 C 17,7 C 11,3 km/h (2 Bft) 93,62 %
15.08.2017 01:00 17,7 C 21,7 C 79 % 1018,4 hPa 0,0 l/m 5,8 km/h (2 Bft) O 79 0 min 0,025 mm 0,0 UV-I 0 W/m 14,0 C 17,7 C 11,3 km/h (2 Bft) 95,74 %
15.08.2017 01:02 17,7 C 21,7 C 79 % 1018,4 hPa 0,0 l/m 5,3 km/h (1 Bft) O 95 0 min 0,000 mm 0,0 UV-I 0 W/m 14,0 C 17,7 C 8,0 km/h (2 Bft) 97,92 %
15.08.2017 01:04 17,7 C 21,7 C 79 % 1018,4 hPa 0,0 l/m 7,2 km/h (2 Bft) O-NO 69 0 min 0,000 mm 0,0 UV-I 0 W/m 14,0 C 17,3 C 11,3 km/h (2 Bft) 97,87 %
15.08.2017 01:06 17,7 C 21,7 C 79 % 1018,4 hPa 0,0 l/m 6,7 km/h (2 Bft) O 80 0 min 0,000 mm 0,0 UV-I 0 W/m 14,0 C 17,6 C 11,3 km/h (2 Bft) 93,62 %
15.08.2017 01:08 17,7 C 21,7 C 79 % 1018,3 hPa 0,0 l/m 5,2 km/h (1 Bft) O-NO 74 0 min 0,000 mm 0,0 UV-I 0 W/m 14,0 C 17,7 C 6,4 km/h (2 Bft) 96,00 %
15.08.2017 01:10 17,7 C 21,7 C 79 % 1018,3 hPa 0,0 l/m 4,9 km/h (1 Bft) O 81 0 min 0,000 mm 0,0 UV-I 0 W/m 14,0 C 17,7 C 11,3 km/h (2 Bft) 97,87 %
15.08.2017 01:12 17,7 C 21,7 C 79 % 1018,3 hPa 0,0 l/m 5,7 km/h (1 Bft) O 90 0 min 0,000 mm 0,0 UV-I 0 W/m 14,0 C 17,7 C 11,3 km/h (2 Bft) 97,87 %
15.08.2017 01:14 17,7 C 21,7 C 79 % 1018,3 hPa 0,0 l/m 4,1 km/h (1 Bft) O 88 0 min 0,000 mm 0,0 UV-I 0 W/m 14,0 C 17,7 C 6,4 km/h (2 Bft) 100,00 %
15.08.2017 01:16 17,7 C 21,7 C 78 % 1018,4 hPa 0,0 l/m 5,1 km/h (1 Bft) O-SO 103 0 min 0,000 mm 0,0 UV-I 0 W/m 13,8 C 17,7 C 8,0 km/h (2 Bft) 100,00 %
15.08.2017 01:18 17,7 C 21,7 C 78 % 1018,4 hPa 0,0 l/m 4,6 km/h (1 Bft) O-NO 76 0 min 0,000 mm 0,0 UV-I 0 W/m 13,8 C 17,7 C 6,4 km/h (2 Bft) 97,92 %
15.08.2017 01:20 17,7 C 21,7 C 78 % 1018,4 hPa 0,0 l/m 4,3 km/h (1 Bft) O-NO 74 0 min 0,000 mm 0,0 UV-I 0 W/m 13,8 C 17,7 C 6,4 km/h (2 Bft) 97,87 %
15.08.2017 01:22 17,7 C 21,7 C 78 % 1018,4 hPa 0,0 l/m 4,5 km/h (1 Bft) O-NO 74 0 min 0,000 mm 0,0 UV-I 0 W/m 13,8 C 17,7 C 6,4 km/h (2 Bft) 100,00 %
15.08.2017 01:24 17,7 C 21,7 C 78 % 1018,3 hPa 0,0 l/m 3,7 km/h (1 Bft) O-NO 74 0 min 0,000 mm 0,0 UV-I 0 W/m 13,8 C 17,7 C 6,4 km/h (2 Bft) 97,87 %
15.08.2017 01:26 17,7 C 21,7 C 78 % 1018,3 hPa 0,0 l/m 3,6 km/h (1 Bft) O-NO 62 0 min 0,000 mm 0,0 UV-I 0 W/m 13,8 C 17,7 C 4,8 km/h (1 Bft) 100,00 %
15.08.2017 01:28 17,6 C 21,7 C 78 % 1018,3 hPa 0,0 l/m 3,4 km/h (1 Bft) O-NO 62 0 min 0,000 mm 0,0 UV-I 0 W/m 13,7 C 17,6 C 4,8 km/h (1 Bft) 100,00 %
15.08.2017 01:30 17,6 C 21,7 C 78 % 1018,3 hPa 0,0 l/m 3,4 km/h (1 Bft) O-NO 62 0 min 0,000 mm 0,0 UV-I 0 W/m 13,7 C 17,6 C 4,8 km/h (1 Bft) 100,00 %
15.08.2017 01:32 17,6 C 21,7 C 79 % 1018,3 hPa 0,0 l/m 3,9 km/h (1 Bft) O-NO 63 0 min 0,000 mm 0,0 UV-I 0 W/m 13,9 C 17,6 C 4,8 km/h (1 Bft) 100,00 %
15.08.2017 01:34 17,5 C 21,7 C 79 % 1018,2 hPa 0,0 l/m 3,5 km/h (1 Bft) O-NO 62 0 min 0,000 mm 0,0 UV-I 0 W/m 13,8 C 17,5 C 4,8 km/h (1 Bft) 100,00 %
15.08.2017 01:36 17,4 C 21,7 C 79 % 1018,2 hPa 0,0 l/m 3,7 km/h (1 Bft) O-NO 63 0 min 0,000 mm 0,0 UV-I 0 W/m 13,7 C 17,4 C 6,4 km/h (2 Bft) 97,87 %
15.08.2017 01:38 17,4 C 21,7 C 79 % 1018,2 hPa 0,0 l/m 3,6 km/h (1 Bft) O-NO 63 0 min 0,000 mm 0,0 UV-I 0 W/m 13,7 C 17,4 C 4,8 km/h (1 Bft) 100,00 %
15.08.2017 01:40 17,4 C 21,7 C 79 % 1018,2 hPa 0,0 l/m 3,8 km/h (1 Bft) NO 53 0 min 0,000 mm 0,0 UV-I 0 W/m 13,7 C 17,4 C 6,4 km/h (2 Bft) 100,00 %
15.08.2017 01:42 17,3 C 21,7 C 79 % 1018,2 hPa 0,0 l/m 4,0 km/h (1 Bft) NO 55 0 min 0,000 mm 0,0 UV-I 0 W/m 13,6 C 17,3 C 4,8 km/h (1 Bft) 100,00 %
15.08.2017 01:44 17,3 C 21,7 C 79 % 1018,2 hPa 0,0 l/m 3,8 km/h (1 Bft) O-NO 61 0 min 0,000 mm 0,0 UV-I 0 W/m 13,6 C 17,3 C 6,4 km/h (2 Bft) 100,00 %
15.08.2017 01:46 17,3 C 21,7 C 79 % 1018,2 hPa 0,0 l/m 4,6 km/h (1 Bft) O-NO 61 0 min 0,000 mm 0,0 UV-I 0 W/m 13,6 C 17,3 C 6,4 km/h (2 Bft) 98,00 %
15.08.2017 01:48 17,2 C 21,7 C 79 % 1018,2 hPa 0,0 l/m 4,7 km/h (1 Bft) O-NO 58 0 min 0,000 mm 0,0 UV-I 0 W/m 13,5 C 17,2 C 6,4 km/h (2 Bft) 100,00 %
15.08.2017 01:50 17,2 C 21,7 C 80 % 1018,2 hPa 0,0 l/m 5,6 km/h (1 Bft) NO 55 0 min 0,000 mm 0,0 UV-I 0 W/m 13,7 C 17,2 C 8,0 km/h (2 Bft) 100,00 %
15.08.2017 01:52 17,2 C 21,7 C 80 % 1018,1 hPa 0,0 l/m 5,0 km/h (1 Bft) O-NO 67 0 min 0,000 mm 0,0 UV-I 0 W/m 13,7 C 17,2 C 8,0 km/h (2 Bft) 97,87 %
15.08.2017 01:54 17,2 C 21,7 C 80 % 1018,2 hPa 0,0 l/m 5,0 km/h (1 Bft) NO 53 0 min 0,000 mm 0,0 UV-I 0 W/m 13,7 C 17,2 C 8,0 km/h (2 Bft) 100,00 %
15.08.2017 01:56 17,2 C 21,7 C 80 % 1018,2 hPa 0,0 l/m 4,4 km/h (1 Bft) O-NO 65 0 min 0,000 mm 0,0 UV-I 0 W/m 13,7 C 17,2 C 6,4 km/h (2 Bft) 100,00 %
15.08.2017 01:58 17,2 C 21,7 C 80 % 1018,1 hPa 0,0 l/m 3,0 km/h (1 Bft) O-NO 65 0 min 0,000 mm 0,0 UV-I 0 W/m 13,7 C 17,2 C 6,4 km/h (2 Bft) 100,00 %
15.08.2017 02:00 17,1 C 21,7 C 80 % 1018,1 hPa 0,0 l/m 5,2 km/h (1 Bft) O-NO 76 0 min 0,026 mm 0,0 UV-I 0 W/m 13,6 C 17,1 C 6,4 km/h (2 Bft) 100,00 %
15.08.2017 02:02 17,1 C 21,7 C 80 % 1018,1 hPa 0,0 l/m 6,0 km/h (2 Bft) O-NO 76 0 min 0,000 mm 0,0 UV-I 0 W/m 13,6 C 17,1 C 9,7 km/h (2 Bft) 94,74 %
15.08.2017 02:04 17,1 C 21,7 C 80 % 1018,0 hPa 0,0 l/m 6,1 km/h (2 Bft) O-NO 76 0 min 0,000 mm 0,0 UV-I 0 W/m 13,6 C 17,1 C 12,9 km/h (3 Bft) 97,87 %
15.08.2017 02:06 17,1 C 21,7 C 80 % 1018,1 hPa 0,0 l/m 6,5 km/h (2 Bft) O-NO 71 0 min 0,000 mm 0,0 UV-I 0 W/m 13,6 C 17,1 C 11,3 km/h (2 Bft) 97,87 %
15.08.2017 02:08 17,1 C 21,7 C 80 % 1018,1 hPa 0,0 l/m 7,6 km/h (2 Bft) O-NO 75 0 min 0,000 mm 0,0 UV-I 0 W/m 13,6 C 16,5 C 12,9 km/h (3 Bft) 100,00 %
15.08.2017 02:10 17,1 C 21,7 C 80 % 1018,1 hPa 0,0 l/m 6,9 km/h (2 Bft) O-NO 66 0 min 0,000 mm 0,0 UV-I 0 W/m 13,6 C 16,9 C 12,9 km/h (3 Bft) 100,00 %
15.08.2017 02:12 17,1 C 21,7 C 80 % 1018,1 hPa 0,0 l/m 5,8 km/h (2 Bft) O-NO 63 0 min 0,000 mm 0,0 UV-I 0 W/m 13,6 C 17,1 C 11,3 km/h (2 Bft) 100,00 %
15.08.2017 02:14 17,2 C 21,7 C 80 % 1018,1 hPa 0,0 l/m 6,0 km/h (2 Bft) O-NO 72 0 min 0,000 mm 0,0 UV-I 0 W/m 13,7 C 17,2 C 8,0 km/h (2 Bft) 94,00 %
15.08.2017 02:16 17,1 C 21,7 C 80 % 1018,1 hPa 0,0 l/m 4,1 km/h (1 Bft) O-NO 78 0 min 0,000 mm 0,0 UV-I 0 W/m 13,6 C 17,1 C 8,0 km/h (2 Bft) 100,00 %
15.08.2017 02:18 17,1 C 21,7 C 80 % 1018,1 hPa 0,0 l/m 1,4 km/h (1 Bft) O-NO 78 0 min 0,000 mm 0,0 UV-I 0 W/m 13,6 C 17,1 C 3,2 km/h (1 Bft) 100,00 %
15.08.2017 02:20 17,1 C 21,7 C 80 % 1018,2 hPa 0,0 l/m 1,6 km/h (1 Bft) O 92 0 min 0,000 mm 0,0 UV-I 0 W/m 13,6 C 17,1 C 3,2 km/h (1 Bft) 100,00 %
15.08.2017 02:22 17,0 C 21,7 C 81 % 1018,2 hPa 0,0 l/m 1,4 km/h (1 Bft) O 92 0 min 0,000 mm 0,0 UV-I 0 W/m 13,7 C 17,0 C 3,2 km/h (1 Bft) 100,00 %
15.08.2017 02:24 17,0 C 21,7 C 81 % 1018,2 hPa 0,0 l/m 2,8 km/h (1 Bft) O 92 0 min 0,000 mm 0,0 UV-I 0 W/m 13,7 C 17,0 C 6,4 km/h (2 Bft) 100,00 %
15.08.2017 02:26 17,0 C 21,7 C 81 % 1018,2 hPa 0,0 l/m 1,5 km/h (1 Bft) O 92 0 min 0,000 mm 0,0 UV-I 0 W/m 13,7 C 17,0 C 3,2 km/h (1 Bft) 95,74 %
15.08.2017 02:28 16,9 C 21,7 C 81 % 1018,1 hPa 0,0 l/m 1,6 km/h (1 Bft) O 92 0 min 0,000 mm 0,0 UV-I 0 W/m 13,6 C 16,9 C 3,2 km/h (1 Bft) 95,24 %
15.08.2017 02:30 16,9 C 21,7 C 81 % 1018,1 hPa 0,0 l/m 0,3 km/h (0 Bft) O 92 0 min 0,000 mm 0,0 UV-I 0 W/m 13,6 C 16,9 C 1,6 km/h (1 Bft) 95,74 %
15.08.2017 02:32 16,9 C 21,7 C 81 % 1018,1 hPa 0,0 l/m 1,1 km/h (1 Bft) O-NO 71 0 min 0,000 mm 0,0 UV-I 0 W/m 13,6 C 16,9 C 4,8 km/h (1 Bft) 97,87 %
15.08.2017 02:34 16,9 C 21,7 C 81 % 1018,1 hPa 0,0 l/m 0,1 km/h (0 Bft) O-NO 71 0 min 0,000 mm 0,0 UV-I 0 W/m 13,6 C 16,9 C 1,6 km/h (1 Bft) 97,87 %
15.08.2017 02:36 16,8 C 21,7 C 81 % 1018,0 hPa 0,0 l/m 0,8 km/h (0 Bft) O-NO 71 0 min 0,000 mm 0,0 UV-I 0 W/m 13,5 C 16,8 C 3,2 km/h (1 Bft) 97,87 %
15.08.2017 02:38 16,8 C 21,7 C 81 % 1018,0 hPa 0,0 l/m 1,7 km/h (1 Bft) O-NO 71 0 min 0,000 mm 0,0 UV-I 0 W/m 13,5 C 16,8 C 3,2 km/h (1 Bft) 95,74 %
15.08.2017 02:40 16,8 C 21,7 C 81 % 1018,0 hPa 0,0 l/m 2,3 km/h (1 Bft) O-NO 71 0 min 0,000 mm 0,0 UV-I 0 W/m 13,5 C 16,8 C 4,8 km/h (1 Bft) 97,87 %
15.08.2017 02:42 16,7 C 21,7 C 81 % 1018,1 hPa 0,0 l/m 0,5 km/h (0 Bft) O-NO 71 0 min 0,000 mm 0,0 UV-I 0 W/m 13,4 C 16,7 C 1,6 km/h (1 Bft) 95,74 %
15.08.2017 02:44 16,7 C 21,7 C 82 % 1018,1 hPa 0,0 l/m 0,0 km/h (0 Bft) O-NO 71 0 min 0,000 mm 0,0 UV-I 0 W/m 13,6 C 16,7 C 0,0 km/h (0 Bft) 95,74 %
15.08.2017 02:46 16,6 C 21,7 C 82 % 1018,1 hPa 0,0 l/m 2,6 km/h (1 Bft) O-NO 71 0 min 0,000 mm 0,0 UV-I 0 W/m 13,5 C 16,6 C 4,8 km/h (1 Bft) 97,92 %
15.08.2017 02:48 16,5 C 21,7 C 82 % 1018,1 hPa 0,0 l/m 3,2 km/h (1 Bft) O-NO 71 0 min 0,000 mm 0,0 UV-I 0 W/m 13,4 C 16,5 C 4,8 km/h (1 Bft) 97,87 %
15.08.2017 02:50 16,4 C 21,7 C 82 % 1018,1 hPa 0,0 l/m 2,4 km/h (1 Bft) O-NO 71 0 min 0,000 mm 0,0 UV-I 0 W/m 13,3 C 16,4 C 4,8 km/h (1 Bft) 95,74 %
15.08.2017 02:52 16,3 C 21,7 C 83 % 1018,1 hPa 0,0 l/m 2,5 km/h (1 Bft) O-NO 71 0 min 0,000 mm 0,0 UV-I 0 W/m 13,4 C 16,3 C 3,2 km/h (1 Bft) 93,62 %
15.08.2017 02:54 16,3 C 21,7 C 83 % 1018,1 hPa 0,0 l/m 2,4 km/h (1 Bft) O-NO 71 0 min 0,000 mm 0,0 UV-I 0 W/m 13,4 C 16,3 C 3,2 km/h (1 Bft) 95,74 %
15.08.2017 02:56 16,2 C 21,7 C 83 % 1018,1 hPa 0,0 l/m 2,5 km/h (1 Bft) O-NO 71 0 min 0,000 mm 0,0 UV-I 0 W/m 13,3 C 16,2 C 3,2 km/h (1 Bft) 97,87 %
15.08.2017 02:58 16,2 C 21,7 C 83 % 1018,0 hPa 0,0 l/m 2,4 km/h (1 Bft) O-NO 71 0 min 0,000 mm 0,0 UV-I 0 W/m 13,3 C 16,2 C 3,2 km/h (1 Bft) 92,00 %
15.08.2017 03:00 16,1 C 21,7 C 83 % 1018,0 hPa 0,0 l/m 2,2 km/h (1 Bft) O-NO 71 0 min 0,000 mm 0,0 UV-I 0 W/m 13,2 C 16,1 C 3,2 km/h (1 Bft) 95,74 %
15.08.2017 03:02 16,1 C 21,7 C 84 % 1018,1 hPa 0,0 l/m 1,8 km/h (1 Bft) O-NO 71 0 min 0,000 mm 0,0 UV-I 0 W/m 13,4 C 16,1 C 3,2 km/h (1 Bft) 100,00 %
15.08.2017 03:04 16,0 C 21,7 C 84 % 1018,0 hPa 0,0 l/m 1,6 km/h (1 Bft) O-NO 71 0 min 0,000 mm 0,0 UV-I 0 W/m 13,3 C 16,0 C 3,2 km/h (1 Bft) 95,74 %
15.08.2017 03:06 16,0 C 21,7 C 84 % 1018,1 hPa 0,0 l/m 2,0 km/h (1 Bft) O-NO 71 0 min 0,000 mm 0,0 UV-I 0 W/m 13,3 C 16,0 C 3,2 km/h (1 Bft) 100,00 %
15.08.2017 03:08 16,0 C 21,7 C 84 % 1018,0 hPa 0,0 l/m 2,0 km/h (1 Bft) O-NO 71 0 min 0,000 mm 0,0 UV-I 0 W/m 13,3 C 16,0 C 4,8 km/h (1 Bft) 100,00 %
15.08.2017 03:10 15,9 C 21,7 C 84 % 1018,0 hPa 0,0 l/m 1,9 km/h (1 Bft) O-NO 71 0 min 0,000 mm 0,0 UV-I 0 W/m 13,2 C 15,9 C 3,2 km/h (1 Bft) 100,00 %
15.08.2017 03:12 15,9 C 21,1 C 84 % 1018,0 hPa 0,0 l/m 2,0 km/h (1 Bft) O-NO 71 0 min 0,000 mm 0,0 UV-I 0 W/m 13,2 C 15,9 C 3,2 km/h (1 Bft) 100,00 %
15.08.2017 03:14 15,9 C 21,7 C 84 % 1018,0 hPa 0,0 l/m 2,0 km/h (1 Bft) O-NO 71 0 min 0,000 mm 0,0 UV-I 0 W/m 13,2 C 15,9 C 3,2 km/h (1 Bft) 100,00 %
15.08.2017 03:16 15,9 C 21,1 C 84 % 1018,0 hPa 0,0 l/m 3,0 km/h (1 Bft) O-NO 71 0 min 0,000 mm 0,0 UV-I 0 W/m 13,2 C 15,9 C 4,8 km/h (1 Bft) 97,87 %
15.08.2017 03:18 15,9 C 21,1 C 84 % 1018,0 hPa 0,0 l/m 2,3 km/h (1 Bft) O-NO 71 0 min 0,000 mm 0,0 UV-I 0 W/m 13,2 C 15,9 C 3,2 km/h (1 Bft) 97,87 %
15.08.2017 03:20 15,9 C 21,1 C 84 % 1018,0 hPa 0,0 l/m 2,9 km/h (1 Bft) O-NO 71 0 min 0,000 mm 0,0 UV-I 0 W/m 13,2 C 15,9 C 4,8 km/h (1 Bft) 100,00 %
15.08.2017 03:22 15,9 C 21,1 C 84 % 1018,0 hPa 0,0 l/m 2,2 km/h (1 Bft) O-NO 71 0 min 0,000 mm 0,0 UV-I 0 W/m 13,2 C 15,9 C 4,8 km/h (1 Bft) 100,00 %
15.08.2017 03:24 15,9 C 21,1 C 84 % 1018,0 hPa 0,0 l/m 2,2 km/h (1 Bft) O-NO 71 0 min 0,000 mm 0,0 UV-I 0 W/m 13,2 C 15,9 C 4,8 km/h (1 Bft) 100,00 %
15.08.2017 03:26 15,9 C 21,1 C 84 % 1018,0 hPa 0,0 l/m 2,4 km/h (1 Bft) O-NO 71 0 min 0,000 mm 0,0 UV-I 0 W/m 13,2 C 15,9 C 3,2 km/h (1 Bft) 100,00 %
15.08.2017 03:28 15,9 C 21,1 C 84 % 1018,0 hPa 0,0 l/m 3,2 km/h (1 Bft) O-NO 71 0 min 0,000 mm 0,0 UV-I 0 W/m 13,2 C 15,9 C 4,8 km/h (1 Bft) 100,00 %
15.08.2017 03:30 15,9 C 21,1 C 84 % 1018,0 hPa 0,0 l/m 3,1 km/h (1 Bft) O-NO 71 0 min 0,000 mm 0,0 UV-I 0 W/m 13,2 C 15,9 C 4,8 km/h (1 Bft) 100,00 %
15.08.2017 03:32 15,9 C 21,1 C 84 % 1018,0 hPa 0,0 l/m 1,8 km/h (1 Bft) O-NO 71 0 min 0,000 mm 0,0 UV-I 0 W/m 13,2 C 15,9 C 3,2 km/h (1 Bft) 100,00 %
15.08.2017 03:34 15,8 C 21,1 C 84 % 1018,0 hPa 0,0 l/m 2,7 km/h (1 Bft) O-NO 71 0 min 0,000 mm 0,0 UV-I 0 W/m 13,1 C 15,8 C 4,8 km/h (1 Bft) 100,00 %
15.08.2017 03:36 15,8 C 21,1 C 84 % 1018,0 hPa 0,0 l/m 3,0 km/h (1 Bft) O-NO 71 0 min 0,000 mm 0,0 UV-I 0 W/m 13,1 C 15,8 C 4,8 km/h (1 Bft) 95,74 %
15.08.2017 03:38 15,8 C 21,1 C 84 % 1018,0 hPa 0,0 l/m 2,9 km/h (1 Bft) O-NO 71 0 min 0,000 mm 0,0 UV-I 0 W/m 13,1 C 15,8 C 3,2 km/h (1 Bft) 97,87 %
15.08.2017 03:40 15,7 C 21,1 C 84 % 1018,0 hPa 0,0 l/m 2,1 km/h (1 Bft) O-NO 71 0 min 0,000 mm 0,0 UV-I 0 W/m 13,0 C 15,7 C 4,8 km/h (1 Bft) 100,00 %
15.08.2017 03:42 15,7 C 21,1 C 84 % 1018,0 hPa 0,0 l/m 2,0 km/h (1 Bft) O-NO 71 0 min 0,000 mm 0,0 UV-I 0 W/m 13,0 C 15,7 C 4,8 km/h (1 Bft) 100,00 %
15.08.2017 03:44 15,7 C 21,1 C 84 % 1017,9 hPa 0,0 l/m 2,6 km/h (1 Bft) O-NO 71 0 min 0,000 mm 0,0 UV-I 0 W/m 13,0 C 15,7 C 4,8 km/h (1 Bft) 95,74 %
15.08.2017 03:46 15,7 C 21,1 C 84 % 1017,9 hPa 0,0 l/m 3,9 km/h (1 Bft) O-NO 65 0 min 0,000 mm 0,0 UV-I 0 W/m 13,0 C 15,7 C 6,4 km/h (2 Bft) 95,74 %
15.08.2017 03:48 15,7 C 21,1 C 84 % 1017,9 hPa 0,0 l/m 2,6 km/h (1 Bft) O-NO 65 0 min 0,000 mm 0,0 UV-I 0 W/m 13,0 C 15,7 C 4,8 km/h (1 Bft) 95,83 %
15.08.2017 03:50 15,7 C 21,1 C 84 % 1017,9 hPa 0,0 l/m 2,7 km/h (1 Bft) O-NO 65 0 min 0,000 mm 0,0 UV-I 0 W/m 13,0 C 15,7 C 4,8 km/h (1 Bft) 97,87 %
15.08.2017 03:52 15,7 C 21,1 C 84 % 1017,9 hPa 0,0 l/m 3,7 km/h (1 Bft) O-NO 65 0 min 0,000 mm 0,0 UV-I 0 W/m 13,0 C 15,7 C 4,8 km/h (1 Bft) 94,74 %
15.08.2017 03:54 15,7 C 21,1 C 84 % 1017,9 hPa 0,0 l/m 2,8 km/h (1 Bft) O-NO 65 0 min 0,000 mm 0,0 UV-I 0 W/m 13,0 C 15,7 C 4,8 km/h (1 Bft) 95,16 %
15.08.2017 03:56 15,7 C 21,1 C 84 % 1017,9 hPa 0,0 l/m 3,2 km/h (1 Bft) O-NO 65 0 min 0,000 mm 0,0 UV-I 0 W/m 13,0 C 15,7 C 4,8 km/h (1 Bft) 97,14 %
15.08.2017 03:58 15,7 C 21,1 C 84 % 1018,0 hPa 0,0 l/m 3,5 km/h (1 Bft) O-NO 65 0 min 0,000 mm 0,0 UV-I 0 W/m 13,0 C 15,7 C 6,4 km/h (2 Bft) 98,00 %
15.08.2017 04:00 15,7 C 21,1 C 84 % 1018,0 hPa 0,0 l/m 4,1 km/h (1 Bft) O-NO 65 0 min 0,000 mm 0,0 UV-I 0 W/m 13,0 C 15,7 C 6,4 km/h (2 Bft) 93,62 %
15.08.2017 04:02 15,7 C 21,1 C 84 % 1018,0 hPa 0,0 l/m 2,9 km/h (1 Bft) O-NO 65 0 min 0,000 mm 0,0 UV-I 0 W/m 13,0 C 15,7 C 4,8 km/h (1 Bft) 100,00 %
15.08.2017 04:04 15,7 C 21,1 C 84 % 1018,0 hPa 0,0 l/m 2,1 km/h (1 Bft) O-NO 65 0 min 0,000 mm 0,0 UV-I 0 W/m 13,0 C 15,7 C 3,2 km/h (1 Bft) 95,74 %
15.08.2017 04:06 15,7 C 21,1 C 84 % 1017,9 hPa 0,0 l/m 3,4 km/h (1 Bft) O-NO 65 0 min 0,000 mm 0,0 UV-I 0 W/m 13,0 C 15,7 C 4,8 km/h (1 Bft) 97,87 %
15.08.2017 04:08 15,7 C 21,1 C 84 % 1017,9 hPa 0,0 l/m 3,8 km/h (1 Bft) O-NO 65 0 min 0,000 mm 0,0 UV-I 0 W/m 13,0 C 15,7 C 4,8 km/h (1 Bft) 97,87 %
15.08.2017 04:10 15,6 C 21,1 C 84 % 1017,9 hPa 0,0 l/m 3,7 km/h (1 Bft) O-NO 65 0 min 0,000 mm 0,0 UV-I 0 W/m 12,9 C 15,6 C 4,8 km/h (1 Bft) 97,87 %
15.08.2017 04:12 15,6 C 21,1 C 84 % 1017,9 hPa 0,0 l/m 4,0 km/h (1 Bft) O-NO 65 0 min 0,000 mm 0,0 UV-I 0 W/m 12,9 C 15,6 C 6,4 km/h (2 Bft) 96,00 %
15.08.2017 04:14 15,6 C 21,1 C 84 % 1017,9 hPa 0,0 l/m 3,8 km/h (1 Bft) O-NO 65 0 min 0,000 mm 0,0 UV-I 0 W/m 12,9 C 15,6 C 6,4 km/h (2 Bft) 96,00 %
15.08.2017 04:16 15,6 C 21,1 C 84 % 1017,9 hPa 0,0 l/m 3,1 km/h (1 Bft) O-NO 65 0 min 0,000 mm 0,0 UV-I 0 W/m 12,9 C 15,6 C 4,8 km/h (1 Bft) 97,87 %
15.08.2017 04:18 15,6 C 21,1 C 84 % 1017,9 hPa 0,0 l/m 3,7 km/h (1 Bft) O-NO 65 0 min 0,000 mm 0,0 UV-I 0 W/m 12,9 C 15,6 C 4,8 km/h (1 Bft) 97,87 %
15.08.2017 04:20 15,6 C 21,1 C 84 % 1017,9 hPa 0,0 l/m 3,7 km/h (1 Bft) O-NO 65 0 min 0,000 mm 0,0 UV-I 0 W/m 12,9 C 15,6 C 4,8 km/h (1 Bft) 95,74 %
15.08.2017 04:22 15,6 C 21,1 C 84 % 1017,9 hPa 0,0 l/m 3,8 km/h (1 Bft) O-NO 65 0 min 0,000 mm 0,0 UV-I 0 W/m 12,9 C 15,6 C 4,8 km/h (1 Bft) 95,74 %
15.08.2017 04:24 15,5 C 21,1 C 84 % 1017,9 hPa 0,0 l/m 2,9 km/h (1 Bft) O-NO 65 0 min 0,000 mm 0,0 UV-I 0 W/m 12,8 C 15,5 C 4,8 km/h (1 Bft) 100,00 %
15.08.2017 04:26 15,4 C 21,1 C 84 % 1017,9 hPa 0,0 l/m 2,8 km/h (1 Bft) O-NO 65 0 min 0,000 mm 0,0 UV-I 0 W/m 12,7 C 15,4 C 4,8 km/h (1 Bft) 95,74 %
15.08.2017 04:28 15,4 C 21,1 C 84 % 1017,9 hPa 0,0 l/m 4,2 km/h (1 Bft) O-NO 71 0 min 0,000 mm 0,0 UV-I 0 W/m 12,7 C 15,4 C 8,0 km/h (2 Bft) 91,67 %
15.08.2017 04:30 15,4 C 21,1 C 84 % 1018,0 hPa 0,0 l/m 4,3 km/h (1 Bft) O-NO 74 0 min 0,000 mm 0,0 UV-I 0 W/m 12,7 C 15,4 C 6,4 km/h (2 Bft) 95,74 %
15.08.2017 04:32 15,4 C 21,1 C 84 % 1017,9 hPa 0,0 l/m 3,6 km/h (1 Bft) NO 55 0 min 0,000 mm 0,0 UV-I 0 W/m 12,7 C 15,4 C 6,4 km/h (2 Bft) 93,62 %
15.08.2017 04:34 15,4 C 21,1 C 84 % 1018,0 hPa 0,0 l/m 2,9 km/h (1 Bft) NO 55 0 min 0,000 mm 0,0 UV-I 0 W/m 12,7 C 15,4 C 4,8 km/h (1 Bft) 95,74 %
15.08.2017 04:36 15,4 C 21,1 C 84 % 1017,9 hPa 0,0 l/m 2,6 km/h (1 Bft) NO 55 0 min 0,000 mm 0,0 UV-I 0 W/m 12,7 C 15,4 C 4,8 km/h (1 Bft) 95,74 %
15.08.2017 04:38 15,4 C 21,1 C 84 % 1017,9 hPa 0,0 l/m 2,6 km/h (1 Bft) NO 55 0 min 0,000 mm 0,0 UV-I 0 W/m 12,7 C 15,4 C 4,8 km/h (1 Bft) 95,74 %
15.08.2017 04:40 15,4 C 21,1 C 84 % 1017,9 hPa 0,0 l/m 2,5 km/h (1 Bft) NO 55 0 min 0,000 mm 0,0 UV-I 0 W/m 12,7 C 15,4 C 3,2 km/h (1 Bft) 95,74 %
15.08.2017 04:42 15,4 C 21,1 C 84 % 1017,9 hPa 0,0 l/m 2,9 km/h (1 Bft) NO 55 0 min 0,000 mm 0,0 UV-I 0 W/m 12,7 C 15,4 C 4,8 km/h (1 Bft) 92,00 %
15.08.2017 04:44 15,3 C 21,1 C 84 % 1017,9 hPa 0,0 l/m 3,1 km/h (1 Bft) NO 55 0 min 0,000 mm 0,0 UV-I 0 W/m 12,6 C 15,3 C 4,8 km/h (1 Bft) 91,49 %
15.08.2017 04:46 15,3 C 21,1 C 84 % 1017,9 hPa 0,0 l/m 3,0 km/h (1 Bft) NO 55 0 min 0,000 mm 0,0 UV-I 0 W/m 12,6 C 15,3 C 4,8 km/h (1 Bft) 93,62 %
15.08.2017 04:48 15,3 C 21,1 C 84 % 1017,9 hPa 0,0 l/m 3,2 km/h (1 Bft) NO 55 0 min 0,000 mm 0,0 UV-I 0 W/m 12,6 C 15,3 C 4,8 km/h (1 Bft) 97,87 %
15.08.2017 04:50 15,3 C 21,1 C 84 % 1017,9 hPa 0,0 l/m 2,9 km/h (1 Bft) NO 55 0 min 0,000 mm 0,0 UV-I 0 W/m 12,6 C 15,3 C 4,8 km/h (1 Bft) 95,74 %
15.08.2017 04:52 15,3 C 21,1 C 84 % 1017,9 hPa 0,0 l/m 3,4 km/h (1 Bft) NO 55 0 min 0,000 mm 0,0 UV-I 0 W/m 12,6 C 15,3 C 4,8 km/h (1 Bft) 93,62 %
15.08.2017 04:54 15,3 C 21,1 C 84 % 1017,9 hPa 0,0 l/m 3,1 km/h (1 Bft) NO 55 0 min 0,000 mm 0,0 UV-I 0 W/m 12,6 C 15,3 C 4,8 km/h (1 Bft) 97,87 %
15.08.2017 04:56 15,3 C 21,1 C 84 % 1017,9 hPa 0,0 l/m 3,1 km/h (1 Bft) NO 55 0 min 0,000 mm 0,0 UV-I 0 W/m 12,6 C 15,3 C 4,8 km/h (1 Bft) 95,74 %
15.08.2017 04:58 15,2 C 21,1 C 84 % 1017,9 hPa 0,0 l/m 2,7 km/h (1 Bft) NO 55 0 min 0,000 mm 0,0 UV-I 0 W/m 12,5 C 15,2 C 3,2 km/h (1 Bft) 95,74 %
15.08.2017 05:00 15,2 C 21,1 C 84 % 1018,0 hPa 0,0 l/m 2,8 km/h (1 Bft) NO 55 0 min 0,000 mm 0,0 UV-I 0 W/m 12,5 C 15,2 C 4,8 km/h (1 Bft) 97,37 %
15.08.2017 05:02 15,2 C 21,1 C 84 % 1018,0 hPa 0,0 l/m 3,8 km/h (1 Bft) NO 55 0 min 0,000 mm 0,0 UV-I 0 W/m 12,5 C 15,2 C 6,4 km/h (2 Bft) 97,87 %
15.08.2017 05:04 15,2 C 21,1 C 85 % 1018,0 hPa 0,0 l/m 3,6 km/h (1 Bft) NO 55 0 min 0,000 mm 0,0 UV-I 0 W/m 12,7 C 15,2 C 4,8 km/h (1 Bft) 100,00 %
15.08.2017 05:06 15,1 C 21,1 C 85 % 1018,0 hPa 0,0 l/m 4,0 km/h (1 Bft) NO 55 0 min 0,000 mm 0,0 UV-I 0 W/m 12,6 C 15,1 C 6,4 km/h (2 Bft) 100,00 %
15.08.2017 05:08 15,1 C 21,1 C 85 % 1018,0 hPa 0,0 l/m 3,9 km/h (1 Bft) NO 55 0 min 0,000 mm 0,0 UV-I 0 W/m 12,6 C 15,1 C 6,4 km/h (2 Bft) 100,00 %
15.08.2017 05:10 15,1 C 21,1 C 85 % 1018,0 hPa 0,0 l/m 3,7 km/h (1 Bft) NO 55 0 min 0,000 mm 0,0 UV-I 0 W/m 12,6 C 15,1 C 6,4 km/h (2 Bft) 96,00 %
15.08.2017 05:12 15,1 C 21,1 C 85 % 1018,0 hPa 0,0 l/m 4,0 km/h (1 Bft) NO 55 0 min 0,000 mm 0,0 UV-I 0 W/m 12,6 C 15,1 C 6,4 km/h (2 Bft) 97,87 %
15.08.2017 05:14 15,1 C 21,1 C 85 % 1018,0 hPa 0,0 l/m 2,4 km/h (1 Bft) NO 55 0 min 0,000 mm 0,0 UV-I 0 W/m 12,6 C 15,1 C 4,8 km/h (1 Bft) 100,00 %
15.08.2017 05:16 15,1 C 21,1 C 85 % 1018,0 hPa 0,0 l/m 3,3 km/h (1 Bft) NO 55 0 min 0,000 mm 0,0 UV-I 0 W/m 12,6 C 15,1 C 4,8 km/h (1 Bft) 100,00 %
15.08.2017 05:18 15,1 C 21,1 C 85 % 1018,0 hPa 0,0 l/m 2,5 km/h (1 Bft) NO 55 0 min 0,000 mm 0,0 UV-I 0 W/m 12,6 C 15,1 C 4,8 km/h (1 Bft) 100,00 %
15.08.2017 05:20 15,1 C 21,1 C 85 % 1018,0 hPa 0,0 l/m 2,8 km/h (1 Bft) NO 55 0 min 0,000 mm 0,0 UV-I 0 W/m 12,6 C 15,1 C 4,8 km/h (1 Bft) 97,37 %
15.08.2017 05:22 15,1 C 21,1 C 85 % 1018,0 hPa 0,0 l/m 1,9 km/h (1 Bft) NO 55 0 min 0,000 mm 0,0 UV-I 0 W/m 12,6 C 15,1 C 3,2 km/h (1 Bft) 98,00 %
15.08.2017 05:24 15,1 C 21,1 C 85 % 1018,0 hPa 0,0 l/m 2,0 km/h (1 Bft) NO 55 0 min 0,000 mm 0,0 UV-I 0 W/m 12,6 C 15,1 C 3,2 km/h (1 Bft) 100,00 %
15.08.2017 05:26 15,1 C 21,1 C 84 % 1018,0 hPa 0,0 l/m 1,2 km/h (1 Bft) NO 55 0 min 0,000 mm 0,0 UV-I 0 W/m 12,4 C 15,1 C 3,2 km/h (1 Bft) 100,00 %
15.08.2017 05:28 15,1 C 21,1 C 84 % 1018,0 hPa 0,0 l/m 0,6 km/h (0 Bft) NO 55 0 min 0,000 mm 0,0 UV-I 0 W/m 12,4 C 15,1 C 3,2 km/h (1 Bft) 100,00 %
15.08.2017 05:30 15,1 C 21,1 C 84 % 1018,0 hPa 0,0 l/m 1,0 km/h (0 Bft) NO 55 0 min 0,000 mm 0,0 UV-I 0 W/m 12,4 C 15,1 C 3,2 km/h (1 Bft) 97,87 %
15.08.2017 05:32 15,1 C 21,1 C 84 % 1018,1 hPa 0,0 l/m 0,3 km/h (0 Bft) NO 55 0 min 0,000 mm 0,0 UV-I 0 W/m 12,4 C 15,1 C 1,6 km/h (1 Bft) 97,87 %
15.08.2017 05:34 15,1 C 21,1 C 84 % 1018,0 hPa 0,0 l/m 1,1 km/h (1 Bft) NO 55 0 min 0,000 mm 0,0 UV-I 0 W/m 12,4 C 15,1 C 1,6 km/h (1 Bft) 100,00 %
15.08.2017 05:36 15,1 C 21,1 C 84 % 1018,0 hPa 0,0 l/m 1,2 km/h (1 Bft) NO 55 0 min 0,000 mm 0,0 UV-I 0 W/m 12,4 C 15,1 C 1,6 km/h (1 Bft) 95,83 %
15.08.2017 05:38 15,0 C 21,1 C 84 % 1018,0 hPa 0,0 l/m 1,9 km/h (1 Bft) NO 55 0 min 0,000 mm 0,0 UV-I 0 W/m 12,3 C 15,0 C 3,2 km/h (1 Bft) 100,00 %
15.08.2017 05:40 15,0 C 21,1 C 84 % 1018,0 hPa 0,0 l/m 2,5 km/h (1 Bft) NO 55 0 min 0,000 mm 0,0 UV-I 0 W/m 12,3 C 15,0 C 3,2 km/h (1 Bft) 100,00 %
15.08.2017 05:42 14,9 C 21,1 C 84 % 1018,0 hPa 0,0 l/m 2,9 km/h (1 Bft) NO 55 0 min 0,000 mm 0,0 UV-I 0 W/m 12,2 C 14,9 C 4,8 km/h (1 Bft) 100,00 %
15.08.2017 05:44 14,9 C 21,1 C 84 % 1018,0 hPa 0,0 l/m 3,4 km/h (1 Bft) NO 55 0 min 0,000 mm 0,0 UV-I 4 W/m 12,2 C 14,9 C 4,8 km/h (1 Bft) 100,00 %
15.08.2017 05:46 14,9 C 21,1 C 84 % 1018,0 hPa 0,0 l/m 2,9 km/h (1 Bft) NO 55 0 min 0,000 mm 0,0 UV-I 5 W/m 12,2 C 14,9 C 4,8 km/h (1 Bft) 97,96 %
15.08.2017 05:48 14,9 C 21,1 C 85 % 1018,0 hPa 0,0 l/m 2,8 km/h (1 Bft) NO 55 0 min 0,000 mm 0,0 UV-I 5 W/m 12,4 C 14,9 C 4,8 km/h (1 Bft) 97,87 %
15.08.2017 05:50 14,8 C 21,1 C 85 % 1018,0 hPa 0,0 l/m 2,6 km/h (1 Bft) NO 55 0 min 0,000 mm 0,0 UV-I 5 W/m 12,3 C 14,8 C 4,8 km/h (1 Bft) 97,87 %
15.08.2017 05:52 14,8 C 21,1 C 85 % 1018,0 hPa 0,0 l/m 3,3 km/h (1 Bft) NO 55 0 min 0,000 mm 0,0 UV-I 7 W/m 12,3 C 14,8 C 4,8 km/h (1 Bft) 100,00 %
15.08.2017 05:54 14,8 C 21,1 C 85 % 1018,0 hPa 0,0 l/m 3,6 km/h (1 Bft) NO 55 0 min 0,000 mm 0,0 UV-I 7 W/m 12,3 C 14,8 C 6,4 km/h (2 Bft) 100,00 %
15.08.2017 05:56 14,8 C 21,1 C 85 % 1018,0 hPa 0,0 l/m 4,1 km/h (1 Bft) NO 55 0 min 0,000 mm 0,0 UV-I 7 W/m 12,3 C 14,8 C 6,4 km/h (2 Bft) 100,00 %
15.08.2017 05:58 14,8 C 21,1 C 85 % 1018,0 hPa 0,0 l/m 4,0 km/h (1 Bft) NO 55 0 min 0,000 mm 0,0 UV-I 8 W/m 12,3 C 14,8 C 6,4 km/h (2 Bft) 97,87 %
15.08.2017 06:00 14,8 C 21,1 C 85 % 1018,0 hPa 0,0 l/m 3,3 km/h (1 Bft) NO 55 0 min 0,000 mm 0,0 UV-I 9 W/m 12,3 C 14,8 C 4,8 km/h (1 Bft) 100,00 %
15.08.2017 06:02 14,8 C 21,1 C 85 % 1018,0 hPa 0,0 l/m 3,2 km/h (1 Bft) NO 55 0 min 0,000 mm 0,0 UV-I 11 W/m 12,3 C 14,8 C 4,8 km/h (1 Bft) 100,00 %
15.08.2017 06:04 14,8 C 21,1 C 85 % 1018,0 hPa 0,0 l/m 2,4 km/h (1 Bft) NO 55 0 min 0,000 mm 0,0 UV-I 12 W/m 12,3 C 14,8 C 4,8 km/h (1 Bft) 100,00 %
15.08.2017 06:06 14,7 C 21,1 C 85 % 1018,1 hPa 0,0 l/m 2,7 km/h (1 Bft) NO 55 0 min 0,000 mm 0,0 UV-I 15 W/m 12,2 C 14,7 C 4,8 km/h (1 Bft) 100,00 %
15.08.2017 06:08 14,7 C 21,1 C 85 % 1018,0 hPa 0,0 l/m 3,8 km/h (1 Bft) NO 55 0 min 0,000 mm 0,0 UV-I 18 W/m 12,2 C 14,7 C 4,8 km/h (1 Bft) 100,00 %
15.08.2017 06:10 14,7 C 21,1 C 85 % 1018,1 hPa 0,0 l/m 3,4 km/h (1 Bft) NO 55 2 min 0,000 mm 0,0 UV-I 15 W/m 12,2 C 14,7 C 4,8 km/h (1 Bft) 100,00 %
15.08.2017 06:12 14,7 C 21,1 C 85 % 1018,1 hPa 0,0 l/m 4,1 km/h (1 Bft) NO 55 2 min 0,000 mm 0,0 UV-I 19 W/m 12,2 C 14,7 C 6,4 km/h (2 Bft) 98,00 %
15.08.2017 06:14 14,7 C 21,1 C 85 % 1018,1 hPa 0,0 l/m 5,0 km/h (1 Bft) NO 55 2 min 0,000 mm 0,0 UV-I 25 W/m 12,2 C 14,7 C 8,0 km/h (2 Bft) 100,00 %
15.08.2017 06:16 14,7 C 21,1 C 85 % 1018,2 hPa 0,0 l/m 4,7 km/h (1 Bft) O-NO 57 2 min 0,000 mm 0,0 UV-I 27 W/m 12,2 C 14,7 C 8,0 km/h (2 Bft) 97,92 %
15.08.2017 06:18 14,7 C 21,1 C 85 % 1018,1 hPa 0,0 l/m 4,1 km/h (1 Bft) O-NO 57 2 min 0,000 mm 0,0 UV-I 31 W/m 12,2 C 14,7 C 6,4 km/h (2 Bft) 97,87 %
15.08.2017 06:20 14,7 C 21,1 C 85 % 1018,2 hPa 0,0 l/m 3,7 km/h (1 Bft) O-NO 57 2 min 0,000 mm 0,0 UV-I 35 W/m 12,2 C 14,7 C 4,8 km/h (1 Bft) 97,14 %
15.08.2017 06:22 14,7 C 21,1 C 85 % 1018,2 hPa 0,0 l/m 2,9 km/h (1 Bft) O-NO 57 2 min 0,000 mm 0,0 UV-I 39 W/m 12,2 C 14,7 C 4,8 km/h (1 Bft) 97,92 %
15.08.2017 06:24 14,7 C 21,1 C 85 % 1018,2 hPa 0,0 l/m 2,2 km/h (1 Bft) O-NO 57 2 min 0,000 mm 0,0 UV-I 42 W/m 12,2 C 14,7 C 4,8 km/h (1 Bft) 100,00 %
15.08.2017 06:26 14,8 C 21,1 C 85 % 1018,3 hPa 0,0 l/m 2,7 km/h (1 Bft) O-NO 57 2 min 0,000 mm 0,0 UV-I 46 W/m 12,3 C 14,8 C 4,8 km/h (1 Bft) 100,00 %
15.08.2017 06:28 14,7 C 21,1 C 85 % 1018,3 hPa 0,0 l/m 2,8 km/h (1 Bft) O-NO 57 2 min 0,000 mm 0,0 UV-I 48 W/m 12,2 C 14,7 C 4,8 km/h (1 Bft) 97,87 %
15.08.2017 06:30 14,7 C 21,1 C 85 % 1018,3 hPa 0,0 l/m 1,7 km/h (1 Bft) O-NO 57 2 min 0,000 mm 0,0 UV-I 53 W/m 12,2 C 14,7 C 3,2 km/h (1 Bft) 100,00 %
15.08.2017 06:32 14,7 C 21,1 C 85 % 1018,4 hPa 0,0 l/m 0,5 km/h (0 Bft) O-NO 57 2 min 0,000 mm 0,0 UV-I 56 W/m 12,2 C 14,7 C 3,2 km/h (1 Bft) 100,00 %
15.08.2017 06:34 14,7 C 21,1 C 85 % 1018,4 hPa 0,0 l/m 0,5 km/h (0 Bft) O-NO 57 2 min 0,000 mm 0,0 UV-I 60 W/m 12,2 C 14,7 C 1,6 km/h (1 Bft) 96,00 %
15.08.2017 06:36 14,7 C 21,1 C 85 % 1018,4 hPa 0,0 l/m 1,1 km/h (1 Bft) O-NO 57 2 min 0,000 mm 0,0 UV-I 63 W/m 12,2 C 14,7 C 1,6 km/h (1 Bft) 97,87 %
15.08.2017 06:38 14,7 C 21,1 C 85 % 1018,4 hPa 0,0 l/m 0,0 km/h (0 Bft) O-NO 57 2 min 0,000 mm 0,0 UV-I 67 W/m 12,2 C 14,7 C 0,0 km/h (0 Bft) 97,87 %
15.08.2017 06:40 14,7 C 21,1 C 85 % 1018,4 hPa 0,0 l/m 0,3 km/h (0 Bft) O-NO 57 2 min 0,000 mm 0,0 UV-I 71 W/m 12,2 C 14,7 C 1,6 km/h (1 Bft) 98,00 %
15.08.2017 06:42 14,7 C 21,1 C 85 % 1018,5 hPa 0,0 l/m 0,0 km/h (0 Bft) O-NO 57 2 min 0,000 mm 0,0 UV-I 75 W/m 12,2 C 14,7 C 0,0 km/h (0 Bft) 95,74 %
15.08.2017 06:44 14,7 C 21,1 C 86 % 1018,5 hPa 0,0 l/m 0,0 km/h (0 Bft) O-NO 57 2 min 0,000 mm 0,0 UV-I 78 W/m 12,4 C 14,7 C 0,0 km/h (0 Bft) 97,87 %
15.08.2017 06:46 14,7 C 21,1 C 86 % 1018,5 hPa 0,0 l/m 0,0 km/h (0 Bft) O-NO 57 2 min 0,000 mm 0,0 UV-I 82 W/m 12,4 C 14,7 C 0,0 km/h (0 Bft) 97,87 %
15.08.2017 06:48 14,7 C 21,1 C 86 % 1018,5 hPa 0,0 l/m 0,5 km/h (0 Bft) O-NO 57 2 min 0,000 mm 0,0 UV-I 85 W/m 12,4 C 14,7 C 1,6 km/h (1 Bft) 97,14 %
15.08.2017 06:50 14,7 C 21,1 C 86 % 1018,6 hPa 0,0 l/m 0,2 km/h (0 Bft) O-NO 57 2 min 0,000 mm 0,0 UV-I 90 W/m 12,4 C 14,7 C 1,6 km/h (1 Bft) 98,00 %
15.08.2017 06:52 14,7 C 21,1 C 86 % 1018,6 hPa 0,0 l/m 1,0 km/h (0 Bft) O-NO 57 2 min 0,000 mm 0,0 UV-I 92 W/m 12,4 C 14,7 C 1,6 km/h (1 Bft) 95,74 %
15.08.2017 06:54 14,7 C 21,1 C 86 % 1018,5 hPa 0,0 l/m 0,0 km/h (0 Bft) O-NO 57 2 min 0,000 mm 0,0 UV-I 98 W/m 12,4 C 14,7 C 0,0 km/h (0 Bft) 95,74 %
15.08.2017 06:56 14,7 C 21,1 C 86 % 1018,6 hPa 0,0 l/m 0,0 km/h (0 Bft) O-NO 57 2 min 0,000 mm 0,0 UV-I 103 W/m 12,4 C 14,7 C 0,0 km/h (0 Bft) 97,87 %
15.08.2017 06:58 14,7 C 21,1 C 86 % 1018,6 hPa 0,0 l/m 0,1 km/h (0 Bft) O-NO 57 2 min 0,000 mm 0,0 UV-I 106 W/m 12,4 C 14,7 C 1,6 km/h (1 Bft) 94,44 %
15.08.2017 07:00 14,7 C 21,1 C 86 % 1018,6 hPa 0,0 l/m 0,0 km/h (0 Bft) O-NO 57 2 min 0,025 mm 0,0 UV-I 113 W/m 12,4 C 14,7 C 0,0 km/h (0 Bft) 95,31 %
15.08.2017 07:02 14,7 C 21,1 C 86 % 1018,6 hPa 0,0 l/m 0,0 km/h (0 Bft) O-NO 57 2 min 0,000 mm 0,0 UV-I 117 W/m 12,4 C 14,7 C 0,0 km/h (0 Bft) 97,87 %
15.08.2017 07:04 14,7 C 21,1 C 87 % 1018,6 hPa 0,0 l/m 0,0 km/h (0 Bft) O-NO 57 2 min 0,000 mm 0,0 UV-I 122 W/m 12,6 C 14,7 C 0,0 km/h (0 Bft) 97,87 %
15.08.2017 07:06 14,7 C 21,1 C 87 % 1018,6 hPa 0,0 l/m 0,0 km/h (0 Bft) O-NO 57 2 min 0,000 mm 0,0 UV-I 127 W/m 12,6 C 14,7 C 0,0 km/h (0 Bft) 95,74 %
15.08.2017 07:08 14,7 C 21,1 C 87 % 1018,6 hPa 0,0 l/m 0,0 km/h (0 Bft) O-NO 57 2 min 0,000 mm 0,0 UV-I 131 W/m 12,6 C 14,7 C 0,0 km/h (0 Bft) 97,92 %
15.08.2017 07:10 14,8 C 21,1 C 88 % 1018,6 hPa 0,0 l/m 0,0 km/h (0 Bft) O-NO 57 2 min 0,000 mm 0,0 UV-I 134 W/m 12,8 C 14,8 C 0,0 km/h (0 Bft) 95,74 %
15.08.2017 07:12 14,8 C 21,1 C 88 % 1018,7 hPa 0,0 l/m 0,0 km/h (0 Bft) O-NO 57 2 min 0,000 mm 0,0 UV-I 140 W/m 12,8 C 14,8 C 0,0 km/h (0 Bft) 97,87 %
15.08.2017 07:14 14,9 C 21,1 C 87 % 1018,7 hPa 0,0 l/m 0,0 km/h (0 Bft) O-NO 57 2 min 0,000 mm 0,0 UV-I 145 W/m 12,8 C 14,9 C 0,0 km/h (0 Bft) 94,29 %
15.08.2017 07:16 15,1 C 21,1 C 87 % 1018,7 hPa 0,0 l/m 0,1 km/h (0 Bft) O-NO 57 2 min 0,000 mm 0,0 UV-I 150 W/m 13,0 C 15,1 C 1,6 km/h (1 Bft) 95,74 %
15.08.2017 07:18 15,2 C 21,1 C 87 % 1018,7 hPa 0,0 l/m 1,8 km/h (1 Bft) O-NO 57 2 min 0,000 mm 0,0 UV-I 156 W/m 13,0 C 15,2 C 4,8 km/h (1 Bft) 98,00 %
15.08.2017 07:20 15,4 C 21,1 C 86 % 1018,7 hPa 0,0 l/m 1,8 km/h (1 Bft) O-NO 57 2 min 0,000 mm 0,0 UV-I 161 W/m 13,1 C 15,4 C 3,2 km/h (1 Bft) 97,87 %
15.08.2017 07:22 15,6 C 21,1 C 85 % 1018,6 hPa 0,0 l/m 2,0 km/h (1 Bft) O-NO 57 2 min 0,000 mm 0,0 UV-I 167 W/m 13,1 C 15,6 C 4,8 km/h (1 Bft) 91,49 %
15.08.2017 07:24 15,7 C 21,1 C 84 % 1018,6 hPa 0,0 l/m 2,2 km/h (1 Bft) O-NO 57 2 min 0,000 mm 0,0 UV-I 172 W/m 13,0 C 15,7 C 3,2 km/h (1 Bft) 95,74 %
15.08.2017 07:26 15,9 C 21,1 C 84 % 1018,7 hPa 0,0 l/m 0,4 km/h (0 Bft) O-NO 57 2 min 0,000 mm 0,0 UV-I 178 W/m 13,2 C 15,9 C 1,6 km/h (1 Bft) 95,74 %
15.08.2017 07:28 16,1 C 21,1 C 83 % 1018,6 hPa 0,0 l/m 0,3 km/h (0 Bft) O-NO 57 2 min 0,000 mm 0,0 UV-I 184 W/m 13,2 C 16,1 C 1,6 km/h (1 Bft) 96,00 %
15.08.2017 07:30 16,2 C 21,1 C 83 % 1018,7 hPa 0,0 l/m 1,2 km/h (1 Bft) O-NO 57 2 min 0,000 mm 0,0 UV-I 189 W/m 13,3 C 16,2 C 3,2 km/h (1 Bft) 97,87 %
15.08.2017 07:32 16,3 C 21,1 C 82 % 1018,7 hPa 0,0 l/m 2,4 km/h (1 Bft) O-NO 57 2 min 0,000 mm 0,0 UV-I 194 W/m 13,2 C 16,3 C 3,2 km/h (1 Bft) 97,87 %
15.08.2017 07:34 16,3 C 21,1 C 82 % 1018,7 hPa 0,0 l/m 2,0 km/h (1 Bft) O-NO 57 2 min 0,000 mm 0,0 UV-I 198 W/m 13,2 C 16,3 C 3,2 km/h (1 Bft) 93,62 %
15.08.2017 07:36 16,4 C 21,1 C 82 % 1018,8 hPa 0,0 l/m 2,5 km/h (1 Bft) O-NO 57 2 min 0,000 mm 0,0 UV-I 203 W/m 13,3 C 16,4 C 4,8 km/h (1 Bft) 95,74 %
15.08.2017 07:38 16,6 C 21,1 C 82 % 1018,8 hPa 0,0 l/m 2,9 km/h (1 Bft) O-NO 57 2 min 0,000 mm 0,0 UV-I 210 W/m 13,5 C 16,6 C 6,4 km/h (2 Bft) 95,74 %
15.08.2017 07:40 16,6 C 21,1 C 82 % 1018,8 hPa 0,0 l/m 4,0 km/h (1 Bft) O-NO 57 2 min 0,000 mm 0,0 UV-I 215 W/m 13,5 C 16,6 C 6,4 km/h (2 Bft) 97,87 %
15.08.2017 07:42 16,7 C 21,1 C 81 % 1018,8 hPa 0,0 l/m 4,6 km/h (1 Bft) O-NO 62 2 min 0,000 mm 0,0 UV-I 220 W/m 13,4 C 16,7 C 6,4 km/h (2 Bft) 95,74 %
15.08.2017 07:44 16,7 C 21,1 C 81 % 1018,8 hPa 0,0 l/m 5,5 km/h (1 Bft) O-NO 69 2 min 0,000 mm 0,4 UV-I 225 W/m 13,4 C 16,7 C 8,0 km/h (2 Bft) 97,87 %
15.08.2017 07:46 16,8 C 21,1 C 81 % 1018,8 hPa 0,0 l/m 4,2 km/h (1 Bft) NO 49 2 min 0,000 mm 0,5 UV-I 231 W/m 13,5 C 16,8 C 6,4 km/h (2 Bft) 97,92 %
15.08.2017 07:48 16,8 C 21,1 C 81 % 1018,8 hPa 0,0 l/m 5,5 km/h (1 Bft) O-NO 60 2 min 0,000 mm 0,5 UV-I 237 W/m 13,5 C 16,8 C 9,7 km/h (2 Bft) 94,74 %
15.08.2017 07:50 16,9 C 21,1 C 81 % 1018,8 hPa 0,0 l/m 6,4 km/h (2 Bft) O-NO 62 2 min 0,000 mm 0,5 UV-I 242 W/m 13,6 C 16,9 C 9,7 km/h (2 Bft) 97,87 %
15.08.2017 07:52 16,9 C 21,1 C 81 % 1018,8 hPa 0,0 l/m 5,9 km/h (2 Bft) O-NO 69 2 min 0,000 mm 0,5 UV-I 248 W/m 13,6 C 16,9 C 8,0 km/h (2 Bft) 96,00 %
15.08.2017 07:54 17,0 C 21,1 C 81 % 1018,8 hPa 0,0 l/m 4,9 km/h (1 Bft) O 79 2 min 0,000 mm 0,5 UV-I 252 W/m 13,7 C 17,0 C 6,4 km/h (2 Bft) 97,87 %
15.08.2017 07:56 17,1 C 21,1 C 81 % 1018,8 hPa 0,0 l/m 6,2 km/h (2 Bft) NO 49 2 min 0,000 mm 0,6 UV-I 258 W/m 13,8 C 17,1 C 9,7 km/h (2 Bft) 97,87 %
15.08.2017 07:58 17,2 C 21,1 C 81 % 1018,8 hPa 0,0 l/m 7,8 km/h (2 Bft) O-NO 58 2 min 0,000 mm 0,6 UV-I 264 W/m 13,9 C 16,5 C 12,9 km/h (3 Bft) 95,74 %
15.08.2017 08:00 17,2 C 21,1 C 80 % 1018,8 hPa 0,0 l/m 5,9 km/h (2 Bft) O-NO 59 2 min 0,000 mm 0,6 UV-I 267 W/m 13,7 C 17,2 C 9,7 km/h (2 Bft) 97,87 %
15.08.2017 08:02 17,2 C 21,1 C 80 % 1018,9 hPa 0,0 l/m 6,4 km/h (2 Bft) O-NO 62 2 min 0,102 mm 0,6 UV-I 273 W/m 13,7 C 17,2 C 9,7 km/h (2 Bft) 97,87 %
15.08.2017 08:04 17,3 C 21,1 C 80 % 1018,9 hPa 0,0 l/m 6,6 km/h (2 Bft) O-NO 59 2 min 0,000 mm 0,7 UV-I 279 W/m 13,8 C 17,2 C 12,9 km/h (3 Bft) 96,00 %
15.08.2017 08:06 17,3 C 21,1 C 79 % 1018,9 hPa 0,0 l/m 6,7 km/h (2 Bft) O-NO 67 2 min 0,000 mm 0,7 UV-I 284 W/m 13,6 C 17,2 C 11,3 km/h (2 Bft) 95,74 %
15.08.2017 08:08 17,4 C 21,1 C 79 % 1018,9 hPa 0,0 l/m 7,6 km/h (2 Bft) O 82 2 min 0,000 mm 0,7 UV-I 289 W/m 13,7 C 16,8 C 11,3 km/h (2 Bft) 93,62 %
15.08.2017 08:10 17,4 C 21,1 C 79 % 1018,9 hPa 0,0 l/m 6,9 km/h (2 Bft) O 84 2 min 0,000 mm 0,7 UV-I 297 W/m 13,7 C 17,2 C 11,3 km/h (2 Bft) 97,37 %
15.08.2017 08:12 17,4 C 21,1 C 78 % 1018,9 hPa 0,0 l/m 6,6 km/h (2 Bft) O 83 2 min 0,000 mm 0,8 UV-I 303 W/m 13,5 C 17,3 C 11,3 km/h (2 Bft) 93,62 %
15.08.2017 08:14 17,4 C 21,1 C 79 % 1018,9 hPa 0,0 l/m 6,9 km/h (2 Bft) O-NO 59 2 min 0,000 mm 0,8 UV-I 308 W/m 13,7 C 17,2 C 9,7 km/h (2 Bft) 97,87 %
15.08.2017 08:16 17,5 C 21,1 C 79 % 1018,9 hPa 0,0 l/m 6,2 km/h (2 Bft) O-NO 63 2 min 0,000 mm 0,8 UV-I 313 W/m 13,8 C 17,5 C 9,7 km/h (2 Bft) 100,00 %
15.08.2017 08:18 17,6 C 21,1 C 79 % 1018,9 hPa 0,0 l/m 7,8 km/h (2 Bft) O-NO 59 2 min 0,000 mm 0,8 UV-I 319 W/m 13,9 C 16,9 C 9,7 km/h (2 Bft) 100,00 %
15.08.2017 08:20 17,6 C 21,1 C 79 % 1018,9 hPa 0,0 l/m 6,7 km/h (2 Bft) O-NO 70 2 min 0,000 mm 0,9 UV-I 324 W/m 13,9 C 17,5 C 9,7 km/h (2 Bft) 98,00 %
15.08.2017 08:22 17,7 C 21,1 C 78 % 1018,9 hPa 0,0 l/m 5,0 km/h (1 Bft) O-NO 59 2 min 0,000 mm 0,9 UV-I 329 W/m 13,8 C 17,7 C 8,0 km/h (2 Bft) 100,00 %
15.08.2017 08:24 17,7 C 21,1 C 78 % 1018,9 hPa 0,0 l/m 6,3 km/h (2 Bft) NO 54 2 min 0,000 mm 0,9 UV-I 335 W/m 13,8 C 17,7 C 8,0 km/h (2 Bft) 91,67 %
15.08.2017 08:26 17,8 C 21,1 C 78 % 1019,0 hPa 0,0 l/m 6,2 km/h (2 Bft) O-NO 61 2 min 0,000 mm 1,0 UV-I 342 W/m 13,9 C 17,8 C 9,7 km/h (2 Bft) 97,87 %
15.08.2017 08:28 17,8 C 21,1 C 78 % 1018,9 hPa 0,0 l/m 6,3 km/h (2 Bft) O-NO 63 2 min 0,000 mm 1,0 UV-I 346 W/m 13,9 C 17,8 C 9,7 km/h (2 Bft) 100,00 %
15.08.2017 08:30 17,9 C 21,1 C 78 % 1019,0 hPa 0,0 l/m 8,5 km/h (2 Bft) O-NO 60 2 min 0,000 mm 1,0 UV-I 352 W/m 14,0 C 16,9 C 11,3 km/h (2 Bft) 100,00 %
15.08.2017 08:32 18,0 C 21,1 C 77 % 1018,9 hPa 0,0 l/m 6,5 km/h (2 Bft) O-NO 78 2 min 0,000 mm 1,1 UV-I 358 W/m 13,9 C 18,0 C 11,3 km/h (2 Bft) 98,00 %
15.08.2017 08:34 18,0 C 21,1 C 77 % 1018,9 hPa 0,0 l/m 7,9 km/h (2 Bft) NO 48 2 min 0,000 mm 1,1 UV-I 364 W/m 13,9 C 17,3 C 11,3 km/h (2 Bft) 97,14 %
15.08.2017 08:36 18,1 C 21,1 C 78 % 1018,9 hPa 0,0 l/m 6,8 km/h (2 Bft) NO 53 2 min 0,000 mm 1,1 UV-I 370 W/m 14,2 C 17,9 C 12,9 km/h (3 Bft) 96,00 %
15.08.2017 08:38 18,1 C 21,1 C 77 % 1018,9 hPa 0,0 l/m 8,0 km/h (2 Bft) O-NO 57 2 min 0,000 mm 1,2 UV-I 375 W/m 14,0 C 17,4 C 11,3 km/h (2 Bft) 97,87 %
15.08.2017 08:40 18,2 C 21,1 C 78 % 1018,9 hPa 0,0 l/m 7,1 km/h (2 Bft) O-NO 57 2 min 0,000 mm 1,2 UV-I 382 W/m 14,3 C 17,9 C 12,9 km/h (3 Bft) 98,00 %
15.08.2017 08:42 18,3 C 21,1 C 78 % 1018,9 hPa 0,0 l/m 4,0 km/h (1 Bft) NO 45 2 min 0,000 mm 1,2 UV-I 388 W/m 14,4 C 18,3 C 8,0 km/h (2 Bft) 97,87 %
15.08.2017 08:44 18,4 C 21,1 C 79 % 1018,9 hPa 0,0 l/m 6,9 km/h (2 Bft) O-NO 67 2 min 0,000 mm 1,3 UV-I 395 W/m 14,7 C 18,2 C 9,7 km/h (2 Bft) 94,00 %
15.08.2017 08:46 18,6 C 21,1 C 78 % 1019,0 hPa 0,0 l/m 5,3 km/h (1 Bft) O-NO 67 2 min 0,000 mm 1,3 UV-I 401 W/m 14,7 C 18,6 C 8,0 km/h (2 Bft) 95,74 %
15.08.2017 08:48 18,6 C 21,1 C 76 % 1019,0 hPa 0,0 l/m 6,0 km/h (2 Bft) O-NO 74 2 min 0,000 mm 1,3 UV-I 406 W/m 14,3 C 18,6 C 9,7 km/h (2 Bft) 94,74 %
15.08.2017 08:50 18,6 C 21,1 C 76 % 1019,0 hPa 0,0 l/m 4,8 km/h (1 Bft) NO 42 2 min 0,000 mm 1,4 UV-I 411 W/m 14,3 C 18,6 C 6,4 km/h (2 Bft) 98,00 %
15.08.2017 08:52 18,5 C 21,1 C 77 % 1019,0 hPa 0,0 l/m 4,9 km/h (1 Bft) NO 53 2 min 0,000 mm 1,4 UV-I 416 W/m 14,4 C 18,5 C 8,0 km/h (2 Bft) 97,87 %
15.08.2017 08:54 18,6 C 21,1 C 78 % 1019,0 hPa 0,0 l/m 6,1 km/h (2 Bft) NO 37 2 min 0,000 mm 1,4 UV-I 422 W/m 14,7 C 18,6 C 9,7 km/h (2 Bft) 95,74 %
15.08.2017 08:56 18,7 C 21,1 C 77 % 1019,1 hPa 0,0 l/m 4,5 km/h (1 Bft) NO 54 2 min 0,000 mm 1,5 UV-I 427 W/m 14,6 C 18,7 C 9,7 km/h (2 Bft) 97,87 %
15.08.2017 08:58 18,7 C 21,1 C 78 % 1019,1 hPa 0,0 l/m 2,4 km/h (1 Bft) NO 41 2 min 0,000 mm 1,5 UV-I 432 W/m 14,8 C 18,7 C 6,4 km/h (2 Bft) 95,74 %
15.08.2017 09:00 18,8 C 21,1 C 77 % 1019,2 hPa 0,0 l/m 3,5 km/h (1 Bft) O-NO 63 2 min 0,228 mm 1,6 UV-I 437 W/m 14,7 C 18,8 C 6,4 km/h (2 Bft) 97,87 %
15.08.2017 09:02 18,8 C 21,1 C 77 % 1019,2 hPa 0,0 l/m 2,5 km/h (1 Bft) O-NO 63 2 min 0,000 mm 1,6 UV-I 441 W/m 14,7 C 18,8 C 6,4 km/h (2 Bft) 95,83 %
15.08.2017 09:04 18,9 C 21,1 C 76 % 1019,2 hPa 0,0 l/m 2,1 km/h (1 Bft) O-NO 63 2 min 0,000 mm 1,6 UV-I 446 W/m 14,6 C 18,9 C 4,8 km/h (1 Bft) 95,92 %
15.08.2017 09:06 18,9 C 21,1 C 75 % 1019,2 hPa 0,0 l/m 3,7 km/h (1 Bft) O-NO 64 2 min 0,000 mm 1,7 UV-I 452 W/m 14,4 C 18,9 C 6,4 km/h (2 Bft) 97,92 %
15.08.2017 09:08 19,0 C 21,1 C 77 % 1019,1 hPa 0,0 l/m 5,7 km/h (1 Bft) N-NO 29 2 min 0,000 mm 1,7 UV-I 459 W/m 14,9 C 19,0 C 8,0 km/h (2 Bft) 97,87 %
15.08.2017 09:10 18,9 C 21,1 C 76 % 1019,0 hPa 0,0 l/m 3,0 km/h (1 Bft) NO 40 2 min 0,000 mm 1,8 UV-I 465 W/m 14,6 C 18,9 C 6,4 km/h (2 Bft) 97,87 %
15.08.2017 09:12 19,0 C 21,1 C 78 % 1019,0 hPa 0,0 l/m 2,9 km/h (1 Bft) NO 45 2 min 0,000 mm 1,8 UV-I 469 W/m 15,1 C 19,0 C 6,4 km/h (2 Bft) 95,74 %
15.08.2017 09:14 19,2 C 21,1 C 78 % 1019,0 hPa 0,0 l/m 3,0 km/h (1 Bft) NO 38 2 min 0,000 mm 1,9 UV-I 475 W/m 15,3 C 19,2 C 4,8 km/h (1 Bft) 100,00 %
15.08.2017 09:16 19,3 C 21,1 C 77 % 1019,0 hPa 0,0 l/m 6,0 km/h (2 Bft) N-NO 26 2 min 0,000 mm 1,9 UV-I 481 W/m 15,2 C 19,3 C 8,0 km/h (2 Bft) 100,00 %
15.08.2017 09:18 19,4 C 21,1 C 75 % 1018,9 hPa 0,0 l/m 4,5 km/h (1 Bft) NO 36 2 min 0,000 mm 1,9 UV-I 488 W/m 14,8 C 19,4 C 8,0 km/h (2 Bft) 100,00 %
15.08.2017 09:20 19,4 C 21,1 C 77 % 1018,9 hPa 0,0 l/m 3,0 km/h (1 Bft) O-NO 60 2 min 0,000 mm 2,0 UV-I 492 W/m 15,3 C 19,4 C 8,0 km/h (2 Bft) 100,00 %
15.08.2017 09:22 19,4 C 21,1 C 76 % 1019,0 hPa 0,0 l/m 5,4 km/h (1 Bft) NO 40 2 min 0,000 mm 2,0 UV-I 496 W/m 15,1 C 19,4 C 8,0 km/h (2 Bft) 95,74 %
15.08.2017 09:24 19,4 C 21,1 C 76 % 1019,0 hPa 0,0 l/m 4,3 km/h (1 Bft) O-NO 58 2 min 0,000 mm 2,1 UV-I 500 W/m 15,1 C 19,4 C 6,4 km/h (2 Bft) 97,87 %
15.08.2017 09:26 19,6 C 21,1 C 77 % 1019,0 hPa 0,0 l/m 5,6 km/h (1 Bft) NO 43 2 min 0,000 mm 2,1 UV-I 506 W/m 15,5 C 19,6 C 9,7 km/h (2 Bft) 100,00 %
15.08.2017 09:28 19,6 C 21,1 C 75 % 1018,9 hPa 0,0 l/m 3,8 km/h (1 Bft) N-NO 28 2 min 0,000 mm 2,2 UV-I 511 W/m 15,0 C 19,6 C 6,4 km/h (2 Bft) 100,00 %
15.08.2017 09:30 19,7 C 21,1 C 77 % 1018,9 hPa 0,0 l/m 5,3 km/h (1 Bft) NO 48 2 min 0,000 mm 2,2 UV-I 515 W/m 15,5 C 19,7 C 8,0 km/h (2 Bft) 100,00 %
15.08.2017 09:32 19,7 C 21,1 C 76 % 1018,9 hPa 0,0 l/m 4,6 km/h (1 Bft) NO 49 2 min 0,000 mm 2,2 UV-I 520 W/m 15,3 C 19,7 C 8,0 km/h (2 Bft) 97,87 %
15.08.2017 09:34 19,7 C 21,1 C 76 % 1018,9 hPa 0,0 l/m 6,6 km/h (2 Bft) NO 43 2 min 0,000 mm 2,3 UV-I 526 W/m 15,3 C 19,6 C 8,0 km/h (2 Bft) 97,87 %
15.08.2017 09:36 19,7 C 21,1 C 76 % 1018,9 hPa 0,0 l/m 4,6 km/h (1 Bft) N-NO 32 2 min 0,000 mm 2,3 UV-I 531 W/m 15,3 C 19,7 C 8,0 km/h (2 Bft) 97,87 %
15.08.2017 09:38 19,7 C 21,1 C 75 % 1018,9 hPa 0,0 l/m 2,2 km/h (1 Bft) NO 34 2 min 0,000 mm 2,4 UV-I 536 W/m 15,1 C 19,7 C 6,4 km/h (2 Bft) 100,00 %
15.08.2017 09:40 19,8 C 21,1 C 75 % 1018,9 hPa 0,0 l/m 4,3 km/h (1 Bft) O-NO 71 2 min 0,000 mm 2,4 UV-I 540 W/m 15,2 C 19,8 C 6,4 km/h (2 Bft) 97,87 %
15.08.2017 09:42 19,8 C 21,1 C 75 % 1018,9 hPa 0,0 l/m 2,8 km/h (1 Bft) N-NO 26 2 min 0,000 mm 2,5 UV-I 545 W/m 15,2 C 19,8 C 6,4 km/h (2 Bft) 100,00 %
15.08.2017 09:44 20,0 C 21,1 C 75 % 1018,9 hPa 0,0 l/m 4,2 km/h (1 Bft) NO 41 2 min 0,000 mm 2,5 UV-I 551 W/m 15,4 C 20,0 C 6,4 km/h (2 Bft) 100,00 %
15.08.2017 09:46 20,0 C 21,1 C 75 % 1018,8 hPa 0,0 l/m 1,2 km/h (1 Bft) NO 41 2 min 0,000 mm 2,6 UV-I 556 W/m 15,4 C 20,0 C 4,8 km/h (1 Bft) 100,00 %
15.08.2017 09:48 20,1 C 21,1 C 76 % 1018,8 hPa 0,0 l/m 2,0 km/h (1 Bft) NO 41 2 min 0,000 mm 2,6 UV-I 559 W/m 15,7 C 20,1 C 4,8 km/h (1 Bft) 95,74 %
15.08.2017 09:50 20,2 C 21,7 C 76 % 1018,8 hPa 0,0 l/m 4,2 km/h (1 Bft) N-NO 26 2 min 0,000 mm 2,7 UV-I 565 W/m 15,8 C 20,2 C 8,0 km/h (2 Bft) 100,00 %
15.08.2017 09:52 20,3 C 21,7 C 74 % 1018,8 hPa 0,0 l/m 0,7 km/h (0 Bft) N-NO 26 2 min 0,000 mm 2,7 UV-I 570 W/m 15,5 C 20,3 C 4,8 km/h (1 Bft) 97,87 %
15.08.2017 09:54 20,3 C 21,7 C 76 % 1018,8 hPa 0,0 l/m 2,7 km/h (1 Bft) NO 38 2 min 0,000 mm 2,8 UV-I 575 W/m 15,9 C 20,3 C 6,4 km/h (2 Bft) 100,00 %
15.08.2017 09:56 20,4 C 21,7 C 74 % 1018,8 hPa 0,0 l/m 3,6 km/h (1 Bft) N-NO 30 2 min 0,000 mm 2,8 UV-I 580 W/m 15,6 C 20,4 C 6,4 km/h (2 Bft) 100,00 %
15.08.2017 09:58 20,4 C 21,7 C 74 % 1018,8 hPa 0,0 l/m 2,7 km/h (1 Bft) NO 49 2 min 0,000 mm 2,9 UV-I 586 W/m 15,6 C 20,4 C 6,4 km/h (2 Bft) 97,87 %
15.08.2017 10:00 20,5 C 21,7 C 73 % 1018,8 hPa 0,0 l/m 4,7 km/h (1 Bft) NO 52 2 min 0,000 mm 2,9 UV-I 590 W/m 15,5 C 20,5 C 8,0 km/h (2 Bft) 97,87 %
15.08.2017 10:02 20,5 C 21,7 C 73 % 1018,8 hPa 0,0 l/m 0,6 km/h (0 Bft) NO 52 2 min 0,305 mm 3,0 UV-I 593 W/m 15,5 C 20,5 C 3,2 km/h (1 Bft) 100,00 %
15.08.2017 10:04 20,7 C 21,7 C 74 % 1018,8 hPa 0,0 l/m 3,0 km/h (1 Bft) NO 51 2 min 0,000 mm 3,0 UV-I 598 W/m 15,9 C 20,7 C 4,8 km/h (1 Bft) 100,00 %
15.08.2017 10:06 20,6 C 21,7 C 73 % 1018,8 hPa 0,0 l/m 1,1 km/h (1 Bft) NO 50 2 min 0,000 mm 3,1 UV-I 605 W/m 15,6 C 20,6 C 3,2 km/h (1 Bft) 97,87 %
15.08.2017 10:08 20,8 C 21,7 C 73 % 1018,8 hPa 0,0 l/m 3,0 km/h (1 Bft) O-NO 78 2 min 0,000 mm 3,1 UV-I 608 W/m 15,8 C 20,8 C 4,8 km/h (1 Bft) 97,87 %
15.08.2017 10:10 20,8 C 21,7 C 73 % 1018,8 hPa 0,0 l/m 5,4 km/h (1 Bft) NO 55 2 min 0,000 mm 3,2 UV-I 615 W/m 15,8 C 20,8 C 11,3 km/h (2 Bft) 97,87 %
15.08.2017 10:12 20,8 C 21,7 C 72 % 1018,8 hPa 0,0 l/m 0,3 km/h (0 Bft) NO 55 2 min 0,000 mm 3,2 UV-I 623 W/m 15,6 C 20,8 C 3,2 km/h (1 Bft) 100,00 %
15.08.2017 10:14 20,8 C 21,7 C 72 % 1018,8 hPa 0,0 l/m 0,9 km/h (0 Bft) NO 55 2 min 0,000 mm 3,3 UV-I 623 W/m 15,6 C 20,8 C 3,2 km/h (1 Bft) 95,74 %
15.08.2017 10:16 21,0 C 21,7 C 74 % 1018,8 hPa 0,0 l/m 0,5 km/h (0 Bft) O-NO 62 2 min 0,000 mm 3,3 UV-I 623 W/m 16,2 C 21,0 C 3,2 km/h (1 Bft) 100,00 %
15.08.2017 10:18 21,1 C 21,7 C 73 % 1018,8 hPa 0,0 l/m 1,5 km/h (1 Bft) N-NW 333 2 min 0,000 mm 3,4 UV-I 629 W/m 16,1 C 21,1 C 4,8 km/h (1 Bft) 100,00 %
15.08.2017 10:20 21,1 C 21,7 C 74 % 1018,8 hPa 0,0 l/m 0,9 km/h (0 Bft) NW 325 2 min 0,000 mm 3,4 UV-I 633 W/m 16,3 C 21,1 C 3,2 km/h (1 Bft) 96,00 %
15.08.2017 10:22 21,2 C 21,7 C 74 % 1018,8 hPa 0,0 l/m 1,2 km/h (1 Bft) NW 322 2 min 0,000 mm 3,5 UV-I 637 W/m 16,4 C 21,2 C 3,2 km/h (1 Bft) 100,00 %
15.08.2017 10:24 21,1 C 21,7 C 73 % 1018,7 hPa 0,0 l/m 1,3 km/h (1 Bft) N-NW 336 2 min 0,000 mm 3,6 UV-I 643 W/m 16,1 C 21,1 C 4,8 km/h (1 Bft) 100,00 %
15.08.2017 10:26 21,1 C 21,7 C 73 % 1018,7 hPa 0,0 l/m 4,7 km/h (1 Bft) N-NO 25 2 min 0,000 mm 3,6 UV-I 647 W/m 16,1 C 21,1 C 8,0 km/h (2 Bft) 97,87 %
15.08.2017 10:28 21,1 C 21,7 C 71 % 1018,7 hPa 0,0 l/m 2,7 km/h (1 Bft) N-NO 17 2 min 0,000 mm 3,4 UV-I 650 W/m 15,6 C 21,1 C 6,4 km/h (2 Bft) 100,00 %
15.08.2017 10:30 21,2 C 21,7 C 74 % 1018,7 hPa 0,0 l/m 3,7 km/h (1 Bft) N-NO 19 2 min 0,000 mm 3,7 UV-I 650 W/m 16,4 C 21,2 C 6,4 km/h (2 Bft) 100,00 %
15.08.2017 10:32 21,3 C 21,7 C 73 % 1018,7 hPa 0,0 l/m 0,9 km/h (0 Bft) N-NO 19 2 min 0,000 mm 3,6 UV-I 650 W/m 16,3 C 21,3 C 3,2 km/h (1 Bft) 100,00 %
15.08.2017 10:34 21,3 C 21,7 C 73 % 1018,7 hPa 0,0 l/m 1,4 km/h (1 Bft) N-NO 16 2 min 0,000 mm 3,7 UV-I 659 W/m 16,3 C 21,3 C 3,2 km/h (1 Bft) 98,00 %
15.08.2017 10:36 21,4 C 21,7 C 72 % 1018,7 hPa 0,0 l/m 2,5 km/h (1 Bft) N-NO 16 2 min 0,000 mm 3,8 UV-I 658 W/m 16,1 C 21,4 C 4,8 km/h (1 Bft) 97,87 %
15.08.2017 10:38 21,6 C 21,7 C 73 % 1018,6 hPa 0,0 l/m 1,7 km/h (1 Bft) N 5 2 min 0,000 mm 3,8 UV-I 670 W/m 16,5 C 21,6 C 6,4 km/h (2 Bft) 94,74 %
15.08.2017 10:40 21,7 C 21,7 C 74 % 1018,6 hPa 0,0 l/m 1,0 km/h (0 Bft) N-NO 13 2 min 0,000 mm 3,9 UV-I 669 W/m 16,9 C 21,7 C 4,8 km/h (1 Bft) 97,87 %
15.08.2017 10:42 21,8 C 21,7 C 73 % 1018,6 hPa 0,0 l/m 4,5 km/h (1 Bft) N 5 2 min 0,000 mm 4,0 UV-I 677 W/m 16,7 C 21,8 C 8,0 km/h (2 Bft) 98,00 %
15.08.2017 10:44 21,9 C 21,7 C 74 % 1018,6 hPa 0,0 l/m 2,0 km/h (1 Bft) N-NO 15 2 min 0,000 mm 4,0 UV-I 676 W/m 17,0 C 21,9 C 6,4 km/h (2 Bft) 97,87 %
15.08.2017 10:46 21,9 C 21,7 C 70 % 1018,6 hPa 0,0 l/m 2,0 km/h (1 Bft) N-NO 13 2 min 0,000 mm 4,1 UV-I 684 W/m 16,2 C 21,9 C 6,4 km/h (2 Bft) 94,00 %
15.08.2017 10:48 21,8 C 21,7 C 71 % 1018,6 hPa 0,0 l/m 1,1 km/h (1 Bft) N 9 2 min 0,000 mm 4,1 UV-I 648 W/m 16,3 C 21,8 C 4,8 km/h (1 Bft) 97,87 %
15.08.2017 10:50 21,8 C 21,7 C 71 % 1018,6 hPa 0,0 l/m 0,6 km/h (0 Bft) N 9 2 min 0,000 mm 4,2 UV-I 682 W/m 16,3 C 21,8 C 3,2 km/h (1 Bft) 95,74 %
15.08.2017 10:52 21,9 C 21,7 C 70 % 1018,5 hPa 0,0 l/m 1,4 km/h (1 Bft) N 9 2 min 0,000 mm 4,2 UV-I 693 W/m 16,2 C 21,9 C 4,8 km/h (1 Bft) 95,74 %
15.08.2017 10:54 21,9 C 21,7 C 70 % 1018,4 hPa 0,0 l/m 1,4 km/h (1 Bft) NO 49 2 min 0,000 mm 4,3 UV-I 696 W/m 16,2 C 21,9 C 4,8 km/h (1 Bft) 95,74 %
15.08.2017 10:56 22,1 C 21,7 C 69 % 1018,5 hPa 0,0 l/m 3,2 km/h (1 Bft) O-NO 69 2 min 0,000 mm 4,3 UV-I 667 W/m 16,1 C 22,1 C 4,8 km/h (1 Bft) 95,74 %
15.08.2017 10:58 22,1 C 21,7 C 73 % 1018,4 hPa 0,0 l/m 5,1 km/h (1 Bft) O-NO 59 2 min 0,000 mm 4,3 UV-I 705 W/m 17,0 C 22,1 C 9,7 km/h (2 Bft) 93,62 %
15.08.2017 11:00 22,2 C 21,7 C 70 % 1018,5 hPa 0,0 l/m 3,7 km/h (1 Bft) N-NO 31 2 min 0,000 mm 4,4 UV-I 699 W/m 16,5 C 22,2 C 6,4 km/h (2 Bft) 92,86 %
15.08.2017 11:03 22,2 C 21,7 C 68 % 1018,4 hPa 0,0 l/m 3,4 km/h (1 Bft) N-NO 33 3 min 0,381 mm 4,3 UV-I 711 W/m 16,0 C 22,2 C 8,0 km/h (2 Bft) 94,29 %
15.08.2017 11:04 22,2 C 21,7 C 72 % 1018,4 hPa 0,0 l/m 5,4 km/h (1 Bft) N-NO 26 1 min 0,000 mm 4,4 UV-I 717 W/m 16,9 C 22,2 C 8,0 km/h (2 Bft) 100,00 %
15.08.2017 11:06 22,3 C 21,7 C 70 % 1018,4 hPa 0,0 l/m 3,5 km/h (1 Bft) O-NO 63 2 min 0,000 mm 3,7 UV-I 719 W/m 16,6 C 22,3 C 8,0 km/h (2 Bft) 93,62 %
15.08.2017 11:08 22,4 C 21,7 C 69 % 1018,4 hPa 0,0 l/m 5,4 km/h (1 Bft) O-NO 77 2 min 0,000 mm 4,4 UV-I 725 W/m 16,4 C 22,4 C 8,0 km/h (2 Bft) 96,00 %
15.08.2017 11:10 22,4 C 21,7 C 69 % 1018,4 hPa 0,0 l/m 3,5 km/h (1 Bft) O-NO 73 2 min 0,000 mm 4,6 UV-I 726 W/m 16,4 C 22,4 C 6,4 km/h (2 Bft) 97,87 %
15.08.2017 11:12 22,4 C 21,7 C 69 % 1018,4 hPa 0,0 l/m 2,0 km/h (1 Bft) O-NO 74 2 min 0,000 mm 4,6 UV-I 728 W/m 16,4 C 22,4 C 4,8 km/h (1 Bft) 97,87 %
15.08.2017 11:14 22,5 C 21,7 C 67 % 1018,4 hPa 0,0 l/m 2,7 km/h (1 Bft) O-NO 74 2 min 0,000 mm 4,7 UV-I 732 W/m 16,1 C 22,5 C 4,8 km/h (1 Bft) 98,00 %
15.08.2017 11:16 22,5 C 21,7 C 69 % 1018,4 hPa 0,0 l/m 1,1 km/h (1 Bft) O-NO 74 2 min 0,000 mm 4,7 UV-I 736 W/m 16,5 C 22,5 C 4,8 km/h (1 Bft) 95,74 %
15.08.2017 11:18 22,5 C 21,7 C 67 % 1018,4 hPa 0,0 l/m 3,5 km/h (1 Bft) O-NO 78 2 min 0,000 mm 4,8 UV-I 729 W/m 16,1 C 22,5 C 8,0 km/h (2 Bft) 94,74 %
15.08.2017 11:20 22,4 C 21,7 C 68 % 1018,4 hPa 0,0 l/m 1,5 km/h (1 Bft) NO 49 2 min 0,000 mm 4,8 UV-I 737 W/m 16,2 C 22,4 C 6,4 km/h (2 Bft) 97,87 %
15.08.2017 11:22 22,6 C 21,7 C 71 % 1018,4 hPa 0,0 l/m 3,1 km/h (1 Bft) NO 51 2 min 0,000 mm 4,9 UV-I 745 W/m 17,1 C 22,6 C 8,0 km/h (2 Bft) 98,11 %
15.08.2017 11:24 22,8 C 21,7 C 71 % 1018,4 hPa 0,0 l/m 3,0 km/h (1 Bft) NO 44 2 min 0,000 mm 4,9 UV-I 747 W/m 17,3 C 22,8 C 4,8 km/h (1 Bft) 97,87 %
15.08.2017 11:25 23,1 C 21,7 C 70 % 1018,4 hPa 0,0 l/m 3,2 km/h (1 Bft) NO 45 1 min 0,000 mm 4,9 UV-I 747 W/m 17,3 C 23,1 C 8,0 km/h (2 Bft) 94,74 %
15.08.2017 11:30 23,2 C 21,7 C 66 % 1018,4 hPa 0,0 l/m 3,2 km/h (1 Bft) NO 45 5 min 0,000 mm 5,0 UV-I 752 W/m 16,5 C 23,2 C 9,7 km/h (2 Bft) 97,37 %
15.08.2017 11:39 23,3 C 21,7 C 69 % 1018,5 hPa 0,0 l/m 3,5 km/h (1 Bft) N-NO 24 9 min 0,000 mm 5,1 UV-I 763 W/m 17,3 C 23,3 C 6,4 km/h (2 Bft) 96,00 %
15.08.2017 11:40 23,3 C 21,7 C 67 % 1018,5 hPa 0,0 l/m 2,7 km/h (1 Bft) N-NO 25 1 min 0,000 mm 5,2 UV-I 768 W/m 16,8 C 23,3 C 4,8 km/h (1 Bft) 100,00 %
15.08.2017 11:42 23,3 C 21,7 C 69 % 1018,4 hPa 0,0 l/m 2,0 km/h (1 Bft) NO 34 2 min 0,000 mm 5,2 UV-I 769 W/m 17,3 C 23,3 C 8,0 km/h (2 Bft) 98,11 %
15.08.2017 11:44 23,4 C 21,7 C 69 % 1018,4 hPa 0,0 l/m 3,3 km/h (1 Bft) NO 34 2 min 0,000 mm 5,3 UV-I 773 W/m 17,4 C 23,4 C 6,4 km/h (2 Bft) 94,74 %
15.08.2017 11:46 23,6 C 21,7 C 68 % 1018,3 hPa 0,0 l/m 2,1 km/h (1 Bft) N-NO 33 2 min 0,000 mm 5,3 UV-I 774 W/m 17,3 C 23,6 C 4,8 km/h (1 Bft) 97,87 %
15.08.2017 11:48 23,7 C 21,7 C 70 % 1018,3 hPa 0,0 l/m 3,6 km/h (1 Bft) N-NO 31 2 min 0,000 mm 5,4 UV-I 774 W/m 17,9 C 23,7 C 8,0 km/h (2 Bft) 97,62 %
15.08.2017 11:50 23,7 C 21,7 C 64 % 1018,3 hPa 0,0 l/m 4,1 km/h (1 Bft) N-NO 29 2 min 0,000 mm 5,4 UV-I 779 W/m 16,5 C 23,7 C 8,0 km/h (2 Bft) 96,43 %
15.08.2017 11:52 23,7 C 21,7 C 64 % 1018,2 hPa 0,0 l/m 4,3 km/h (1 Bft) NO 53 2 min 0,000 mm 5,4 UV-I 781 W/m 16,5 C 23,7 C 12,9 km/h (3 Bft) 97,56 %
15.08.2017 11:54 23,8 C 21,7 C 65 % 1018,3 hPa 0,0 l/m 6,3 km/h (2 Bft) NO 44 2 min 0,000 mm 5,4 UV-I 783 W/m 16,8 C 23,8 C 8,0 km/h (2 Bft) 96,00 %
15.08.2017 11:56 23,9 C 21,7 C 69 % 1018,3 hPa 0,0 l/m 6,7 km/h (2 Bft) NO 44 2 min 0,000 mm 5,5 UV-I 785 W/m 17,9 C 23,8 C 11,3 km/h (2 Bft) 97,56 %
15.08.2017 11:58 23,9 C 21,7 C 64 % 1018,3 hPa 0,0 l/m 2,8 km/h (1 Bft) O-NO 71 2 min 0,000 mm 5,5 UV-I 788 W/m 16,7 C 23,9 C 6,4 km/h (2 Bft) 96,23 %
15.08.2017 12:00 23,9 C 21,7 C 66 % 1018,3 hPa 0,0 l/m 4,4 km/h (1 Bft) NO 42 2 min 0,457 mm 5,5 UV-I 788 W/m 17,1 C 23,9 C 8,0 km/h (2 Bft) 100,00 %
15.08.2017 12:02 24,2 C 21,7 C 67 % 1018,3 hPa 0,0 l/m 6,4 km/h (2 Bft) O-NO 59 2 min 0,000 mm 5,5 UV-I 791 W/m 17,7 C 24,2 C 11,3 km/h (2 Bft) 100,00 %
15.08.2017 12:04 24,1 C 21,7 C 65 % 1018,3 hPa 0,0 l/m 0,5 km/h (0 Bft) O-NO 59 2 min 0,000 mm 5,6 UV-I 792 W/m 17,1 C 24,1 C 4,8 km/h (1 Bft) 100,00 %
15.08.2017 12:06 24,1 C 21,7 C 67 % 1018,3 hPa 0,0 l/m 1,1 km/h (1 Bft) NO 40 2 min 0,000 mm 5,6 UV-I 795 W/m 17,6 C 24,1 C 4,8 km/h (1 Bft) 100,00 %
15.08.2017 12:08 24,2 C 22,2 C 65 % 1018,3 hPa 0,0 l/m 8,5 km/h (2 Bft) NO 56 2 min 0,000 mm 5,7 UV-I 795 W/m 17,2 C 23,6 C 14,5 km/h (3 Bft) 100,00 %
15.08.2017 12:10 24,3 C 22,2 C 65 % 1018,3 hPa 0,0 l/m 2,4 km/h (1 Bft) N-NO 32 2 min 0,000 mm 5,7 UV-I 800 W/m 17,3 C 24,3 C 8,0 km/h (2 Bft) 97,73 %
15.08.2017 12:12 24,2 C 22,2 C 64 % 1018,3 hPa 0,0 l/m 1,3 km/h (1 Bft) N-NW 340 2 min 0,000 mm 5,7 UV-I 798 W/m 16,9 C 24,2 C 3,2 km/h (1 Bft) 100,00 %
15.08.2017 12:14 24,3 C 22,2 C 67 % 1018,2 hPa 0,0 l/m 0,5 km/h (0 Bft) N-NO 19 2 min 0,000 mm 5,8 UV-I 802 W/m 17,8 C 24,3 C 1,6 km/h (1 Bft) 100,00 %
15.08.2017 12:16 24,5 C 22,2 C 67 % 1018,2 hPa 0,0 l/m 3,4 km/h (1 Bft) NO 36 2 min 0,000 mm 5,8 UV-I 803 W/m 18,0 C 24,5 C 9,7 km/h (2 Bft) 100,00 %
15.08.2017 12:18 24,4 C 22,2 C 64 % 1018,2 hPa 0,0 l/m 1,9 km/h (1 Bft) NO 35 2 min 0,000 mm 5,8 UV-I 806 W/m 17,1 C 24,4 C 4,8 km/h (1 Bft) 100,00 %
15.08.2017 12:20 24,5 C 22,2 C 64 % 1018,2 hPa 0,0 l/m 3,6 km/h (1 Bft) O-NO 59 2 min 0,000 mm 5,8 UV-I 808 W/m 17,2 C 24,5 C 8,0 km/h (2 Bft) 100,00 %
15.08.2017 12:22 24,6 C 22,2 C 61 % 1018,1 hPa 0,0 l/m 5,2 km/h (1 Bft) O 79 2 min 0,000 mm 5,8 UV-I 809 W/m 16,6 C 24,6 C 8,0 km/h (2 Bft) 100,00 %
15.08.2017 12:24 24,7 C 22,2 C 62 % 1018,1 hPa 0,0 l/m 5,8 km/h (2 Bft) O 79 2 min 0,000 mm 5,9 UV-I 811 W/m 16,9 C 24,7 C 8,0 km/h (2 Bft) 100,00 %
15.08.2017 12:26 24,6 C 22,2 C 61 % 1018,0 hPa 0,0 l/m 6,6 km/h (2 Bft) NO 36 2 min 0,000 mm 5,9 UV-I 811 W/m 16,6 C 24,6 C 11,3 km/h (2 Bft) 100,00 %
15.08.2017 12:28 24,6 C 22,2 C 61 % 1018,0 hPa 0,0 l/m 5,7 km/h (1 Bft) O-NO 57 2 min 0,000 mm 5,9 UV-I 812 W/m 16,6 C 24,6 C 9,7 km/h (2 Bft) 100,00 %
15.08.2017 12:30 24,8 C 22,2 C 63 % 1018,0 hPa 0,0 l/m 4,0 km/h (1 Bft) NO 50 2 min 0,000 mm 5,9 UV-I 813 W/m 17,3 C 24,8 C 9,7 km/h (2 Bft) 100,00 %
15.08.2017 12:32 24,9 C 22,2 C 65 % 1018,0 hPa 0,0 l/m 6,5 km/h (2 Bft) N-NO 23 2 min 0,000 mm 5,9 UV-I 814 W/m 17,9 C 24,9 C 9,7 km/h (2 Bft) 98,00 %
15.08.2017 12:34 24,9 C 22,2 C 61 % 1017,9 hPa 0,0 l/m 4,3 km/h (1 Bft) O-NO 62 2 min 0,000 mm 5,9 UV-I 814 W/m 16,8 C 24,9 C 8,0 km/h (2 Bft) 97,56 %
15.08.2017 12:36 24,9 C 22,2 C 63 % 1017,9 hPa 0,0 l/m 1,9 km/h (1 Bft) O-SO 103 2 min 0,000 mm 5,9 UV-I 815 W/m 17,4 C 24,9 C 4,8 km/h (1 Bft) 97,56 %
15.08.2017 12:38 24,9 C 22,2 C 62 % 1017,9 hPa 0,0 l/m 4,5 km/h (1 Bft) N-NO 19 2 min 0,000 mm 6,0 UV-I 817 W/m 17,1 C 24,9 C 9,7 km/h (2 Bft) 98,21 %
15.08.2017 12:40 24,9 C 22,2 C 64 % 1017,9 hPa 0,0 l/m 1,4 km/h (1 Bft) N-NO 17 2 min 0,000 mm 6,0 UV-I 817 W/m 17,6 C 24,9 C 3,2 km/h (1 Bft) 97,37 %
15.08.2017 12:42 25,0 C 22,2 C 66 % 1017,9 hPa 0,0 l/m 5,0 km/h (1 Bft) NO 41 2 min 0,000 mm 6,0 UV-I 818 W/m 18,2 C 25,0 C 9,7 km/h (2 Bft) 98,11 %
15.08.2017 12:44 25,2 C 22,2 C 62 % 1017,9 hPa 0,0 l/m 5,7 km/h (1 Bft) N-NO 33 2 min 0,000 mm 6,0 UV-I 820 W/m 17,4 C 25,2 C 11,3 km/h (2 Bft) 98,00 %
15.08.2017 12:46 25,3 C 22,2 C 66 % 1017,9 hPa 0,0 l/m 3,7 km/h (1 Bft) N-NO 13 2 min 0,000 mm 6,0 UV-I 822 W/m 18,5 C 25,3 C 8,0 km/h (2 Bft) 97,56 %
15.08.2017 12:48 25,4 C 22,2 C 63 % 1017,9 hPa 0,0 l/m 3,5 km/h (1 Bft) NO 44 2 min 0,000 mm 6,0 UV-I 821 W/m 17,8 C 25,4 C 8,0 km/h (2 Bft) 96,30 %
15.08.2017 12:50 25,4 C 22,2 C 61 % 1017,9 hPa 0,0 l/m 5,4 km/h (1 Bft) NO 40 2 min 0,000 mm 6,0 UV-I 821 W/m 17,3 C 25,4 C 9,7 km/h (2 Bft) 95,71 %
15.08.2017 12:52 25,5 C 22,2 C 60 % 1018,0 hPa 0,0 l/m 5,1 km/h (1 Bft) O-NO 71 2 min 0,000 mm 6,1 UV-I 822 W/m 17,2 C 25,5 C 8,0 km/h (2 Bft) 98,00 %
15.08.2017 12:54 25,4 C 22,2 C 58 % 1018,0 hPa 0,0 l/m 2,8 km/h (1 Bft) O 87 2 min 0,000 mm 6,1 UV-I 823 W/m 16,5 C 25,4 C 6,4 km/h (2 Bft) 98,00 %
15.08.2017 12:56 25,3 C 22,2 C 60 % 1017,9 hPa 0,0 l/m 3,8 km/h (1 Bft) NO 40 2 min 0,000 mm 6,1 UV-I 823 W/m 17,0 C 25,3 C 6,4 km/h (2 Bft) 97,56 %
15.08.2017 12:58 25,4 C 22,2 C 60 % 1018,0 hPa 0,0 l/m 5,4 km/h (1 Bft) O-NO 63 2 min 0,000 mm 6,1 UV-I 822 W/m 17,1 C 25,4 C 14,5 km/h (3 Bft) 97,87 %
15.08.2017 13:00 25,4 C 22,2 C 62 % 1017,9 hPa 0,0 l/m 5,8 km/h (2 Bft) NO 45 2 min 0,534 mm 6,1 UV-I 823 W/m 17,6 C 25,4 C 9,7 km/h (2 Bft) 98,11 %
15.08.2017 13:02 25,5 C 22,2 C 60 % 1018,0 hPa 0,0 l/m 6,2 km/h (2 Bft) NO 38 2 min 0,000 mm 6,1 UV-I 824 W/m 17,2 C 25,5 C 11,3 km/h (2 Bft) 97,22 %
15.08.2017 13:04 25,6 C 22,2 C 60 % 1017,9 hPa 0,0 l/m 5,1 km/h (1 Bft) N-NO 24 2 min 0,000 mm 6,1 UV-I 823 W/m 17,2 C 25,6 C 11,3 km/h (2 Bft) 100,00 %
15.08.2017 13:06 25,3 C 22,2 C 57 % 1017,9 hPa 0,0 l/m 0,9 km/h (0 Bft) N-NO 24 2 min 0,000 mm 6,1 UV-I 822 W/m 16,2 C 25,3 C 3,2 km/h (1 Bft) 98,11 %
15.08.2017 13:08 25,5 C 22,2 C 62 % 1018,0 hPa 0,0 l/m 2,7 km/h (1 Bft) N-NO 29 2 min 0,000 mm 6,1 UV-I 821 W/m 17,7 C 25,5 C 6,4 km/h (2 Bft) 100,00 %
15.08.2017 13:10 25,8 C 22,2 C 61 % 1018,0 hPa 0,0 l/m 6,1 km/h (2 Bft) NO 51 2 min 0,000 mm 6,1 UV-I 822 W/m 17,7 C 25,8 C 9,7 km/h (2 Bft) 100,00 %
15.08.2017 13:12 25,8 C 22,2 C 57 % 1018,0 hPa 0,0 l/m 6,3 km/h (2 Bft) O 86 2 min 0,000 mm 6,1 UV-I 823 W/m 16,6 C 25,8 C 11,3 km/h (2 Bft) 100,00 %
15.08.2017 13:14 25,8 C 22,2 C 58 % 1018,0 hPa 0,0 l/m 5,4 km/h (1 Bft) O 98 2 min 0,000 mm 6,1 UV-I 822 W/m 16,9 C 25,8 C 8,0 km/h (2 Bft) 100,00 %
15.08.2017 13:16 25,9 C 22,2 C 57 % 1018,0 hPa 0,0 l/m 3,0 km/h (1 Bft) NO 55 2 min 0,000 mm 6,1 UV-I 823 W/m 16,7 C 25,9 C 9,7 km/h (2 Bft) 96,00 %
15.08.2017 13:18 25,9 C 22,2 C 60 % 1018,0 hPa 0,0 l/m 3,6 km/h (1 Bft) O-NO 59 2 min 0,000 mm 6,1 UV-I 823 W/m 17,5 C 25,9 C 9,7 km/h (2 Bft) 100,00 %
15.08.2017 13:20 25,9 C 22,2 C 58 % 1018,0 hPa 0,0 l/m 5,0 km/h (1 Bft) O-NO 73 2 min 0,000 mm 6,1 UV-I 822 W/m 17,0 C 25,9 C 9,7 km/h (2 Bft) 98,46 %
15.08.2017 13:22 26,0 C 22,2 C 57 % 1017,9 hPa 0,0 l/m 5,8 km/h (2 Bft) O-SO 103 2 min 0,000 mm 6,1 UV-I 821 W/m 16,8 C 26,0 C 9,7 km/h (2 Bft) 100,00 %
15.08.2017 13:24 26,1 C 22,8 C 58 % 1018,0 hPa 0,0 l/m 5,4 km/h (1 Bft) O-SO 108 2 min 0,000 mm 6,1 UV-I 822 W/m 17,2 C 26,1 C 11,3 km/h (2 Bft) 97,87 %
15.08.2017 13:26 26,1 C 22,8 C 56 % 1017,9 hPa 0,0 l/m 8,9 km/h (2 Bft) O 80 2 min 0,000 mm 6,0 UV-I 821 W/m 16,6 C 25,6 C 14,5 km/h (3 Bft) 97,37 %
15.08.2017 13:28 26,1 C 22,8 C 56 % 1017,9 hPa 0,0 l/m 7,2 km/h (2 Bft) O-SO 115 2 min 0,000 mm 6,0 UV-I 821 W/m 16,6 C 25,9 C 9,7 km/h (2 Bft) 98,11 %
15.08.2017 13:30 25,9 C 22,8 C 54 % 1017,8 hPa 0,0 l/m 2,8 km/h (1 Bft) SO 142 2 min 0,000 mm 6,0 UV-I 821 W/m 15,9 C 25,9 C 6,4 km/h (2 Bft) 100,00 %
15.08.2017 13:32 25,9 C 22,8 C 56 % 1017,8 hPa 0,0 l/m 6,0 km/h (2 Bft) O 101 2 min 0,000 mm 6,0 UV-I 820 W/m 16,4 C 25,9 C 9,7 km/h (2 Bft) 100,00 %
15.08.2017 13:34 25,9 C 22,8 C 56 % 1017,8 hPa 0,0 l/m 5,6 km/h (1 Bft) O-NO 75 2 min 0,000 mm 6,0 UV-I 817 W/m 16,4 C 25,9 C 11,3 km/h (2 Bft) 100,00 %
15.08.2017 13:36 26,0 C 22,8 C 59 % 1017,7 hPa 0,0 l/m 5,4 km/h (1 Bft) NO 45 2 min 0,000 mm 6,0 UV-I 816 W/m 17,4 C 26,0 C 8,0 km/h (2 Bft) 98,00 %
15.08.2017 13:38 26,1 C 22,8 C 57 % 1017,8 hPa 0,0 l/m 4,8 km/h (1 Bft) O-SO 123 2 min 0,000 mm 5,7 UV-I 816 W/m 16,9 C 26,1 C 9,7 km/h (2 Bft) 100,00 %
15.08.2017 13:40 26,2 C 22,8 C 58 % 1017,7 hPa 0,0 l/m 4,0 km/h (1 Bft) O 92 2 min 0,000 mm 5,5 UV-I 816 W/m 17,3 C 26,2 C 6,4 km/h (2 Bft) 100,00 %
15.08.2017 13:42 26,2 C 22,8 C 62 % 1017,7 hPa 0,0 l/m 5,8 km/h (2 Bft) NO 48 2 min 0,000 mm 5,9 UV-I 814 W/m 18,3 C 26,2 C 9,7 km/h (2 Bft) 97,87 %
15.08.2017 13:44 26,4 C 22,8 C 62 % 1017,7 hPa 0,0 l/m 3,9 km/h (1 Bft) NO 35 2 min 0,000 mm 5,9 UV-I 811 W/m 18,5 C 26,4 C 8,0 km/h (2 Bft) 100,00 %
15.08.2017 13:46 26,6 C 22,8 C 56 % 1017,7 hPa 0,0 l/m 4,2 km/h (1 Bft) O-NO 75 2 min 0,000 mm 5,9 UV-I 809 W/m 17,1 C 26,6 C 9,7 km/h (2 Bft) 100,00 %
15.08.2017 13:48 26,4 C 22,8 C 58 % 1017,7 hPa 0,0 l/m 3,7 km/h (1 Bft) NO 53 2 min 0,000 mm 5,8 UV-I 809 W/m 17,5 C 26,4 C 6,4 km/h (2 Bft) 98,00 %
15.08.2017 13:50 26,5 C 22,8 C 59 % 1017,7 hPa 0,0 l/m 5,1 km/h (1 Bft) O-NO 65 2 min 0,000 mm 5,8 UV-I 806 W/m 17,8 C 26,5 C 9,7 km/h (2 Bft) 97,87 %
15.08.2017 13:52 26,6 C 22,8 C 57 % 1017,7 hPa 0,0 l/m 6,9 km/h (2 Bft) NO 43 2 min 0,000 mm 5,8 UV-I 805 W/m 17,4 C 26,5 C 14,5 km/h (3 Bft) 100,00 %
15.08.2017 13:54 26,6 C 22,8 C 58 % 1017,6 hPa 0,0 l/m 5,9 km/h (2 Bft) O-NO 57 2 min 0,000 mm 5,8 UV-I 806 W/m 17,6 C 26,6 C 11,3 km/h (2 Bft) 100,00 %
15.08.2017 13:56 26,7 C 22,8 C 57 % 1017,7 hPa 0,0 l/m 6,0 km/h (2 Bft) O-NO 69 2 min 0,000 mm 5,8 UV-I 803 W/m 17,5 C 26,7 C 12,9 km/h (3 Bft) 100,00 %
15.08.2017 13:58 26,7 C 22,8 C 58 % 1017,6 hPa 0,0 l/m 6,3 km/h (2 Bft) NO 49 2 min 0,000 mm 5,7 UV-I 800 W/m 17,7 C 26,7 C 11,3 km/h (2 Bft) 100,00 %
15.08.2017 14:00 26,7 C 22,8 C 63 % 1017,6 hPa 0,0 l/m 5,4 km/h (1 Bft) NO 51 2 min 0,533 mm 5,7 UV-I 799 W/m 19,1 C 26,7 C 8,0 km/h (2 Bft) 96,00 %
15.08.2017 14:02 26,6 C 22,8 C 60 % 1017,6 hPa 0,0 l/m 2,5 km/h (1 Bft) O-NO 61 2 min 0,000 mm 5,7 UV-I 797 W/m 18,2 C 26,6 C 4,8 km/h (1 Bft) 98,11 %
15.08.2017 14:04 26,7 C 22,8 C 61 % 1017,6 hPa 0,0 l/m 5,9 km/h (2 Bft) O-NO 63 2 min 0,000 mm 5,7 UV-I 795 W/m 18,5 C 26,7 C 9,7 km/h (2 Bft) 100,00 %
15.08.2017 14:06 26,9 C 22,8 C 58 % 1017,6 hPa 0,0 l/m 5,0 km/h (1 Bft) O-SO 105 2 min 0,000 mm 5,6 UV-I 794 W/m 17,9 C 26,9 C 9,7 km/h (2 Bft) 100,00 %
15.08.2017 14:08 26,9 C 22,8 C 56 % 1017,6 hPa 0,0 l/m 9,7 km/h (2 Bft) O-NO 59 2 min 0,000 mm 5,6 UV-I 793 W/m 17,4 C 26,3 C 14,5 km/h (3 Bft) 97,56 %
15.08.2017 14:10 26,9 C 22,8 C 56 % 1017,6 hPa 0,0 l/m 7,7 km/h (2 Bft) NO 42 2 min 0,000 mm 5,6 UV-I 790 W/m 17,4 C 26,7 C 12,9 km/h (3 Bft) 100,00 %
15.08.2017 14:12 27,0 C 22,8 C 60 % 1017,6 hPa 0,0 l/m 7,1 km/h (2 Bft) O-NO 65 2 min 0,000 mm 5,5 UV-I 788 W/m 18,6 C 26,9 C 12,9 km/h (3 Bft) 100,00 %
15.08.2017 14:14 27,0 C 22,8 C 58 % 1017,6 hPa 0,0 l/m 2,7 km/h (1 Bft) NO 55 2 min 0,000 mm 5,5 UV-I 786 W/m 18,0 C 27,0 C 6,4 km/h (2 Bft) 96,30 %
15.08.2017 14:16 27,1 C 22,8 C 58 % 1017,6 hPa 0,0 l/m 4,0 km/h (1 Bft) N-NW 342 2 min 0,000 mm 5,5 UV-I 784 W/m 18,1 C 27,1 C 8,0 km/h (2 Bft) 100,00 %
15.08.2017 14:18 27,2 C 22,8 C 56 % 1017,6 hPa 0,0 l/m 5,0 km/h (1 Bft) O-NO 59 2 min 0,000 mm 5,4 UV-I 781 W/m 17,6 C 27,2 C 9,7 km/h (2 Bft) 100,00 %
15.08.2017 14:20 27,2 C 22,8 C 57 % 1017,6 hPa 0,0 l/m 4,6 km/h (1 Bft) N 9 2 min 0,000 mm 5,4 UV-I 779 W/m 17,9 C 27,2 C 8,0 km/h (2 Bft) 100,00 %
15.08.2017 14:22 27,3 C 22,8 C 57 % 1017,6 hPa 0,0 l/m 1,2 km/h (1 Bft) N 355 2 min 0,000 mm 5,4 UV-I 776 W/m 18,0 C 27,3 C 3,2 km/h (1 Bft) 100,00 %
15.08.2017 14:24 27,2 C 22,8 C 55 % 1017,6 hPa 0,0 l/m 5,3 km/h (1 Bft) N 349 2 min 0,000 mm 5,3 UV-I 775 W/m 17,4 C 27,2 C 8,0 km/h (2 Bft) 97,87 %
15.08.2017 14:26 27,2 C 22,8 C 55 % 1017,6 hPa 0,0 l/m 4,9 km/h (1 Bft) O 88 2 min 0,000 mm 5,3 UV-I 771 W/m 17,4 C 27,2 C 11,3 km/h (2 Bft) 98,00 %
15.08.2017 14:28 27,2 C 22,8 C 54 % 1017,6 hPa 0,0 l/m 7,8 km/h (2 Bft) NO 43 2 min 0,000 mm 5,3 UV-I 770 W/m 17,1 C 26,9 C 12,9 km/h (3 Bft) 97,87 %
15.08.2017 14:30 27,4 C 22,8 C 58 % 1017,6 hPa 0,0 l/m 6,0 km/h (2 Bft) NO 48 2 min 0,000 mm 5,2 UV-I 770 W/m 18,4 C 27,4 C 9,7 km/h (2 Bft) 98,00 %
15.08.2017 14:32 27,4 C 22,8 C 60 % 1017,5 hPa 0,0 l/m 5,3 km/h (1 Bft) O-NO 57 2 min 0,000 mm 5,2 UV-I 765 W/m 18,9 C 27,4 C 9,7 km/h (2 Bft) 94,74 %
15.08.2017 14:34 27,6 C 22,8 C 57 % 1017,6 hPa 0,0 l/m 7,2 km/h (2 Bft) NO 55 2 min 0,000 mm 5,2 UV-I 762 W/m 18,3 C 27,5 C 12,9 km/h (3 Bft) 94,00 %
15.08.2017 14:36 27,5 C 22,8 C 53 % 1017,5 hPa 0,0 l/m 5,3 km/h (1 Bft) NO 53 2 min 0,000 mm 5,1 UV-I 758 W/m 17,0 C 27,5 C 9,7 km/h (2 Bft) 95,12 %
15.08.2017 14:38 27,4 C 22,8 C 53 % 1017,4 hPa 0,0 l/m 5,2 km/h (1 Bft) O-NO 66 2 min 0,000 mm 5,1 UV-I 755 W/m 17,0 C 27,4 C 9,7 km/h (2 Bft) 94,34 %
15.08.2017 14:40 27,3 C 22,8 C 56 % 1017,4 hPa 0,0 l/m 0,3 km/h (0 Bft) O-NO 66 2 min 0,000 mm 5,0 UV-I 754 W/m 17,7 C 27,3 C 1,6 km/h (1 Bft) 97,87 %
15.08.2017 14:42 27,3 C 22,8 C 56 % 1017,4 hPa 0,0 l/m 10,1 km/h (2 Bft) O-NO 61 2 min 0,000 mm 5,0 UV-I 752 W/m 17,7 C 26,7 C 16,1 km/h (3 Bft) 93,62 %
15.08.2017 14:44 27,4 C 22,8 C 54 % 1017,4 hPa 0,0 l/m 12,0 km/h (2 Bft) O 84 2 min 0,000 mm 5,0 UV-I 752 W/m 17,3 C 26,6 C 16,1 km/h (3 Bft) 94,34 %
15.08.2017 14:46 27,4 C 22,8 C 54 % 1017,4 hPa 0,0 l/m 4,9 km/h (1 Bft) N-NO 24 2 min 0,000 mm 5,0 UV-I 748 W/m 17,3 C 27,4 C 12,9 km/h (3 Bft) 92,11 %
15.08.2017 14:48 27,4 C 22,8 C 56 % 1017,4 hPa 0,0 l/m 4,8 km/h (1 Bft) O-NO 65 2 min 0,000 mm 4,9 UV-I 745 W/m 17,8 C 27,4 C 9,7 km/h (2 Bft) 96,00 %
15.08.2017 14:50 27,4 C 22,8 C 56 % 1017,4 hPa 0,0 l/m 6,3 km/h (2 Bft) O 91 2 min 0,000 mm 4,9 UV-I 743 W/m 17,8 C 27,4 C 11,3 km/h (2 Bft) 92,45 %
15.08.2017 14:52 27,5 C 22,8 C 54 % 1017,4 hPa 0,0 l/m 9,6 km/h (2 Bft) O 93 2 min 0,000 mm 4,9 UV-I 742 W/m 17,3 C 27,0 C 16,1 km/h (3 Bft) 95,45 %
15.08.2017 14:54 27,4 C 23,3 C 53 % 1017,4 hPa 0,0 l/m 11,5 km/h (2 Bft) O-NO 71 2 min 0,000 mm 4,8 UV-I 738 W/m 17,0 C 26,6 C 14,5 km/h (3 Bft) 94,74 %
15.08.2017 14:56 27,4 C 23,3 C 53 % 1017,4 hPa 0,0 l/m 5,4 km/h (1 Bft) O-NO 73 2 min 0,000 mm 4,8 UV-I 736 W/m 17,0 C 27,4 C 11,3 km/h (2 Bft) 94,00 %
15.08.2017 14:58 27,4 C 23,3 C 54 % 1017,4 hPa 0,0 l/m 6,5 km/h (2 Bft) O-SO 105 2 min 0,000 mm 4,7 UV-I 732 W/m 17,3 C 27,4 C 11,3 km/h (2 Bft) 98,11 %
15.08.2017 15:00 27,4 C 23,3 C 52 % 1017,4 hPa 0,0 l/m 4,7 km/h (1 Bft) O-NO 58 2 min 0,534 mm 4,7 UV-I 730 W/m 16,7 C 27,4 C 9,7 km/h (2 Bft) 97,87 %
15.08.2017 15:02 27,4 C 23,3 C 54 % 1017,4 hPa 0,0 l/m 6,0 km/h (2 Bft) NO 56 2 min 0,000 mm 4,6 UV-I 726 W/m 17,3 C 27,4 C 11,3 km/h (2 Bft) 97,44 %
15.08.2017 15:04 27,6 C 23,3 C 55 % 1017,4 hPa 0,0 l/m 6,9 km/h (2 Bft) SO 141 2 min 0,000 mm 4,6 UV-I 723 W/m 17,7 C 27,5 C 9,7 km/h (2 Bft) 95,45 %
15.08.2017 15:06 27,8 C 23,3 C 58 % 1017,4 hPa 0,0 l/m 6,1 km/h (2 Bft) NO 43 2 min 0,000 mm 4,5 UV-I 720 W/m 18,8 C 27,8 C 12,9 km/h (3 Bft) 96,43 %
15.08.2017 15:08 27,9 C 23,3 C 53 % 1017,4 hPa 0,0 l/m 6,5 km/h (2 Bft) O-NO 67 2 min 0,000 mm 4,5 UV-I 717 W/m 17,4 C 27,9 C 9,7 km/h (2 Bft) 97,87 %
15.08.2017 15:10 27,8 C 23,3 C 51 % 1017,4 hPa 0,0 l/m 4,2 km/h (1 Bft) O-NO 62 2 min 0,000 mm 4,5 UV-I 710 W/m 16,7 C 27,8 C 6,4 km/h (2 Bft) 98,00 %
15.08.2017 15:12 27,7 C 23,3 C 53 % 1017,4 hPa 0,0 l/m 5,6 km/h (1 Bft) O-NO 67 2 min 0,000 mm 4,4 UV-I 706 W/m 17,2 C 27,7 C 8,0 km/h (2 Bft) 97,73 %
15.08.2017 15:14 27,7 C 23,3 C 53 % 1017,4 hPa 0,0 l/m 4,3 km/h (1 Bft) O-NO 63 2 min 0,000 mm 4,4 UV-I 702 W/m 17,2 C 27,7 C 9,7 km/h (2 Bft) 97,37 %
15.08.2017 15:16 27,7 C 23,3 C 53 % 1017,3 hPa 0,0 l/m 4,8 km/h (1 Bft) NO 51 2 min 0,000 mm 4,3 UV-I 696 W/m 17,2 C 27,7 C 6,4 km/h (2 Bft) 98,21 %
15.08.2017 15:18 27,8 C 23,3 C 51 % 1017,3 hPa 0,0 l/m 2,5 km/h (1 Bft) NO 40 2 min 0,000 mm 3,9 UV-I 693 W/m 16,7 C 27,8 C 8,0 km/h (2 Bft) 95,74 %
15.08.2017 15:20 27,7 C 23,3 C 54 % 1017,3 hPa 0,0 l/m 3,5 km/h (1 Bft) NO 53 2 min 0,000 mm 4,2 UV-I 653 W/m 17,5 C 27,7 C 9,7 km/h (2 Bft) 97,56 %
15.08.2017 15:22 27,8 C 23,3 C 52 % 1017,3 hPa 0,0 l/m 6,4 km/h (2 Bft) N-NO 24 2 min 0,000 mm 4,2 UV-I 689 W/m 17,0 C 27,8 C 9,7 km/h (2 Bft) 96,00 %
15.08.2017 15:24 27,9 C 23,3 C 53 % 1017,2 hPa 0,0 l/m 5,1 km/h (1 Bft) O-NO 58 2 min 0,000 mm 4,1 UV-I 685 W/m 17,4 C 27,9 C 9,7 km/h (2 Bft) 97,87 %
15.08.2017 15:26 27,9 C 23,3 C 50 % 1017,3 hPa 0,0 l/m 3,6 km/h (1 Bft) NO 45 2 min 0,000 mm 4,1 UV-I 684 W/m 16,5 C 27,9 C 8,0 km/h (2 Bft) 100,00 %
15.08.2017 15:28 27,9 C 23,3 C 51 % 1017,3 hPa 0,0 l/m 1,3 km/h (1 Bft) NO 45 2 min 0,000 mm 4,0 UV-I 678 W/m 16,8 C 27,9 C 3,2 km/h (1 Bft) 100,00 %
15.08.2017 15:30 27,8 C 23,3 C 51 % 1017,2 hPa 0,0 l/m 0,4 km/h (0 Bft) NO 44 2 min 0,000 mm 4,0 UV-I 674 W/m 16,7 C 27,8 C 3,2 km/h (1 Bft) 100,00 %
15.08.2017 15:32 27,9 C 23,3 C 52 % 1017,1 hPa 0,0 l/m 0,2 km/h (0 Bft) NO 44 2 min 0,000 mm 4,0 UV-I 670 W/m 17,1 C 27,9 C 1,6 km/h (1 Bft) 97,56 %
15.08.2017 15:34 28,1 C 23,3 C 51 % 1017,2 hPa 0,0 l/m 0,3 km/h (0 Bft) NO 40 2 min 0,000 mm 3,9 UV-I 664 W/m 17,0 C 28,1 C 1,6 km/h (1 Bft) 100,00 %
15.08.2017 15:36 28,3 C 23,3 C 50 % 1017,1 hPa 0,0 l/m 2,7 km/h (1 Bft) NO 46 2 min 0,000 mm 3,9 UV-I 662 W/m 16,9 C 28,3 C 6,4 km/h (2 Bft) 100,00 %
15.08.2017 15:38 28,3 C 23,3 C 49 % 1017,1 hPa 0,0 l/m 6,1 km/h (2 Bft) O-NO 63 2 min 0,000 mm 3,8 UV-I 658 W/m 16,5 C 28,3 C 9,7 km/h (2 Bft) 100,00 %
15.08.2017 15:40 28,3 C 23,3 C 51 % 1017,1 hPa 0,0 l/m 5,9 km/h (2 Bft) O-NO 63 2 min 0,000 mm 3,8 UV-I 653 W/m 17,2 C 28,3 C 8,0 km/h (2 Bft) 100,00 %
15.08.2017 15:42 28,2 C 23,3 C 51 % 1017,0 hPa 0,0 l/m 5,8 km/h (2 Bft) NO 48 2 min 0,000 mm 3,7 UV-I 650 W/m 17,1 C 28,2 C 8,0 km/h (2 Bft) 100,00 %
15.08.2017 15:44 28,2 C 23,3 C 49 % 1017,0 hPa 0,0 l/m 4,0 km/h (1 Bft) N-NO 28 2 min 0,000 mm 3,7 UV-I 645 W/m 16,5 C 28,2 C 6,4 km/h (2 Bft) 100,00 %
15.08.2017 15:46 28,2 C 23,3 C 51 % 1017,0 hPa 0,0 l/m 3,7 km/h (1 Bft) O-SO 103 2 min 0,000 mm 3,4 UV-I 642 W/m 17,1 C 28,2 C 6,4 km/h (2 Bft) 97,92 %
15.08.2017 15:48 28,3 C 23,3 C 50 % 1017,0 hPa 0,0 l/m 4,0 km/h (1 Bft) NO 52 2 min 0,000 mm 3,6 UV-I 638 W/m 16,9 C 28,3 C 6,4 km/h (2 Bft) 100,00 %
15.08.2017 15:50 28,2 C 23,3 C 49 % 1016,9 hPa 0,0 l/m 2,0 km/h (1 Bft) NO 52 2 min 0,000 mm 3,5 UV-I 633 W/m 16,5 C 28,2 C 3,2 km/h (1 Bft) 100,00 %
15.08.2017 15:52 28,3 C 23,3 C 50 % 1016,9 hPa 0,0 l/m 5,2 km/h (1 Bft) N 355 2 min 0,000 mm 3,5 UV-I 630 W/m 16,9 C 28,3 C 9,7 km/h (2 Bft) 97,87 %
15.08.2017 15:54 28,4 C 23,3 C 50 % 1017,0 hPa 0,0 l/m 7,0 km/h (2 Bft) N-NO 30 2 min 0,000 mm 3,4 UV-I 624 W/m 17,0 C 28,3 C 12,9 km/h (3 Bft) 100,00 %
15.08.2017 15:56 28,4 C 23,3 C 54 % 1016,9 hPa 0,0 l/m 1,9 km/h (1 Bft) N-NO 20 2 min 0,000 mm 3,4 UV-I 621 W/m 18,2 C 28,4 C 8,0 km/h (2 Bft) 100,00 %
15.08.2017 15:58 28,5 C 23,3 C 50 % 1016,9 hPa 0,0 l/m 3,3 km/h (1 Bft) O-NO 67 2 min 0,000 mm 3,3 UV-I 616 W/m 17,0 C 28,5 C 8,0 km/h (2 Bft) 100,00 %
15.08.2017 16:00 28,6 C 23,3 C 48 % 1016,9 hPa 0,0 l/m 1,5 km/h (1 Bft) N 355 2 min 0,457 mm 3,3 UV-I 614 W/m 16,5 C 28,6 C 4,8 km/h (1 Bft) 98,00 %
15.08.2017 16:02 28,5 C 23,3 C 52 % 1016,8 hPa 0,0 l/m 2,4 km/h (1 Bft) NO 40 2 min 0,000 mm 3,3 UV-I 607 W/m 17,7 C 28,5 C 8,0 km/h (2 Bft) 100,00 %
15.08.2017 16:04 28,5 C 23,3 C 48 % 1016,9 hPa 0,0 l/m 5,4 km/h (1 Bft) NO 37 2 min 0,000 mm 3,2 UV-I 605 W/m 16,4 C 28,5 C 8,0 km/h (2 Bft) 100,00 %
15.08.2017 16:06 28,4 C 23,3 C 47 % 1016,9 hPa 0,0 l/m 7,3 km/h (2 Bft) O-NO 76 2 min 0,000 mm 3,2 UV-I 601 W/m 16,0 C 28,3 C 12,9 km/h (3 Bft) 100,00 %
15.08.2017 16:08 28,4 C 23,3 C 47 % 1016,9 hPa 0,0 l/m 7,1 km/h (2 Bft) NO 34 2 min 0,000 mm 3,1 UV-I 596 W/m 16,0 C 28,3 C 9,7 km/h (2 Bft) 97,92 %
15.08.2017 16:10 28,4 C 23,3 C 49 % 1016,8 hPa 0,0 l/m 8,0 km/h (2 Bft) NO 42 2 min 0,000 mm 3,1 UV-I 591 W/m 16,6 C 28,2 C 9,7 km/h (2 Bft) 100,00 %
15.08.2017 16:12 28,4 C 23,3 C 48 % 1016,9 hPa 0,0 l/m 4,7 km/h (1 Bft) O-NO 60 2 min 0,000 mm 3,0 UV-I 586 W/m 16,3 C 28,4 C 6,4 km/h (2 Bft) 100,00 %
15.08.2017 16:14 28,5 C 23,3 C 46 % 1016,8 hPa 0,0 l/m 0,9 km/h (0 Bft) O-NO 59 2 min 0,000 mm 3,0 UV-I 581 W/m 15,7 C 28,5 C 3,2 km/h (1 Bft) 98,00 %
15.08.2017 16:16 28,5 C 23,3 C 47 % 1016,8 hPa 0,0 l/m 1,8 km/h (1 Bft) NO 52 2 min 0,000 mm 2,9 UV-I 577 W/m 16,1 C 28,5 C 4,8 km/h (1 Bft) 91,67 %
15.08.2017 16:18 28,6 C 23,3 C 49 % 1016,8 hPa 0,0 l/m 3,7 km/h (1 Bft) N 5 2 min 0,000 mm 2,9 UV-I 573 W/m 16,8 C 28,6 C 8,0 km/h (2 Bft) 97,73 %
15.08.2017 16:20 28,6 C 23,3 C 48 % 1016,7 hPa 0,0 l/m 0,8 km/h (0 Bft) N-NO 15 2 min 0,000 mm 2,8 UV-I 569 W/m 16,5 C 28,6 C 3,2 km/h (1 Bft) 97,73 %
15.08.2017 16:22 28,6 C 23,3 C 49 % 1016,7 hPa 0,0 l/m 2,4 km/h (1 Bft) NO 50 2 min 0,000 mm 2,8 UV-I 565 W/m 16,8 C 28,6 C 9,7 km/h (2 Bft) 97,87 %
15.08.2017 16:24 28,7 C 23,3 C 51 % 1016,8 hPa 0,0 l/m 4,6 km/h (1 Bft) N-NO 19 2 min 0,000 mm 2,7 UV-I 560 W/m 17,5 C 28,7 C 8,0 km/h (2 Bft) 98,00 %
15.08.2017 16:26 28,7 C 23,3 C 51 % 1016,7 hPa 0,0 l/m 3,9 km/h (1 Bft) NO 42 2 min 0,000 mm 2,7 UV-I 553 W/m 17,5 C 28,7 C 6,4 km/h (2 Bft) 97,92 %
15.08.2017 16:28 28,7 C 23,3 C 47 % 1016,7 hPa 0,0 l/m 5,3 km/h (1 Bft) NO 52 2 min 0,000 mm 2,6 UV-I 550 W/m 16,3 C 28,7 C 6,4 km/h (2 Bft) 94,74 %
15.08.2017 16:30 28,7 C 23,3 C 52 % 1016,7 hPa 0,0 l/m 1,1 km/h (1 Bft) NO 48 2 min 0,000 mm 2,6 UV-I 545 W/m 17,8 C 28,7 C 3,2 km/h (1 Bft) 98,00 %
15.08.2017 16:32 28,8 C 23,3 C 48 % 1016,7 hPa 0,0 l/m 1,0 km/h (0 Bft) NO 46 2 min 0,000 mm 2,5 UV-I 538 W/m 16,7 C 28,8 C 4,8 km/h (1 Bft) 97,56 %
15.08.2017 16:34 28,8 C 23,3 C 49 % 1016,7 hPa 0,0 l/m 4,6 km/h (1 Bft) NO 54 2 min 0,000 mm 2,5 UV-I 535 W/m 17,0 C 28,8 C 9,7 km/h (2 Bft) 97,87 %
15.08.2017 16:36 28,8 C 23,3 C 49 % 1016,6 hPa 0,0 l/m 6,6 km/h (2 Bft) NO 48 2 min 0,000 mm 2,5 UV-I 531 W/m 17,0 C 28,8 C 12,9 km/h (3 Bft) 96,00 %
15.08.2017 16:38 28,9 C 23,3 C 48 % 1016,6 hPa 0,0 l/m 3,8 km/h (1 Bft) NO 35 2 min 0,000 mm 2,4 UV-I 526 W/m 16,8 C 28,9 C 8,0 km/h (2 Bft) 98,00 %
15.08.2017 16:40 28,9 C 23,3 C 49 % 1016,6 hPa 0,0 l/m 5,4 km/h (1 Bft) N-NO 17 2 min 0,000 mm 2,4 UV-I 523 W/m 17,1 C 28,9 C 8,0 km/h (2 Bft) 97,87 %
15.08.2017 16:42 28,9 C 23,3 C 48 % 1016,6 hPa 0,0 l/m 5,2 km/h (1 Bft) NO 47 2 min 0,000 mm 2,3 UV-I 515 W/m 16,8 C 28,9 C 9,7 km/h (2 Bft) 98,00 %
15.08.2017 16:44 28,9 C 23,3 C 50 % 1016,6 hPa 0,0 l/m 1,6 km/h (1 Bft) NO 47 2 min 0,000 mm 2,3 UV-I 511 W/m 17,4 C 28,9 C 3,2 km/h (1 Bft) 97,37 %
15.08.2017 16:46 28,9 C 23,3 C 50 % 1016,5 hPa 0,0 l/m 4,2 km/h (1 Bft) NO 56 2 min 0,000 mm 2,2 UV-I 505 W/m 17,4 C 28,9 C 8,0 km/h (2 Bft) 98,00 %
15.08.2017 16:48 28,8 C 23,3 C 47 % 1016,5 hPa 0,0 l/m 4,9 km/h (1 Bft) O-NO 57 2 min 0,000 mm 2,2 UV-I 502 W/m 16,3 C 28,8 C 9,7 km/h (2 Bft) 100,00 %
15.08.2017 16:50 28,8 C 23,3 C 49 % 1016,5 hPa 0,0 l/m 7,2 km/h (2 Bft) O-NO 57 2 min 0,000 mm 2,1 UV-I 496 W/m 17,0 C 28,7 C 12,9 km/h (3 Bft) 97,56 %
15.08.2017 16:52 28,8 C 23,3 C 47 % 1016,5 hPa 0,0 l/m 6,7 km/h (2 Bft) O-NO 67 2 min 0,000 mm 2,1 UV-I 490 W/m 16,3 C 28,8 C 9,7 km/h (2 Bft) 100,00 %
15.08.2017 16:54 28,7 C 23,3 C 48 % 1016,5 hPa 0,0 l/m 6,2 km/h (2 Bft) O 79 2 min 0,000 mm 2,1 UV-I 484 W/m 16,6 C 28,7 C 8,0 km/h (2 Bft) 100,00 %
15.08.2017 16:56 28,7 C 23,3 C 46 % 1016,5 hPa 0,0 l/m 2,2 km/h (1 Bft) NO 40 2 min 0,000 mm 2,0 UV-I 477 W/m 15,9 C 28,7 C 6,4 km/h (2 Bft) 100,00 %
15.08.2017 16:58 28,6 C 23,9 C 47 % 1016,4 hPa 0,0 l/m 7,7 km/h (2 Bft) NO 47 2 min 0,000 mm 2,0 UV-I 471 W/m 16,2 C 28,4 C 9,7 km/h (2 Bft) 98,36 %
15.08.2017 17:00 28,6 C 23,9 C 46 % 1016,4 hPa 0,0 l/m 6,0 km/h (2 Bft) NO 46 2 min 0,406 mm 1,9 UV-I 466 W/m 15,8 C 28,6 C 8,0 km/h (2 Bft) 97,62 %
15.08.2017 17:02 28,6 C 23,9 C 51 % 1016,4 hPa 0,0 l/m 3,7 km/h (1 Bft) NO 51 2 min 0,000 mm 1,9 UV-I 463 W/m 17,4 C 28,6 C 8,0 km/h (2 Bft) 100,00 %
15.08.2017 17:04 28,6 C 23,9 C 46 % 1016,3 hPa 0,0 l/m 4,0 km/h (1 Bft) O-NO 65 2 min 0,000 mm 1,8 UV-I 458 W/m 15,8 C 28,6 C 8,0 km/h (2 Bft) 100,00 %
15.08.2017 17:06 28,7 C 23,9 C 46 % 1016,4 hPa 0,0 l/m 8,5 km/h (2 Bft) O-NO 67 2 min 0,000 mm 1,8 UV-I 453 W/m 15,9 C 28,4 C 12,9 km/h (3 Bft) 100,00 %
15.08.2017 17:08 28,7 C 23,9 C 48 % 1016,4 hPa 0,0 l/m 7,1 km/h (2 Bft) O-NO 67 2 min 0,000 mm 1,8 UV-I 450 W/m 16,6 C 28,6 C 11,3 km/h (2 Bft) 100,00 %
15.08.2017 17:10 28,7 C 23,9 C 48 % 1016,4 hPa 0,0 l/m 6,6 km/h (2 Bft) O-NO 78 2 min 0,000 mm 1,7 UV-I 445 W/m 16,6 C 28,7 C 9,7 km/h (2 Bft) 100,00 %
15.08.2017 17:12 28,7 C 23,9 C 48 % 1016,3 hPa 0,0 l/m 4,5 km/h (1 Bft) O-NO 68 2 min 0,000 mm 1,7 UV-I 438 W/m 16,6 C 28,7 C 8,0 km/h (2 Bft) 100,00 %
15.08.2017 17:14 28,7 C 23,9 C 46 % 1016,3 hPa 0,0 l/m 6,6 km/h (2 Bft) O-NO 73 2 min 0,000 mm 1,6 UV-I 431 W/m 15,9 C 28,7 C 11,3 km/h (2 Bft) 100,00 %
15.08.2017 17:16 28,7 C 23,9 C 48 % 1016,3 hPa 0,0 l/m 4,5 km/h (1 Bft) NO 50 2 min 0,000 mm 1,6 UV-I 428 W/m 16,6 C 28,7 C 8,0 km/h (2 Bft) 100,00 %
15.08.2017 17:18 28,7 C 23,9 C 47 % 1016,3 hPa 0,0 l/m 6,2 km/h (2 Bft) NO 42 2 min 0,000 mm 1,5 UV-I 412 W/m 16,3 C 28,7 C 12,9 km/h (3 Bft) 100,00 %
15.08.2017 17:20 28,7 C 23,9 C 47 % 1016,3 hPa 0,0 l/m 5,4 km/h (1 Bft) O-NO 61 2 min 0,000 mm 1,4 UV-I 360 W/m 16,3 C 28,7 C 8,0 km/h (2 Bft) 100,00 %
15.08.2017 17:22 28,6 C 23,9 C 46 % 1016,3 hPa 0,0 l/m 3,4 km/h (1 Bft) O-NO 69 2 min 0,000 mm 1,4 UV-I 384 W/m 15,8 C 28,6 C 8,0 km/h (2 Bft) 98,00 %
15.08.2017 17:24 28,7 C 23,9 C 49 % 1016,3 hPa 0,0 l/m 7,9 km/h (2 Bft) O-NO 58 2 min 0,000 mm 1,4 UV-I 413 W/m 16,9 C 28,5 C 14,5 km/h (3 Bft) 96,00 %
15.08.2017 17:26 28,6 C 23,9 C 48 % 1016,3 hPa 0,0 l/m 7,1 km/h (2 Bft) NO 54 2 min 0,000 mm 1,4 UV-I 411 W/m 16,5 C 28,5 C 9,7 km/h (2 Bft) 97,56 %
15.08.2017 17:28 28,6 C 23,9 C 49 % 1016,3 hPa 0,0 l/m 7,6 km/h (2 Bft) O-NO 65 2 min 0,000 mm 1,4 UV-I 407 W/m 16,8 C 28,4 C 11,3 km/h (2 Bft) 98,00 %
15.08.2017 17:30 28,6 C 23,9 C 48 % 1016,3 hPa 0,0 l/m 6,3 km/h (2 Bft) O-SO 112 2 min 0,000 mm 1,3 UV-I 388 W/m 16,5 C 28,6 C 11,3 km/h (2 Bft) 97,56 %
15.08.2017 17:32 28,7 C 23,9 C 49 % 1016,3 hPa 0,0 l/m 4,6 km/h (1 Bft) O 101 2 min 0,000 mm 1,3 UV-I 343 W/m 16,9 C 28,7 C 6,4 km/h (2 Bft) 96,00 %
15.08.2017 17:34 28,6 C 23,9 C 46 % 1016,3 hPa 0,0 l/m 5,3 km/h (1 Bft) O-SO 103 2 min 0,000 mm 1,2 UV-I 289 W/m 15,8 C 28,6 C 9,7 km/h (2 Bft) 97,87 %
15.08.2017 17:36 28,5 C 23,9 C 48 % 1016,3 hPa 0,0 l/m 4,1 km/h (1 Bft) O-SO 103 2 min 0,000 mm 1,1 UV-I 275 W/m 16,4 C 28,5 C 6,4 km/h (2 Bft) 100,00 %
15.08.2017 17:38 28,4 C 23,9 C 48 % 1016,3 hPa 0,0 l/m 5,7 km/h (1 Bft) O-NO 68 2 min 0,000 mm 1,1 UV-I 273 W/m 16,3 C 28,4 C 12,9 km/h (3 Bft) 96,23 %
15.08.2017 17:40 28,4 C 23,9 C 46 % 1016,2 hPa 0,0 l/m 5,6 km/h (1 Bft) O-NO 70 2 min 0,000 mm 1,0 UV-I 232 W/m 15,6 C 28,4 C 8,0 km/h (2 Bft) 96,36 %
15.08.2017 17:42 28,3 C 23,9 C 47 % 1016,3 hPa 0,0 l/m 4,4 km/h (1 Bft) O 80 2 min 0,000 mm 1,0 UV-I 228 W/m 15,9 C 28,3 C 6,4 km/h (2 Bft) 97,62 %
15.08.2017 17:44 28,3 C 23,9 C 48 % 1016,3 hPa 0,0 l/m 5,6 km/h (1 Bft) O 81 2 min 0,000 mm 0,9 UV-I 229 W/m 16,2 C 28,3 C 9,7 km/h (2 Bft) 96,00 %
15.08.2017 17:46 28,2 C 23,9 C 47 % 1016,2 hPa 0,0 l/m 7,6 km/h (2 Bft) O-NO 76 0 min 0,000 mm 0,9 UV-I 220 W/m 15,8 C 28,0 C 11,3 km/h (2 Bft) 97,37 %
15.08.2017 17:48 28,2 C 23,9 C 47 % 1016,2 hPa 0,0 l/m 5,1 km/h (1 Bft) O-NO 59 0 min 0,000 mm 0,8 UV-I 185 W/m 15,8 C 28,2 C 8,0 km/h (2 Bft) 98,11 %
15.08.2017 17:50 28,2 C 23,9 C 49 % 1016,2 hPa 0,0 l/m 6,0 km/h (2 Bft) O-NO 72 2 min 0,000 mm 0,8 UV-I 220 W/m 16,5 C 28,2 C 8,0 km/h (2 Bft) 97,87 %
15.08.2017 17:52 28,1 C 23,9 C 48 % 1016,2 hPa 0,0 l/m 5,9 km/h (2 Bft) O-NO 69 2 min 0,000 mm 0,8 UV-I 278 W/m 16,0 C 28,1 C 8,0 km/h (2 Bft) 94,29 %
15.08.2017 17:54 28,1 C 23,9 C 48 % 1016,3 hPa 0,0 l/m 5,8 km/h (2 Bft) O-NO 74 0 min 0,000 mm 0,8 UV-I 192 W/m 16,0 C 28,1 C 8,0 km/h (2 Bft) 98,21 %
15.08.2017 17:56 28,1 C 23,9 C 49 % 1016,3 hPa 0,0 l/m 4,8 km/h (1 Bft) O-NO 78 0 min 0,000 mm 0,8 UV-I 201 W/m 16,4 C 28,1 C 6,4 km/h (2 Bft) 96,00 %
15.08.2017 17:58 28,0 C 23,9 C 51 % 1016,2 hPa 0,0 l/m 3,9 km/h (1 Bft) O-NO 78 2 min 0,000 mm 0,8 UV-I 225 W/m 16,9 C 28,0 C 6,4 km/h (2 Bft) 95,12 %
15.08.2017 18:00 28,0 C 23,9 C 50 % 1016,3 hPa 0,0 l/m 3,4 km/h (1 Bft) O-NO 69 2 min 0,280 mm 0,8 UV-I 210 W/m 16,6 C 28,0 C 6,4 km/h (2 Bft) 96,23 %
15.08.2017 18:02 28,0 C 23,9 C 48 % 1016,2 hPa 0,0 l/m 2,6 km/h (1 Bft) O-NO 70 2 min 0,000 mm 0,8 UV-I 234 W/m 15,9 C 28,0 C 4,8 km/h (1 Bft) 95,74 %
15.08.2017 18:04 28,1 C 23,9 C 49 % 1016,2 hPa 0,0 l/m 2,0 km/h (1 Bft) O-NO 70 2 min 0,000 mm 0,8 UV-I 251 W/m 16,4 C 28,1 C 3,2 km/h (1 Bft) 93,62 %
15.08.2017 18:06 28,1 C 23,9 C 50 % 1016,2 hPa 0,0 l/m 3,8 km/h (1 Bft) O 84 2 min 0,000 mm 0,8 UV-I 275 W/m 16,7 C 28,1 C 4,8 km/h (1 Bft) 95,74 %
15.08.2017 18:08 28,2 C 23,9 C 48 % 1016,2 hPa 0,0 l/m 5,3 km/h (1 Bft) O-NO 71 2 min 0,000 mm 0,7 UV-I 262 W/m 16,1 C 28,2 C 9,7 km/h (2 Bft) 95,12 %
15.08.2017 18:10 28,1 C 23,9 C 47 % 1016,2 hPa 0,0 l/m 6,5 km/h (2 Bft) O-NO 72 0 min 0,000 mm 0,6 UV-I 157 W/m 15,7 C 28,1 C 8,0 km/h (2 Bft) 96,23 %
15.08.2017 18:12 28,0 C 23,9 C 47 % 1016,2 hPa 0,0 l/m 6,8 km/h (2 Bft) O-NO 74 0 min 0,000 mm 0,6 UV-I 154 W/m 15,6 C 27,9 C 9,7 km/h (2 Bft) 94,74 %
15.08.2017 18:14 27,9 C 23,9 C 47 % 1016,2 hPa 0,0 l/m 6,6 km/h (2 Bft) O 86 2 min 0,000 mm 0,6 UV-I 214 W/m 15,5 C 27,9 C 11,3 km/h (2 Bft) 96,23 %
15.08.2017 18:16 27,9 C 23,9 C 50 % 1016,2 hPa 0,0 l/m 4,8 km/h (1 Bft) O 79 2 min 0,000 mm 0,6 UV-I 229 W/m 16,5 C 27,9 C 8,0 km/h (2 Bft) 92,45 %
15.08.2017 18:18 27,8 C 23,9 C 47 % 1016,1 hPa 0,0 l/m 5,9 km/h (2 Bft) O 84 0 min 0,000 mm 0,5 UV-I 173 W/m 15,4 C 27,8 C 8,0 km/h (2 Bft) 95,74 %
15.08.2017 18:20 27,8 C 23,9 C 48 % 1016,1 hPa 0,0 l/m 6,5 km/h (2 Bft) O-NO 73 2 min 0,000 mm 0,5 UV-I 185 W/m 15,8 C 27,8 C 8,0 km/h (2 Bft) 100,00 %
15.08.2017 18:23 27,8 C 23,9 C 49 % 1016,0 hPa 0,0 l/m 5,5 km/h (1 Bft) O-NO 74 3 min 0,000 mm 0,5 UV-I 189 W/m 16,1 C 27,8 C 8,0 km/h (2 Bft) 98,70 %
15.08.2017 18:24 27,8 C 23,9 C 49 % 1016,0 hPa 0,0 l/m 3,4 km/h (1 Bft) O-NO 74 0 min 0,000 mm 0,5 UV-I 164 W/m 16,1 C 27,8 C 4,8 km/h (1 Bft) 97,73 %
15.08.2017 18:26 27,7 C 23,9 C 49 % 1016,0 hPa 0,0 l/m 4,6 km/h (1 Bft) O-NO 76 2 min 0,000 mm 0,5 UV-I 169 W/m 16,0 C 27,7 C 6,4 km/h (2 Bft) 97,87 %
15.08.2017 18:28 27,7 C 23,9 C 51 % 1016,0 hPa 0,0 l/m 4,8 km/h (1 Bft) O-NO 61 2 min 0,000 mm 0,3 UV-I 167 W/m 16,6 C 27,7 C 6,4 km/h (2 Bft) 95,45 %
15.08.2017 18:30 27,6 C 23,9 C 51 % 1016,0 hPa 0,0 l/m 4,2 km/h (1 Bft) O-NO 67 0 min 0,000 mm 0,0 UV-I 138 W/m 16,5 C 27,6 C 6,4 km/h (2 Bft) 97,87 %
15.08.2017 18:32 27,5 C 23,9 C 52 % 1016,0 hPa 0,0 l/m 3,5 km/h (1 Bft) O-NO 67 0 min 0,000 mm 0,0 UV-I 125 W/m 16,7 C 27,5 C 6,4 km/h (2 Bft) 96,23 %
15.08.2017 18:34 27,3 C 23,9 C 52 % 1016,1 hPa 0,0 l/m 4,3 km/h (1 Bft) O-NO 67 0 min 0,000 mm 0,0 UV-I 104 W/m 16,6 C 27,3 C 6,4 km/h (2 Bft) 97,87 %
15.08.2017 18:36 27,2 C 23,9 C 53 % 1016,0 hPa 0,0 l/m 3,3 km/h (1 Bft) O-NO 67 0 min 0,000 mm 0,0 UV-I 99 W/m 16,8 C 27,2 C 6,4 km/h (2 Bft) 98,00 %
15.08.2017 18:38 27,1 C 23,9 C 55 % 1016,0 hPa 0,0 l/m 2,9 km/h (1 Bft) O-NO 70 0 min 0,000 mm 0,0 UV-I 94 W/m 17,3 C 27,1 C 4,8 km/h (1 Bft) 100,00 %
15.08.2017 18:40 27,1 C 23,9 C 54 % 1016,0 hPa 0,0 l/m 3,5 km/h (1 Bft) O-NO 71 0 min 0,000 mm 0,0 UV-I 91 W/m 17,0 C 27,1 C 6,4 km/h (2 Bft) 100,00 %
15.08.2017 18:42 26,9 C 23,9 C 54 % 1016,0 hPa 0,0 l/m 3,2 km/h (1 Bft) O-NO 71 0 min 0,000 mm 0,0 UV-I 88 W/m 16,8 C 26,9 C 4,8 km/h (1 Bft) 100,00 %
15.08.2017 18:44 26,9 C 23,9 C 54 % 1016,1 hPa 0,0 l/m 4,1 km/h (1 Bft) O-NO 72 0 min 0,000 mm 0,0 UV-I 84 W/m 16,8 C 26,9 C 6,4 km/h (2 Bft) 100,00 %
15.08.2017 18:46 26,8 C 23,9 C 55 % 1016,1 hPa 0,0 l/m 2,7 km/h (1 Bft) O-NO 72 0 min 0,000 mm 0,0 UV-I 83 W/m 17,0 C 26,8 C 4,8 km/h (1 Bft) 100,00 %
15.08.2017 18:48 26,8 C 23,9 C 55 % 1016,1 hPa 0,0 l/m 2,9 km/h (1 Bft) O-NO 72 0 min 0,000 mm 0,0 UV-I 89 W/m 17,0 C 26,8 C 4,8 km/h (1 Bft) 100,00 %
15.08.2017 18:50 26,8 C 23,9 C 55 % 1016,1 hPa 0,0 l/m 2,3 km/h (1 Bft) O-NO 72 2 min 0,000 mm 0,0 UV-I 130 W/m 17,0 C 26,8 C 4,8 km/h (1 Bft) 100,00 %
15.08.2017 18:52 26,8 C 23,9 C 58 % 1016,1 hPa 0,0 l/m 2,4 km/h (1 Bft) O-NO 72 2 min 0,000 mm 0,0 UV-I 150 W/m 17,8 C 26,8 C 4,8 km/h (1 Bft) 100,00 %
15.08.2017 18:54 26,8 C 23,9 C 60 % 1016,1 hPa 0,0 l/m 1,8 km/h (1 Bft) O-NO 72 2 min 0,000 mm 0,0 UV-I 123 W/m 18,4 C 26,8 C 3,2 km/h (1 Bft) 100,00 %
15.08.2017 18:56 26,8 C 23,9 C 57 % 1016,1 hPa 0,0 l/m 1,6 km/h (1 Bft) O-NO 72 2 min 0,000 mm 0,0 UV-I 139 W/m 17,6 C 26,8 C 3,2 km/h (1 Bft) 100,00 %
15.08.2017 18:58 26,8 C 23,9 C 60 % 1016,1 hPa 0,0 l/m 1,7 km/h (1 Bft) O-NO 72 2 min 0,000 mm 0,0 UV-I 149 W/m 18,4 C 26,8 C 3,2 km/h (1 Bft) 100,00 %
15.08.2017 19:00 26,9 C 23,9 C 56 % 1016,1 hPa 0,0 l/m 0,8 km/h (0 Bft) O-NO 72 2 min 0,152 mm 0,0 UV-I 160 W/m 17,4 C 26,9 C 3,2 km/h (1 Bft) 100,00 %
15.08.2017 19:02 26,9 C 23,9 C 60 % 1016,1 hPa 0,0 l/m 2,0 km/h (1 Bft) O-NO 72 2 min 0,000 mm 0,0 UV-I 167 W/m 18,5 C 26,9 C 4,8 km/h (1 Bft) 97,92 %
15.08.2017 19:04 27,0 C 23,9 C 62 % 1016,1 hPa 0,0 l/m 2,5 km/h (1 Bft) O-NO 72 2 min 0,000 mm 0,0 UV-I 164 W/m 19,1 C 27,0 C 4,8 km/h (1 Bft) 100,00 %
15.08.2017 19:06 27,1 C 23,9 C 56 % 1016,1 hPa 0,0 l/m 4,0 km/h (1 Bft) O-NO 72 2 min 0,000 mm 0,0 UV-I 160 W/m 17,5 C 27,1 C 4,8 km/h (1 Bft) 100,00 %
15.08.2017 19:08 27,1 C 23,9 C 54 % 1016,1 hPa 0,0 l/m 3,5 km/h (1 Bft) O-NO 72 2 min 0,000 mm 0,0 UV-I 156 W/m 17,0 C 27,1 C 6,4 km/h (2 Bft) 100,00 %
15.08.2017 19:10 27,2 C 23,9 C 54 % 1016,1 hPa 0,0 l/m 2,0 km/h (1 Bft) O-NO 72 2 min 0,000 mm 0,0 UV-I 152 W/m 17,1 C 27,2 C 4,8 km/h (1 Bft) 100,00 %
15.08.2017 19:12 27,2 C 23,9 C 54 % 1016,1 hPa 0,0 l/m 2,3 km/h (1 Bft) O-NO 72 2 min 0,000 mm 0,0 UV-I 147 W/m 17,1 C 27,2 C 3,2 km/h (1 Bft) 100,00 %
15.08.2017 19:14 27,2 C 23,9 C 55 % 1016,1 hPa 0,0 l/m 1,8 km/h (1 Bft) O-NO 72 2 min 0,000 mm 0,0 UV-I 142 W/m 17,4 C 27,2 C 3,2 km/h (1 Bft) 100,00 %
15.08.2017 19:16 27,2 C 23,9 C 56 % 1016,1 hPa 0,0 l/m 1,5 km/h (1 Bft) O-NO 72 2 min 0,000 mm 0,0 UV-I 138 W/m 17,6 C 27,2 C 3,2 km/h (1 Bft) 100,00 %
15.08.2017 19:18 27,1 C 23,9 C 55 % 1016,1 hPa 0,0 l/m 0,9 km/h (0 Bft) O-NO 72 2 min 0,000 mm 0,0 UV-I 134 W/m 17,3 C 27,1 C 3,2 km/h (1 Bft) 97,87 %
15.08.2017 19:20 27,1 C 23,9 C 56 % 1016,1 hPa 0,0 l/m 2,1 km/h (1 Bft) O-NO 72 2 min 0,000 mm 0,0 UV-I 130 W/m 17,5 C 27,1 C 3,2 km/h (1 Bft) 100,00 %
15.08.2017 19:22 27,1 C 23,9 C 56 % 1016,1 hPa 0,0 l/m 1,7 km/h (1 Bft) O-NO 72 2 min 0,000 mm 0,0 UV-I 123 W/m 17,5 C 27,1 C 3,2 km/h (1 Bft) 100,00 %
15.08.2017 19:24 27,1 C 23,9 C 56 % 1016,1 hPa 0,0 l/m 0,7 km/h (0 Bft) O-NO 72 2 min 0,000 mm 0,0 UV-I 120 W/m 17,5 C 27,1 C 3,2 km/h (1 Bft) 98,00 %
15.08.2017 19:26 27,0 C 23,9 C 55 % 1016,1 hPa 0,0 l/m 2,5 km/h (1 Bft) O-NO 72 2 min 0,000 mm 0,0 UV-I 114 W/m 17,2 C 27,0 C 4,8 km/h (1 Bft) 100,00 %
15.08.2017 19:28 27,0 C 23,9 C 54 % 1016,2 hPa 0,0 l/m 3,0 km/h (1 Bft) O-NO 72 2 min 0,000 mm 0,0 UV-I 107 W/m 16,9 C 27,0 C 4,8 km/h (1 Bft) 100,00 %
15.08.2017 19:30 27,0 C 23,9 C 56 % 1016,1 hPa 0,0 l/m 3,2 km/h (1 Bft) O-NO 72 2 min 0,000 mm 0,0 UV-I 97 W/m 17,5 C 27,0 C 4,8 km/h (1 Bft) 100,00 %
15.08.2017 19:32 26,9 C 23,9 C 55 % 1016,1 hPa 0,0 l/m 3,3 km/h (1 Bft) O-NO 72 2 min 0,000 mm 0,0 UV-I 78 W/m 17,1 C 26,9 C 6,4 km/h (2 Bft) 97,87 %
15.08.2017 19:34 26,8 C 23,9 C 56 % 1016,2 hPa 0,0 l/m 2,7 km/h (1 Bft) O-NO 72 2 min 0,000 mm 0,0 UV-I 81 W/m 17,3 C 26,8 C 4,8 km/h (1 Bft) 98,00 %
15.08.2017 19:36 26,8 C 23,9 C 57 % 1016,1 hPa 0,0 l/m 2,3 km/h (1 Bft) O-NO 72 2 min 0,000 mm 0,0 UV-I 76 W/m 17,6 C 26,8 C 4,8 km/h (1 Bft) 100,00 %
15.08.2017 19:38 26,7 C 23,9 C 57 % 1016,2 hPa 0,0 l/m 2,7 km/h (1 Bft) O-NO 72 2 min 0,000 mm 0,0 UV-I 70 W/m 17,5 C 26,7 C 4,8 km/h (1 Bft) 97,92 %
15.08.2017 19:40 26,6 C 23,9 C 59 % 1016,2 hPa 0,0 l/m 2,2 km/h (1 Bft) O-NO 72 2 min 0,000 mm 0,0 UV-I 58 W/m 17,9 C 26,6 C 3,2 km/h (1 Bft) 100,00 %
15.08.2017 19:42 26,5 C 23,9 C 57 % 1016,2 hPa 0,0 l/m 1,8 km/h (1 Bft) O-NO 72 2 min 0,000 mm 0,0 UV-I 51 W/m 17,3 C 26,5 C 3,2 km/h (1 Bft) 100,00 %
15.08.2017 19:44 26,4 C 23,9 C 57 % 1016,2 hPa 0,0 l/m 2,4 km/h (1 Bft) O-NO 72 2 min 0,000 mm 0,0 UV-I 44 W/m 17,2 C 26,4 C 4,8 km/h (1 Bft) 98,11 %
15.08.2017 19:46 26,3 C 23,9 C 59 % 1016,1 hPa 0,0 l/m 2,0 km/h (1 Bft) O-NO 72 0 min 0,000 mm 0,0 UV-I 38 W/m 17,6 C 26,3 C 3,2 km/h (1 Bft) 100,00 %
15.08.2017 19:48 26,2 C 23,9 C 59 % 1016,1 hPa 0,0 l/m 2,6 km/h (1 Bft) O-NO 72 0 min 0,000 mm 0,0 UV-I 33 W/m 17,5 C 26,2 C 3,2 km/h (1 Bft) 97,37 %
15.08.2017 19:50 25,9 C 23,9 C 61 % 1016,1 hPa 0,0 l/m 2,1 km/h (1 Bft) O-NO 72 0 min 0,000 mm 0,0 UV-I 29 W/m 17,8 C 25,9 C 3,2 km/h (1 Bft) 98,00 %
15.08.2017 19:52 25,8 C 23,9 C 61 % 1016,1 hPa 0,0 l/m 0,7 km/h (0 Bft) O-NO 72 0 min 0,000 mm 0,0 UV-I 25 W/m 17,7 C 25,8 C 3,2 km/h (1 Bft) 98,11 %
15.08.2017 19:54 25,6 C 23,9 C 59 % 1016,1 hPa 0,0 l/m 0,0 km/h (0 Bft) O-NO 72 0 min 0,000 mm 0,0 UV-I 23 W/m 17,0 C 25,6 C 0,0 km/h (0 Bft) 97,37 %
15.08.2017 19:56 25,4 C 23,9 C 60 % 1016,1 hPa 0,0 l/m 0,6 km/h (0 Bft) O-NO 72 0 min 0,000 mm 0,0 UV-I 19 W/m 17,1 C 25,4 C 1,6 km/h (1 Bft) 97,87 %
15.08.2017 19:58 25,4 C 23,9 C 61 % 1016,1 hPa 0,0 l/m 0,4 km/h (0 Bft) O-NO 72 0 min 0,000 mm 0,0 UV-I 17 W/m 17,3 C 25,4 C 1,6 km/h (1 Bft) 98,21 %
15.08.2017 20:00 25,3 C 23,9 C 63 % 1016,1 hPa 0,0 l/m 1,7 km/h (1 Bft) O-NO 72 0 min 0,076 mm 0,0 UV-I 14 W/m 17,7 C 25,3 C 3,2 km/h (1 Bft) 97,37 %
15.08.2017 20:02 25,2 C 23,9 C 66 % 1016,1 hPa 0,0 l/m 1,7 km/h (1 Bft) O-NO 72 0 min 0,000 mm 0,0 UV-I 12 W/m 18,4 C 25,2 C 3,2 km/h (1 Bft) 96,00 %
15.08.2017 20:04 24,9 C 23,9 C 70 % 1016,0 hPa 0,0 l/m 2,4 km/h (1 Bft) O-NO 72 0 min 0,000 mm 0,0 UV-I 11 W/m 19,0 C 24,9 C 4,8 km/h (1 Bft) 96,00 %
15.08.2017 20:06 24,7 C 23,9 C 71 % 1016,0 hPa 0,0 l/m 2,8 km/h (1 Bft) O-NO 72 2 min 0,000 mm 0,0 UV-I 10 W/m 19,1 C 24,7 C 4,8 km/h (1 Bft) 97,56 %
15.08.2017 20:08 24,4 C 23,9 C 71 % 1016,0 hPa 0,0 l/m 3,0 km/h (1 Bft) O-NO 72 0 min 0,000 mm 0,0 UV-I 9 W/m 18,8 C 24,4 C 4,8 km/h (1 Bft) 95,74 %
15.08.2017 20:10 24,3 C 23,9 C 69 % 1016,0 hPa 0,0 l/m 3,7 km/h (1 Bft) O-NO 72 0 min 0,000 mm 0,0 UV-I 9 W/m 18,2 C 24,3 C 4,8 km/h (1 Bft) 97,44 %
15.08.2017 20:12 24,2 C 23,9 C 68 % 1015,9 hPa 0,0 l/m 4,0 km/h (1 Bft) O-NO 72 0 min 0,000 mm 0,0 UV-I 7 W/m 17,9 C 24,2 C 4,8 km/h (1 Bft) 98,18 %
15.08.2017 20:14 24,2 C 23,9 C 66 % 1015,8 hPa 0,0 l/m 4,6 km/h (1 Bft) O-NO 72 0 min 0,000 mm 0,0 UV-I 7 W/m 17,4 C 24,2 C 6,4 km/h (2 Bft) 97,92 %
15.08.2017 20:16 24,3 C 23,9 C 64 % 1015,8 hPa 0,0 l/m 5,1 km/h (1 Bft) O-NO 72 0 min 0,000 mm 0,0 UV-I 7 W/m 17,0 C 24,3 C 6,4 km/h (2 Bft) 98,08 %
15.08.2017 20:18 24,3 C 23,9 C 62 % 1015,8 hPa 0,0 l/m 4,8 km/h (1 Bft) O-NO 72 0 min 0,000 mm 0,0 UV-I 7 W/m 16,5 C 24,3 C 4,8 km/h (1 Bft) 88,89 %
15.08.2017 20:20 24,4 C 23,9 C 62 % 1015,8 hPa 0,0 l/m 3,5 km/h (1 Bft) O-NO 72 0 min 0,000 mm 0,0 UV-I 5 W/m 16,6 C 24,4 C 4,8 km/h (1 Bft) 100,00 %
15.08.2017 20:22 24,5 C 23,9 C 62 % 1015,8 hPa 0,0 l/m 2,9 km/h (1 Bft) O-NO 72 0 min 0,000 mm 0,0 UV-I 5 W/m 16,7 C 24,5 C 4,8 km/h (1 Bft) 96,00 %
15.08.2017 20:24 24,5 C 23,9 C 66 % 1015,8 hPa 0,0 l/m 2,4 km/h (1 Bft) O-NO 72 0 min 0,000 mm 0,0 UV-I 5 W/m 17,7 C 24,5 C 6,4 km/h (2 Bft) 100,00 %
15.08.2017 20:26 24,3 C 23,9 C 66 % 1015,7 hPa 0,0 l/m 4,1 km/h (1 Bft) O-NO 72 0 min 0,000 mm 0,0 UV-I 5 W/m 17,5 C 24,3 C 6,4 km/h (2 Bft) 97,87 %
15.08.2017 20:28 24,1 C 23,9 C 67 % 1015,7 hPa 0,0 l/m 3,8 km/h (1 Bft) O-NO 72 0 min 0,000 mm 0,0 UV-I 5 W/m 17,6 C 24,1 C 4,8 km/h (1 Bft) 98,00 %
15.08.2017 20:30 23,9 C 23,3 C 66 % 1015,7 hPa 0,0 l/m 5,1 km/h (1 Bft) O 82 0 min 0,000 mm 0,0 UV-I 1 W/m 17,1 C 23,9 C 8,0 km/h (2 Bft) 100,00 %
15.08.2017 20:33 23,8 C 23,9 C 66 % 1015,8 hPa 0,0 l/m 5,2 km/h (1 Bft) O-NO 73 0 min 0,000 mm 0,0 UV-I 0 W/m 17,1 C 23,8 C 8,0 km/h (2 Bft) 98,46 %
15.08.2017 20:34 23,8 C 23,9 C 64 % 1015,8 hPa 0,0 l/m 4,7 km/h (1 Bft) O 94 0 min 0,000 mm 0,0 UV-I 0 W/m 16,6 C 23,8 C 6,4 km/h (2 Bft) 100,00 %
15.08.2017 20:36 23,8 C 23,9 C 65 % 1015,7 hPa 0,0 l/m 4,3 km/h (1 Bft) O 94 0 min 0,000 mm 0,0 UV-I 0 W/m 16,8 C 23,8 C 6,4 km/h (2 Bft) 98,11 %
15.08.2017 20:38 23,8 C 23,3 C 66 % 1015,8 hPa 0,0 l/m 3,1 km/h (1 Bft) O 94 0 min 0,000 mm 0,0 UV-I 0 W/m 17,1 C 23,8 C 4,8 km/h (1 Bft) 100,00 %
15.08.2017 20:40 23,8 C 23,3 C 66 % 1015,7 hPa 0,0 l/m 4,9 km/h (1 Bft) O 80 0 min 0,000 mm 0,0 UV-I 0 W/m 17,1 C 23,8 C 8,0 km/h (2 Bft) 100,00 %
15.08.2017 20:42 23,8 C 23,3 C 66 % 1015,7 hPa 0,0 l/m 4,7 km/h (1 Bft) O-NO 76 0 min 0,000 mm 0,0 UV-I 0 W/m 17,1 C 23,8 C 6,4 km/h (2 Bft) 100,00 %
15.08.2017 20:44 23,8 C 23,3 C 65 % 1015,7 hPa 0,0 l/m 5,3 km/h (1 Bft) O 89 0 min 0,000 mm 0,0 UV-I 0 W/m 16,8 C 23,8 C 6,4 km/h (2 Bft) 100,00 %
15.08.2017 20:46 23,8 C 23,3 C 66 % 1015,8 hPa 0,0 l/m 5,0 km/h (1 Bft) O 90 0 min 0,000 mm 0,0 UV-I 0 W/m 17,1 C 23,8 C 9,7 km/h (2 Bft) 100,00 %
15.08.2017 20:48 23,6 C 23,3 C 68 % 1015,8 hPa 0,0 l/m 4,2 km/h (1 Bft) O 93 0 min 0,000 mm 0,0 UV-I 0 W/m 17,3 C 23,6 C 6,4 km/h (2 Bft) 98,21 %
15.08.2017 20:50 23,4 C 23,3 C 68 % 1015,8 hPa 0,0 l/m 4,1 km/h (1 Bft) O 93 0 min 0,000 mm 0,0 UV-I 0 W/m 17,1 C 23,4 C 6,4 km/h (2 Bft) 100,00 %
15.08.2017 20:52 23,2 C 23,3 C 69 % 1015,8 hPa 0,0 l/m 4,8 km/h (1 Bft) O-NO 78 0 min 0,000 mm 0,0 UV-I 0 W/m 17,2 C 23,2 C 11,3 km/h (2 Bft) 97,56 %
15.08.2017 20:54 23,1 C 23,3 C 69 % 1015,7 hPa 0,0 l/m 3,1 km/h (1 Bft) O 101 0 min 0,000 mm 0,0 UV-I 0 W/m 17,1 C 23,1 C 4,8 km/h (1 Bft) 98,00 %
15.08.2017 20:56 22,9 C 23,3 C 69 % 1015,8 hPa 0,0 l/m 3,2 km/h (1 Bft) O 101 0 min 0,000 mm 0,0 UV-I 0 W/m 16,9 C 22,9 C 4,8 km/h (1 Bft) 100,00 %
15.08.2017 20:58 22,8 C 23,3 C 69 % 1015,8 hPa 0,0 l/m 2,0 km/h (1 Bft) O 101 0 min 0,000 mm 0,0 UV-I 0 W/m 16,8 C 22,8 C 3,2 km/h (1 Bft) 100,00 %
15.08.2017 21:00 22,7 C 23,3 C 71 % 1015,8 hPa 0,0 l/m 2,1 km/h (1 Bft) O 101 0 min 0,026 mm 0,0 UV-I 0 W/m 17,2 C 22,7 C 3,2 km/h (1 Bft) 100,00 %
15.08.2017 21:03 22,4 C 23,3 C 73 % 1015,8 hPa 0,0 l/m 2,5 km/h (1 Bft) O 101 0 min 0,000 mm 0,0 UV-I 0 W/m 17,3 C 22,4 C 3,2 km/h (1 Bft) 100,00 %
15.08.2017 21:04 22,3 C 23,3 C 72 % 1015,8 hPa 0,0 l/m 2,4 km/h (1 Bft) O 101 0 min 0,000 mm 0,0 UV-I 0 W/m 17,0 C 22,3 C 3,2 km/h (1 Bft) 100,00 %
15.08.2017 21:06 22,2 C 23,3 C 74 % 1015,7 hPa 0,0 l/m 4,7 km/h (1 Bft) O 88 0 min 0,000 mm 0,0 UV-I 0 W/m 17,3 C 22,2 C 6,4 km/h (2 Bft) 100,00 %
15.08.2017 21:08 22,1 C 23,3 C 74 % 1015,7 hPa 0,0 l/m 4,8 km/h (1 Bft) O-NO 78 0 min 0,000 mm 0,0 UV-I 0 W/m 17,2 C 22,1 C 6,4 km/h (2 Bft) 94,87 %
15.08.2017 21:10 22,2 C 23,3 C 71 % 1015,7 hPa 0,0 l/m 5,7 km/h (1 Bft) O-NO 73 0 min 0,000 mm 0,0 UV-I 0 W/m 16,7 C 22,2 C 8,0 km/h (2 Bft) 100,00 %
15.08.2017 21:12 22,4 C 23,3 C 70 % 1015,7 hPa 0,0 l/m 6,0 km/h (2 Bft) O-NO 73 0 min 0,000 mm 0,0 UV-I 0 W/m 16,7 C 22,4 C 8,0 km/h (2 Bft) 100,00 %
15.08.2017 21:14 22,6 C 23,3 C 70 % 1015,7 hPa 0,0 l/m 5,3 km/h (1 Bft) O 80 0 min 0,000 mm 0,0 UV-I 0 W/m 16,8 C 22,6 C 8,0 km/h (2 Bft) 94,87 %
15.08.2017 21:16 22,8 C 23,3 C 70 % 1015,7 hPa 0,0 l/m 5,4 km/h (1 Bft) O-NO 76 0 min 0,000 mm 0,0 UV-I 0 W/m 17,0 C 22,8 C 8,0 km/h (2 Bft) 98,11 %
15.08.2017 21:18 22,8 C 23,3 C 71 % 1015,6 hPa 0,0 l/m 4,5 km/h (1 Bft) O 86 0 min 0,000 mm 0,0 UV-I 0 W/m 17,3 C 22,8 C 6,4 km/h (2 Bft) 97,87 %
15.08.2017 21:20 22,7 C 23,3 C 71 % 1015,6 hPa 0,0 l/m 4,8 km/h (1 Bft) O-NO 71 0 min 0,000 mm 0,0 UV-I 0 W/m 17,2 C 22,7 C 6,4 km/h (2 Bft) 97,56 %
15.08.2017 21:22 22,6 C 23,3 C 72 % 1015,6 hPa 0,0 l/m 5,1 km/h (1 Bft) O 87 0 min 0,000 mm 0,0 UV-I 0 W/m 17,3 C 22,6 C 6,4 km/h (2 Bft) 97,73 %
15.08.2017 21:24 22,4 C 23,3 C 72 % 1015,6 hPa 0,0 l/m 4,8 km/h (1 Bft) O-NO 63 0 min 0,000 mm 0,0 UV-I 0 W/m 17,1 C 22,4 C 9,7 km/h (2 Bft) 96,00 %
15.08.2017 21:26 22,3 C 23,3 C 72 % 1015,7 hPa 0,0 l/m 4,7 km/h (1 Bft) O-NO 69 0 min 0,000 mm 0,0 UV-I 0 W/m 17,0 C 22,3 C 8,0 km/h (2 Bft) 96,00 %
15.08.2017 21:28 22,3 C 23,3 C 72 % 1015,8 hPa 0,0 l/m 4,7 km/h (1 Bft) O-NO 67 0 min 0,000 mm 0,0 UV-I 0 W/m 17,0 C 22,3 C 6,4 km/h (2 Bft) 97,37 %
15.08.2017 21:30 22,3 C 23,3 C 72 % 1015,8 hPa 0,0 l/m 3,0 km/h (1 Bft) O-NO 67 0 min 0,000 mm 0,0 UV-I 0 W/m 17,0 C 22,3 C 4,8 km/h (1 Bft) 94,34 %
15.08.2017 21:32 22,4 C 23,3 C 71 % 1015,9 hPa 0,0 l/m 2,0 km/h (1 Bft) O-NO 67 0 min 0,000 mm 0,0 UV-I 0 W/m 16,9 C 22,4 C 4,8 km/h (1 Bft) 98,11 %
15.08.2017 21:34 22,3 C 23,3 C 73 % 1015,9 hPa 0,0 l/m 0,0 km/h (0 Bft) O-NO 67 0 min 0,000 mm 0,0 UV-I 0 W/m 17,2 C 22,3 C 1,6 km/h (1 Bft) 97,87 %
15.08.2017 21:36 22,1 C 23,3 C 75 % 1015,9 hPa 0,0 l/m 0,0 km/h (0 Bft) O-NO 67 0 min 0,000 mm 0,0 UV-I 0 W/m 17,5 C 22,1 C 0,0 km/h (0 Bft) 97,37 %
15.08.2017 21:38 21,9 C 23,3 C 76 % 1016,0 hPa 0,0 l/m 0,0 km/h (0 Bft) O-NO 67 0 min 0,000 mm 0,0 UV-I 0 W/m 17,5 C 21,9 C 0,0 km/h (0 Bft) 98,21 %
15.08.2017 21:40 21,6 C 23,3 C 77 % 1016,1 hPa 0,0 l/m 0,0 km/h (0 Bft) O-NO 67 0 min 0,000 mm 0,0 UV-I 0 W/m 17,4 C 21,6 C 0,0 km/h (0 Bft) 97,37 %
15.08.2017 21:42 21,4 C 23,3 C 78 % 1016,0 hPa 0,0 l/m 0,0 km/h (0 Bft) O-NO 67 0 min 0,000 mm 0,0 UV-I 0 W/m 17,4 C 21,4 C 0,0 km/h (0 Bft) 98,00 %
15.08.2017 21:44 21,2 C 23,3 C 79 % 1016,1 hPa 0,0 l/m 0,0 km/h (0 Bft) O-NO 67 0 min 0,000 mm 0,0 UV-I 0 W/m 17,4 C 21,2 C 0,0 km/h (0 Bft) 98,00 %
15.08.2017 21:46 21,1 C 23,3 C 80 % 1016,1 hPa 0,0 l/m 0,0 km/h (0 Bft) O-NO 67 0 min 0,000 mm 0,0 UV-I 0 W/m 17,5 C 21,1 C 0,0 km/h (0 Bft) 95,12 %
15.08.2017 21:48 20,9 C 23,3 C 80 % 1016,1 hPa 0,0 l/m 0,0 km/h (0 Bft) O-NO 67 0 min 0,000 mm 0,0 UV-I 0 W/m 17,3 C 20,9 C 0,0 km/h (0 Bft) 96,00 %
15.08.2017 21:50 20,8 C 23,3 C 81 % 1016,1 hPa 0,0 l/m 0,0 km/h (0 Bft) O-NO 67 0 min 0,000 mm 0,0 UV-I 0 W/m 17,4 C 20,8 C 0,0 km/h (0 Bft) 94,00 %
15.08.2017 21:52 20,7 C 23,3 C 80 % 1016,1 hPa 0,0 l/m 0,0 km/h (0 Bft) O-NO 67 0 min 0,000 mm 0,0 UV-I 0 W/m 17,1 C 20,7 C 0,0 km/h (0 Bft) 95,74 %
15.08.2017 21:54 20,7 C 23,3 C 81 % 1016,1 hPa 0,0 l/m 0,0 km/h (0 Bft) O-NO 67 0 min 0,000 mm 0,0 UV-I 0 W/m 17,3 C 20,7 C 0,0 km/h (0 Bft) 95,83 %
15.08.2017 21:56 20,7 C 23,3 C 81 % 1016,2 hPa 0,0 l/m 0,0 km/h (0 Bft) O-NO 67 0 min 0,000 mm 0,0 UV-I 0 W/m 17,3 C 20,7 C 0,0 km/h (0 Bft) 95,74 %
15.08.2017 21:58 20,7 C 23,3 C 81 % 1016,1 hPa 0,0 l/m 0,0 km/h (0 Bft) O-NO 67 0 min 0,000 mm 0,0 UV-I 0 W/m 17,3 C 20,7 C 0,0 km/h (0 Bft) 93,62 %
15.08.2017 22:00 20,7 C 23,3 C 81 % 1016,2 hPa 0,0 l/m 0,0 km/h (0 Bft) O-NO 67 0 min 0,025 mm 0,0 UV-I 0 W/m 17,3 C 20,7 C 0,0 km/h (0 Bft) 93,62 %
15.08.2017 22:02 20,7 C 23,3 C 81 % 1016,2 hPa 0,0 l/m 0,0 km/h (0 Bft) O-NO 67 0 min 0,000 mm 0,0 UV-I 0 W/m 17,3 C 20,7 C 0,0 km/h (0 Bft) 94,74 %
15.08.2017 22:04 20,5 C 23,3 C 81 % 1016,3 hPa 0,0 l/m 0,0 km/h (0 Bft) O-NO 67 0 min 0,000 mm 0,0 UV-I 0 W/m 17,1 C 20,5 C 0,0 km/h (0 Bft) 94,34 %
15.08.2017 22:06 20,4 C 23,3 C 81 % 1016,2 hPa 0,0 l/m 0,0 km/h (0 Bft) O-NO 67 0 min 0,000 mm 0,0 UV-I 0 W/m 17,0 C 20,4 C 0,0 km/h (0 Bft) 95,74 %
15.08.2017 22:08 20,3 C 23,3 C 81 % 1016,2 hPa 0,0 l/m 0,0 km/h (0 Bft) O-NO 67 0 min 0,000 mm 0,0 UV-I 0 W/m 16,9 C 20,3 C 0,0 km/h (0 Bft) 94,74 %
15.08.2017 22:10 20,3 C 23,3 C 81 % 1016,3 hPa 0,0 l/m 0,0 km/h (0 Bft) O-NO 67 0 min 0,000 mm 0,0 UV-I 0 W/m 16,9 C 20,3 C 0,0 km/h (0 Bft) 94,34 %
15.08.2017 22:12 20,3 C 23,3 C 81 % 1016,3 hPa 0,0 l/m 0,2 km/h (0 Bft) O-NO 67 0 min 0,000 mm 0,0 UV-I 0 W/m 16,9 C 20,3 C 1,6 km/h (1 Bft) 93,62 %
15.08.2017 22:14 20,2 C 23,3 C 80 % 1016,3 hPa 0,0 l/m 0,0 km/h (0 Bft) O-NO 67 0 min 0,000 mm 0,0 UV-I 0 W/m 16,6 C 20,2 C 0,0 km/h (0 Bft) 94,74 %
15.08.2017 22:16 20,3 C 23,3 C 81 % 1016,4 hPa 0,0 l/m 0,7 km/h (0 Bft) O-NO 67 0 min 0,000 mm 0,0 UV-I 0 W/m 16,9 C 20,3 C 3,2 km/h (1 Bft) 94,64 %
15.08.2017 22:18 20,3 C 23,3 C 82 % 1016,4 hPa 0,0 l/m 2,3 km/h (1 Bft) O-NO 67 0 min 0,000 mm 0,0 UV-I 0 W/m 17,1 C 20,3 C 3,2 km/h (1 Bft) 97,37 %
15.08.2017 22:20 20,2 C 23,3 C 82 % 1016,5 hPa 0,0 l/m 3,1 km/h (1 Bft) O-NO 67 0 min 0,000 mm 0,0 UV-I 0 W/m 17,0 C 20,2 C 4,8 km/h (1 Bft) 96,23 %
15.08.2017 22:22 20,2 C 23,3 C 82 % 1016,5 hPa 0,0 l/m 2,6 km/h (1 Bft) O-NO 67 0 min 0,000 mm 0,0 UV-I 0 W/m 17,0 C 20,2 C 3,2 km/h (1 Bft) 97,44 %
15.08.2017 22:24 20,0 C 23,3 C 83 % 1016,4 hPa 0,0 l/m 1,3 km/h (1 Bft) O-NO 67 0 min 0,000 mm 0,0 UV-I 0 W/m 17,0 C 20,0 C 3,2 km/h (1 Bft) 98,08 %
15.08.2017 22:26 19,9 C 23,3 C 83 % 1016,4 hPa 0,0 l/m 1,0 km/h (0 Bft) O-NO 67 0 min 0,000 mm 0,0 UV-I 0 W/m 16,9 C 19,9 C 3,2 km/h (1 Bft) 100,00 %
15.08.2017 22:28 19,9 C 23,3 C 84 % 1016,4 hPa 0,0 l/m 0,4 km/h (0 Bft) O-NO 67 0 min 0,000 mm 0,0 UV-I 0 W/m 17,1 C 19,9 C 1,6 km/h (1 Bft) 100,00 %
15.08.2017 22:30 19,8 C 23,3 C 84 % 1016,4 hPa 0,0 l/m 1,7 km/h (1 Bft) O-NO 67 0 min 0,000 mm 0,0 UV-I 0 W/m 17,0 C 19,8 C 3,2 km/h (1 Bft) 100,00 %
15.08.2017 22:33 19,7 C 23,3 C 84 % 1016,4 hPa 0,0 l/m 1,4 km/h (1 Bft) O-NO 67 0 min 0,000 mm 0,0 UV-I 0 W/m 16,9 C 19,7 C 3,2 km/h (1 Bft) 100,00 %
15.08.2017 22:34 19,7 C 23,3 C 84 % 1016,4 hPa 0,0 l/m 1,3 km/h (1 Bft) O-NO 67 0 min 0,000 mm 0,0 UV-I 0 W/m 16,9 C 19,7 C 1,6 km/h (1 Bft) 100,00 %
15.08.2017 22:36 19,7 C 23,3 C 84 % 1016,4 hPa 0,0 l/m 1,7 km/h (1 Bft) O-NO 67 0 min 0,000 mm 0,0 UV-I 0 W/m 16,9 C 19,7 C 3,2 km/h (1 Bft) 100,00 %
15.08.2017 22:38 19,7 C 23,3 C 84 % 1016,5 hPa 0,0 l/m 1,5 km/h (1 Bft) O-NO 67 0 min 0,000 mm 0,0 UV-I 0 W/m 16,9 C 19,7 C 3,2 km/h (1 Bft) 97,87 %
15.08.2017 22:40 19,7 C 23,3 C 84 % 1016,5 hPa 0,0 l/m 2,1 km/h (1 Bft) O-NO 67 0 min 0,000 mm 0,0 UV-I 0 W/m 16,9 C 19,7 C 3,2 km/h (1 Bft) 100,00 %
15.08.2017 22:42 19,7 C 23,3 C 84 % 1016,6 hPa 0,0 l/m 2,7 km/h (1 Bft) O-NO 67 0 min 0,000 mm 0,0 UV-I 0 W/m 16,9 C 19,7 C 3,2 km/h (1 Bft) 100,00 %
15.08.2017 22:44 19,8 C 23,3 C 83 % 1016,6 hPa 0,0 l/m 2,0 km/h (1 Bft) O-NO 67 0 min 0,000 mm 0,0 UV-I 0 W/m 16,8 C 19,8 C 3,2 km/h (1 Bft) 100,00 %
15.08.2017 22:46 19,8 C 23,3 C 83 % 1016,6 hPa 0,0 l/m 0,6 km/h (0 Bft) O-NO 67 0 min 0,000 mm 0,0 UV-I 0 W/m 16,8 C 19,8 C 1,6 km/h (1 Bft) 100,00 %
15.08.2017 22:48 19,8 C 23,3 C 83 % 1016,6 hPa 0,0 l/m 0,7 km/h (0 Bft) O-NO 67 0 min 0,000 mm 0,0 UV-I 0 W/m 16,8 C 19,8 C 3,2 km/h (1 Bft) 98,53 %
15.08.2017 22:50 19,8 C 23,3 C 83 % 1016,6 hPa 0,0 l/m 3,3 km/h (1 Bft) O-NO 69 0 min 0,000 mm 0,0 UV-I 0 W/m 16,8 C 19,8 C 4,8 km/h (1 Bft) 97,37 %
15.08.2017 22:52 19,7 C 23,3 C 83 % 1016,7 hPa 0,0 l/m 3,3 km/h (1 Bft) SO 130 0 min 0,000 mm 0,0 UV-I 0 W/m 16,7 C 19,7 C 4,8 km/h (1 Bft) 100,00 %
15.08.2017 22:54 19,6 C 23,3 C 84 % 1016,7 hPa 0,0 l/m 3,4 km/h (1 Bft) S 175 0 min 0,000 mm 0,0 UV-I 0 W/m 16,8 C 19,6 C 4,8 km/h (1 Bft) 100,00 %
15.08.2017 22:56 19,4 C 23,3 C 84 % 1016,6 hPa 0,0 l/m 2,8 km/h (1 Bft) S 175 0 min 0,000 mm 0,0 UV-I 0 W/m 16,6 C 19,4 C 4,8 km/h (1 Bft) 97,87 %
15.08.2017 22:58 19,4 C 23,3 C 85 % 1016,6 hPa 0,0 l/m 2,1 km/h (1 Bft) S 175 0 min 0,000 mm 0,0 UV-I 0 W/m 16,8 C 19,4 C 4,8 km/h (1 Bft) 100,00 %
15.08.2017 23:00 19,4 C 23,3 C 85 % 1016,5 hPa 0,0 l/m 1,7 km/h (1 Bft) S 175 0 min 0,000 mm 0,0 UV-I 0 W/m 16,8 C 19,4 C 3,2 km/h (1 Bft) 100,00 %
15.08.2017 23:02 19,4 C 23,3 C 85 % 1016,5 hPa 0,0 l/m 1,9 km/h (1 Bft) S 175 0 min 0,000 mm 0,0 UV-I 0 W/m 16,8 C 19,4 C 3,2 km/h (1 Bft) 98,00 %
15.08.2017 23:04 19,3 C 23,3 C 85 % 1016,4 hPa 0,0 l/m 1,3 km/h (1 Bft) S 175 0 min 0,000 mm 0,0 UV-I 0 W/m 16,7 C 19,3 C 4,8 km/h (1 Bft) 100,00 %
15.08.2017 23:06 19,4 C 23,3 C 85 % 1016,4 hPa 0,0 l/m 2,7 km/h (1 Bft) S 175 0 min 0,000 mm 0,0 UV-I 0 W/m 16,8 C 19,4 C 4,8 km/h (1 Bft) 100,00 %
15.08.2017 23:08 19,4 C 23,3 C 85 % 1016,4 hPa 0,0 l/m 2,2 km/h (1 Bft) S 175 0 min 0,000 mm 0,0 UV-I 0 W/m 16,8 C 19,4 C 3,2 km/h (1 Bft) 100,00 %
15.08.2017 23:10 19,6 C 23,3 C 84 % 1016,4 hPa 0,0 l/m 0,7 km/h (0 Bft) S 175 0 min 0,000 mm 0,0 UV-I 0 W/m 16,8 C 19,6 C 1,6 km/h (1 Bft) 100,00 %
15.08.2017 23:12 19,7 C 23,3 C 84 % 1016,4 hPa 0,0 l/m 0,5 km/h (0 Bft) S 175 0 min 0,000 mm 0,0 UV-I 0 W/m 16,9 C 19,7 C 1,6 km/h (1 Bft) 100,00 %
15.08.2017 23:14 19,6 C 23,3 C 83 % 1016,4 hPa 0,0 l/m 2,1 km/h (1 Bft) S 175 0 min 0,000 mm 0,0 UV-I 0 W/m 16,6 C 19,6 C 3,2 km/h (1 Bft) 100,00 %
15.08.2017 23:16 19,6 C 23,3 C 83 % 1016,3 hPa 0,0 l/m 2,6 km/h (1 Bft) S 175 0 min 0,000 mm 0,0 UV-I 0 W/m 16,6 C 19,6 C 4,8 km/h (1 Bft) 100,00 %
15.08.2017 23:19 19,6 C 23,3 C 84 % 1016,3 hPa 0,0 l/m 3,5 km/h (1 Bft) S 175 0 min 0,000 mm 0,0 UV-I 0 W/m 16,8 C 19,6 C 4,8 km/h (1 Bft) 100,00 %
15.08.2017 23:20 19,6 C 23,3 C 84 % 1016,3 hPa 0,0 l/m 3,2 km/h (1 Bft) S 175 0 min 0,000 mm 0,0 UV-I 0 W/m 16,8 C 19,6 C 4,8 km/h (1 Bft) 100,00 %
15.08.2017 23:22 19,5 C 23,3 C 84 % 1016,3 hPa 0,0 l/m 1,3 km/h (1 Bft) S 175 0 min 0,000 mm 0,0 UV-I 0 W/m 16,7 C 19,5 C 4,8 km/h (1 Bft) 100,00 %
15.08.2017 23:24 19,5 C 23,3 C 84 % 1016,2 hPa 0,0 l/m 1,4 km/h (1 Bft) S 175 0 min 0,000 mm 0,0 UV-I 0 W/m 16,7 C 19,5 C 3,2 km/h (1 Bft) 100,00 %
15.08.2017 23:26 19,6 C 23,3 C 84 % 1016,2 hPa 0,0 l/m 0,4 km/h (0 Bft) S 175 0 min 0,000 mm 0,0 UV-I 0 W/m 16,8 C 19,6 C 1,6 km/h (1 Bft) 97,56 %
15.08.2017 23:28 19,5 C 23,3 C 84 % 1016,2 hPa 0,0 l/m 1,2 km/h (1 Bft) S 175 0 min 0,000 mm 0,0 UV-I 0 W/m 16,7 C 19,5 C 3,2 km/h (1 Bft) 100,00 %
15.08.2017 23:30 19,5 C 23,3 C 84 % 1016,2 hPa 0,0 l/m 0,7 km/h (0 Bft) S 175 0 min 0,000 mm 0,0 UV-I 0 W/m 16,7 C 19,5 C 1,6 km/h (1 Bft) 100,00 %
15.08.2017 23:32 19,4 C 23,3 C 84 % 1016,1 hPa 0,0 l/m 1,6 km/h (1 Bft) S 175 0 min 0,000 mm 0,0 UV-I 0 W/m 16,6 C 19,4 C 3,2 km/h (1 Bft) 100,00 %
15.08.2017 23:34 19,4 C 23,3 C 84 % 1016,1 hPa 0,0 l/m 2,1 km/h (1 Bft) S 175 0 min 0,000 mm 0,0 UV-I 0 W/m 16,6 C 19,4 C 3,2 km/h (1 Bft) 100,00 %
15.08.2017 23:36 19,3 C 23,3 C 84 % 1016,1 hPa 0,0 l/m 0,1 km/h (0 Bft) S 175 0 min 0,000 mm 0,0 UV-I 0 W/m 16,5 C 19,3 C 1,6 km/h (1 Bft) 100,00 %
15.08.2017 23:38 19,3 C 23,3 C 85 % 1016,1 hPa 0,0 l/m 0,0 km/h (0 Bft) S 175 0 min 0,000 mm 0,0 UV-I 0 W/m 16,7 C 19,3 C 1,6 km/h (1 Bft) 100,00 %
15.08.2017 23:40 19,2 C 23,3 C 85 % 1016,1 hPa 0,0 l/m 0,0 km/h (0 Bft) S 175 0 min 0,000 mm 0,0 UV-I 0 W/m 16,6 C 19,2 C 0,0 km/h (0 Bft) 100,00 %
15.08.2017 23:42 19,2 C 23,3 C 85 % 1016,0 hPa 0,0 l/m 1,9 km/h (1 Bft) S 175 0 min 0,000 mm 0,0 UV-I 0 W/m 16,6 C 19,2 C 4,8 km/h (1 Bft) 100,00 %
15.08.2017 23:44 19,1 C 23,3 C 85 % 1016,0 hPa 0,0 l/m 1,4 km/h (1 Bft) S 175 0 min 0,000 mm 0,0 UV-I 0 W/m 16,5 C 19,1 C 3,2 km/h (1 Bft) 100,00 %
15.08.2017 23:46 19,1 C 23,3 C 86 % 1016,0 hPa 0,0 l/m 1,0 km/h (0 Bft) S 175 0 min 0,000 mm 0,0 UV-I 0 W/m 16,7 C 19,1 C 1,6 km/h (1 Bft) 100,00 %
15.08.2017 23:48 19,1 C 23,3 C 86 % 1015,9 hPa 0,0 l/m 0,4 km/h (0 Bft) S 175 0 min 0,000 mm 0,0 UV-I 0 W/m 16,7 C 19,1 C 1,6 km/h (1 Bft) 100,00 %
15.08.2017 23:50 19,0 C 23,3 C 86 % 1015,9 hPa 0,0 l/m 0,0 km/h (0 Bft) S 175 0 min 0,000 mm 0,0 UV-I 0 W/m 16,6 C 19,0 C 0,0 km/h (0 Bft) 100,00 %
15.08.2017 23:52 18,9 C 23,3 C 85 % 1015,9 hPa 0,0 l/m 0,5 km/h (0 Bft) S 175 0 min 0,000 mm 0,0 UV-I 0 W/m 16,3 C 18,9 C 1,6 km/h (1 Bft) 97,22 %
15.08.2017 23:54 18,9 C 23,3 C 86 % 1015,9 hPa 0,0 l/m 0,7 km/h (0 Bft) S 175 0 min 0,000 mm 0,0 UV-I 0 W/m 16,5 C 18,9 C 1,6 km/h (1 Bft) 98,11 %
15.08.2017 23:56 18,8 C 23,3 C 86 % 1015,9 hPa 0,0 l/m 0,7 km/h (0 Bft) S 175 0 min 0,000 mm 0,0 UV-I 0 W/m 16,4 C 18,8 C 1,6 km/h (1 Bft) 93,62 %
15.08.2017 23:58 18,8 C 23,3 C 86 % 1015,9 hPa 0,0 l/m 0,0 km/h (0 Bft) S 175 0 min 0,000 mm 0,0 UV-I 0 W/m 16,4 C 18,8 C 0,0 km/h (0 Bft) 97,87 %
_ Min-Zeit 06:06 03:12 16:14 21:18 - 02:44 - - - - - - 06:06 06:06 02:44 20:18
Minimum _ 14,7 C 21,1 C 46 % 1015,6 hPa - 0,0 km/h (0 Bft) - - - - - - 12,2 C 14,7 C 0,0 km/h (0 Bft) 88,89 %
_ Max-Zeit 16:38 16:58 07:10 09:00 00:00 14:44 - - 11:39 13:00 12:52 13:02 19:04 16:38 14:42 00:00
Maximum _ 28,9 C 23,9 C 88 % 1019,2 hPa 0,0 l/m 12,0 km/h
O (2 Bft)
- - 9 min 0,534 mm 6,1 UV-I 824 W/m 19,1 C 28,9 C 16,1 km/h
NO (3 Bft)
100,00 %
Durchschnitt _ 21,4 C 22,3 C 71 % 1017,5 hPa #0,0 l/m 3,5 km/h (1 Bft) O-NO - #13:03 h #4,572 mm 3,5 UV-I 453 W/m 15,5 C 21,4 C 6,2 km/h (2 Bft) 97,85 %